     2              OBSERVATION DATA    GPS                 RINEX VERSION / TYPE
teqc 2000Feb29 20021017 22:04:03UTC                         PGM / RUN BY / DATE
                                                            COMMENT
L2: 1 -> 1; 5 -> 5; 60 -> 9                                 COMMENT
L2: 1 -> 1; 5 -> 5; 60 -> 9                                 COMMENT
L2: 1 -> 1; 5 -> 5; 60 -> 9                                 COMMENT
L2: 1 -> 1; 5 -> 5; 60 -> 9                                 COMMENT
L2: 1 -> 1; 5 -> 5; 60 -> 9                                 COMMENT
Original Marker Name: 3924182                               COMMENT
Campaign Name: Yolo County Subsidence 2002                  COMMENT
4-Character Station Name: 03EH                              COMMENT
6-Character Antenna Code: TRMCMP                            COMMENT
Vertical Measurement Point: BPA                             COMMENT
Vertical Offset to Rinex Ref. Point: 0.0000                 COMMENT
Radial Measurement Point: RRP                               COMMENT
Radial Offset to Rinex Ref. Point: 0.0000                   COMMENT
Antenna Height from Field Measurement: 2.0000 m             COMMENT
Additional Antenna Identification Info.:                    COMMENT
Model 22020.00+GP                                           COMMENT
Original XYZ: -2601331.7174 -4237930.7796 3980783.3959      COMMENT
New XYZ position is based on association with SCEC monument COMMENT
E1O4I8T4+0011. Position of that monument is believed to be  COMMENT
valid to within 1 m horizontally; vertical accuracy         COMMENT
should be no worse than 3-times this value.                 COMMENT
                                                            COMMENT
Revised Rinex header created by UCSD GPS archive for        COMMENT
GSAC on 27-Jun-2003 (2003:178) 16:46:57 GMT                 COMMENT
For assistance contact dagnew@ucsd.edu                      COMMENT
or anderson@python.ucsd.edu                                 COMMENT
                                                            COMMENT
HPGN D CA 03 EH                                             MARKER NAME
3924                                                        MARKER NUMBER
-Unknown- YOLO_COUNTY                                       OBSERVER / AGENCY
220223924 TRIMBLE 4700 NP 1.30; SP 1.43                     REC # / TYPE / VERS
0220063966 TR GEOD L1/L2 GP                                 ANT # / TYPE
 -2601331.5157 -4237927.6778  3980781.5728                  APPROX POSITION XYZ
        2.0000        0.0000        0.0000                  ANTENNA: DELTA H/E/N
     1     1     0                                          WAVELENGTH FACT L1/2
     7    C1    L1    L2    P1    P2    S1    S2            # / TYPES OF OBSERV
     0                                                      INTERVAL
  2002     7     1    14    59   30.000000                  TIME OF FIRST OBS
  2002     7     1    20     1   30.000000                  TIME OF LAST OBS
                                                            END OF HEADER
 02  7  1 14 59 30.0000000  0  6G 5G 6G10G15G17G30
  23294751.7424     180900.95159     94948.32657                  23294751.9694
        42.0004         34.7504
  20786858.3984     -75425.84059    -45665.33158                  20786857.4774
        50.5004         44.0004
  21411562.4454      67729.25259     33714.88358                  21411561.5044
        48.2504         43.7504
  23328075.6174    -160088.33059    -93534.54857                  23328077.2854
        44.7504         33.5004
  22382927.6334    -126825.09059    -73903.25758                  22382927.4384
        46.5004         40.0004
  21295993.5784     121931.75659     63260.77458                  21295993.6094
        47.7504         44.5004
 02  7  1 14 59 45.0000000  0  6G 5G 6G10G15G17G30
  23304243.8134     230785.01849    133819.01447                  23304244.5514
        43.0004         35.0004
  20783018.8054     -95602.51749    -61387.40148                  20783017.8594
        50.5004         43.5004
  21415283.7114      87286.75749     48954.49448                  21415282.7664
        47.7504         43.5004
  23319730.7814    -203941.30049   -127705.66047                  23319732.1454
        45.7504         33.0004
  22376414.2814    -161055.15049   -100576.00248                  22376414.6054
        47.2504         39.7504
  21302498.4534     156114.85249     89896.94448                  21302498.0664
        47.7504         44.5004
 02  7  1 15  0  0.0000000  0  6G 5G 6G10G15G17G30
  23313789.8594     280947.32049    172906.49047                  23313790.3554
        43.5004         34.5004
  20779238.4844    -115469.04649    -76867.81648                  20779237.6604
        50.2504         44.0004
  21419077.5164     107224.05649     64490.05848                  21419077.0634
        48.0004         43.5004
  23311440.7584    -247506.79349   -161652.75347                  23311442.0664
        45.5004         33.0004
  22369956.9454    -194989.98749   -127018.70748                  22369956.8954
        47.0004         39.5004
  21309069.7114     190645.88549    116804.23048                  21309069.2154
        49.0004         44.2504
 02  7  1 15  0 15.0000000  0  6G 5G 6G10G15G17G30
  23323392.2974     331412.25449    212229.76847                  23323393.2274
        42.2504         35.0004
  20775521.5634    -135000.60149    -92087.19648                  20775520.8364
        50.7504         43.5004
  21422948.5634     127565.74349     80340.71148                  21422948.1214
        47.2504         43.7504
  23303209.9454    -290760.05049   -195356.55347                  23303211.2544
        45.5004         33.0004
  22363560.1414    -228604.92249   -153212.14148                  22363559.8524
        47.2504         40.0004
  21315711.4064     225549.24749    144001.64048                  21315711.2384
        47.5004         44.5004
 02  7  1 15  0 30.0000000  0  6G 5G 6G10G15G17G30
  23333056.3134     382193.78249    251799.75147                  23333056.2114
        43.5004         34.5004
  20771871.5864    -154182.76549   -107034.34748                  20771870.2234
        50.5004         44.0004
  21426899.1174     148325.81749     96517.39048                  21426898.7544
        47.5004         43.5004
  23295040.6804    -333686.73049   -228805.87547                  23295042.3094
        45.7504         33.0004
  22357226.8134    -261885.69049   -179145.18447                  22357227.1604
        46.7504         39.2504
  21322426.8524     260838.92249    171500.06248                  21322426.6524
        47.7504         44.5004
 02  7  1 15  0 45.0000000  0  6G 5G 6G10G15G17G30
  23342778.9774     433286.73249    291612.41247                  23342779.9924
        42.0004         34.5004
  20768287.0004    -173020.05349   -121712.73548                  20768285.7034
        49.7504         44.0004
  21430928.3914     169499.40149    113016.29048                  21430927.7114
        47.5004         44.0004
  23286933.6884    -376291.44949   -262004.30947                  23286934.6564
        46.0004         33.2504
  22350956.5164    -294836.92249   -204821.43347                  22350956.3364
        45.0004         39.2504
  21329215.0634     296509.83849    199295.57248                  21329214.8984
        47.5004         44.0004
 02  7  1 15  1  0.0000000  0  6G 5G 6G10G15G17G30
  23352563.0944     484699.70149    331674.44047                  23352562.9654
        43.0004         34.7504
  20764769.3914    -191503.50849   -136115.41348                  20764768.6994
        51.0004         44.0004
  21435037.8914     191095.00749    129844.03748                  21435037.5234
        48.0004         44.2504
  23278889.2424    -418565.38549   -294944.99247                  23278890.3134
        46.0004         33.5004
  22344750.3204    -327449.90249   -230234.12748                  22344750.3014
        47.5004         39.5004
  21336077.1564     332570.60149    227394.85748                  21336077.0594
        48.2504         44.5004
 02  7  1 15  1 15.0000000  0  6G 5G 6G10G15G17G30
  23362406.3204     536429.80749    371983.57247                  23362406.9384
        43.2504         34.7504
  20761319.0314    -209635.34949   -150244.11748                  20761318.2074
        50.0004         44.5004
  21439227.1954     213109.85849    146998.45348                  21439226.1884
        47.7504         44.0004
  23270907.3914    -460510.95349   -327629.83747                  23270908.2464
        45.7504         33.0004
  22338608.5634    -359727.09849   -255385.16648                  22338608.7274
        46.7504         40.0004
  21343012.8594     369018.24749    255795.59948                  21343012.9654
        48.0004         44.5004
 02  7  1 15  1 30.0000000  0  6G 5G 6G10G15G17G30
  23372308.1174     588464.93149    412530.40247                  23372309.0234
        41.2504         34.5004
  20757933.3134    -227427.18249   -164107.88248                  20757932.6214
        50.2504         43.5004
  21443493.9454     235531.89549    164470.17348                  21443492.9614
        47.5004         43.2504
  23262985.6254    -502139.83649   -360067.89147                  23262986.7504
        46.0004         33.0004
  22332527.4774    -391680.16649   -280283.63548                  22332527.7664
        47.0004         39.5004
  21350019.8914     405840.88549    284488.54348                  21350019.7034
        47.5004         44.7504
 02  7  1 15  1 45.0000000  0  6G 5G 6G10G15G17G30
  23382265.6174     640788.87249    453302.26747                  23382266.0084
        41.5004         34.0004
  20754609.4304    -244894.78849   -177719.00248                  20754608.6214
        50.5004         43.5004
  21447835.1484     258345.04149    182246.64448                  21447834.7074
        47.5004         43.2504
  23255120.9144    -543467.90049   -392271.53847                  23255122.2934
        45.5004         33.2504
  22326506.1174    -423325.04549   -304941.95848                  22326506.1134
        46.7504         39.5004
  21357095.6094     443022.19249    313460.97948                  21357095.3594
        48.5004         44.5004
 02  7  1 15  2  0.0000000  0  7G 5G 6G10G15G17G30G29
  23392278.0784     693407.07949    494303.41747                  23392279.0314
        41.5004         34.2504
  20751348.5234    -262032.19149   -191072.81448                  20751347.6174
        49.7504         44.0004
  21452251.7664     281554.80149    200332.16348                  21452251.1054
        47.0004         43.0004
  23247314.5164    -584489.30749   -424236.23447                  23247315.4694
        45.0004         32.7504
  22320544.1334    -454655.95949   -329355.64748                  22320544.0434
        47.0004         40.0004
  21364239.8834     480567.59749    342717.11848                  21364239.8134
        47.5004         43.7504
  24723236.7664     -98619.70558    -73158.06056                  24723239.7384
        33.5004         19.0004
 02  7  1 15  2 15.0000000  0  7G 5G 6G10G15G17G30G29
  23402344.0164     746302.03149    535520.21647                  23402344.5634
        41.5004         35.0004
  20748146.7034    -278856.39449   -204182.57448                  20748146.0744
        50.0004         43.7504
  21456740.6484     305143.76449    218713.17048                  21456739.8324
        47.0004         44.0004
  23239563.9844    -625221.15949   -455975.29647                  23239564.8324
        45.5004         32.7504
  22314638.2584    -485690.12949   -353538.09348                  22314638.5354
        46.2504         40.0004
  21371451.0394     518459.69749    372243.40248                  21371450.2424
        47.5004         44.2504
  24716073.0944    -136268.82048   -102495.04746                  24716075.3404
        34.5004         17.7504
 02  7  1 15  2 30.0000000  0  7G 5G 6G10G15G17G30G29
  23412460.5164     799463.98249    576945.09547                  23412461.0434
        42.0004         33.7504
  20745003.3204    -295376.62849   -217055.48948                  20745002.1914
        50.0004         43.7504
  21461299.8834     329102.24049    237382.11648                  21461299.1604
        47.7504         43.5004
  23231866.5164    -665672.84449   -487496.04147                  23231867.2814
        45.7504         32.5004
  22308787.4454    -516436.84549   -377496.54748                  22308787.6414
        47.2504         39.7504
  21378725.5004     556688.72149    402032.24348                  21378725.3794
        47.5004         44.0004
  24708956.6174    -173663.37148   -131633.59746                  24708958.4574
        35.7504         18.2504
 02  7  1 15  2 45.0000000  0  7G 5G 6G10G15G17G30G29
  23422625.8284     852881.06749    618568.76047                  23422625.9024
        42.0004         34.0004
  20741915.1414    -311604.26849   -229700.40448                  20741914.3164
        49.7504         43.5004
  21465927.0784     353418.33449    256329.71548                  21465926.9064
        47.5004         43.5004
  23224219.4844    -705855.78549   -518807.40247                  23224220.5864
        45.7504         32.7504
  22302989.5634    -546907.66449   -401240.02748                  22302989.1254
        47.2504         40.0004
  21386061.9224     595242.90049    432074.44348                  21386061.5234
        47.5004         43.5004
  24701886.8594    -210814.50749   -160582.47646                  24701888.5634
        36.5004         20.5004
 02  7  1 15  3  0.0000000  0  7G 5G 6G10G15G17G30G29
  23432837.4774     906544.67949    660384.50747                  23432837.9734
        42.7504         34.0004
  20738881.3204    -327547.40249   -242123.61548                  20738880.1414
        50.0004         43.5004
  21470620.4224     378083.57049    275549.36548                  21470619.5904
        47.0004         43.0004
  23216622.1484    -745778.35149   -549915.87647                  23216624.0474
        45.5004         33.2504
  22297241.6414    -577110.90349   -424775.01348                  22297241.7854
        46.2504         40.2504
  21393458.9924     634113.62249    462363.29248                  21393458.7704
        47.7504         44.0004
  24694862.7114    -247730.18849   -189347.87246                  24694864.2464
        38.5004         21.2504
 02  7  1 15  3 15.0000000  0  7G 5G 6G10G15G17G30G29
  23443094.4534     960447.25349    702386.49947                  23443095.3364
        42.5004         33.7504
  20735899.9924    -343212.99149   -254330.55848                  20735899.0594
        49.5004         43.5004
  21475379.4064     403090.59349    295035.35448                  21475378.4024
        47.7504         43.2504
  23209073.1564    -785447.53849   -580826.88547                  23209074.9264
        45.0004         32.5004
  22291543.5944    -607053.71949   -448107.05348                  22291543.3554
        46.0004         40.0004
  21400914.7894     673293.26749    492892.87948                  21400914.2504
        47.0004         44.0004
  24687880.5554    -284417.15249   -217935.12446                  24687883.3524
        38.7504         21.7504
 02  7  1 15  3 30.0000000  0  7G 5G 6G10G15G17G30G29
  23453395.9534    1014581.33449    744568.83347                  23453396.8094
        42.7504         34.0004
  20732970.5554    -358608.00649   -266326.67548                  20732970.0474
        50.5004         43.5004
  21480201.6954     428431.95949    314781.86248                  21480201.2234
        48.0004         43.0004
  23201571.6094    -824870.52349   -611546.06647                  23201573.3554
        46.0004         33.2504
  22285893.8444    -636743.18149   -471241.69548                  22285893.5634
        47.7504         39.7504
  21408427.9774     712774.40849    523657.37748                  21408427.3754
        47.2504         43.5004
  24680942.1094    -320882.28149   -246349.43346                  24680944.3404
        39.5004         21.7504
 02  7  1 15  3 45.0000000  0  7G 5G 6G10G15G17G30G29
  23463738.6254    1068933.63349    786921.23047                  23463739.5474
        42.5004         33.0004
  20730089.8204    -373745.24449   -278121.92648                  20730089.1914
        48.7504         43.5004
  21485085.2114     454094.45149    334778.60248                  21485084.5084
        47.0004         43.0004
  23194114.4064    -864060.13749   -642083.39447                  23194115.2424
        46.0004         34.0004
  22280289.8594    -666192.37549   -494189.09648                  22280289.9804
        44.0004         39.7504
  21415995.6644     752543.81249    554646.51548                  21415995.6804
        47.5004         43.2504
  24674042.8594    -357138.06249   -274600.63246                  24674044.3284
        39.5004         22.0004
 02  7  1 15  4  0.0000000  0  7G 5G 6G10G15G17G30G29
  23474121.5554    1123493.57149    829435.43847                  23474122.1054
        42.5004         33.2504
  20727256.7034    -388634.76149   -289724.13348                  20727255.7544
        49.5004         43.0004
  21490027.4144     480067.60849    355017.43148                  21490027.1764
        48.0004         43.2504
  23186698.9144    -903026.61349   -672446.83747                  23186700.3134
        45.0004         33.7504
  22274730.0944    -695411.43149   -516957.17447                  22274729.7154
        46.2504         39.2504
  21423616.3984     792591.02249    585852.12048                  21423615.9804
        47.5004         43.2504
  24667181.6644    -393194.41349   -302696.46746                  24667182.7344
        40.2504         23.7504
 02  7  1 15  4 15.0000000  0  7G 5G 6G10G15G17G30G29
  23484542.8914    1178259.90649    872110.46747                  23484543.8364
        42.0004         32.7504
  20724470.2974    -403277.31049   -301133.92448                  20724469.9494
        49.7504         43.2504
  21495029.1024     506350.28049    375497.42148                  21495028.5234
        47.5004         42.7504
  23179326.5234    -941770.80949   -702637.08247                  23179327.3284
        45.7504         33.0004
  22269212.9924    -724401.25549   -539546.62847                  22269213.0634
        46.2504         39.0004
  21431289.8524     832914.66949    617273.12048                  21431289.2584
        47.0004         43.5004
  24660357.6174    -429051.90149   -330637.32946                  24660359.6644
        40.7504         22.7504
 02  7  1 15  4 30.0000000  0  7G 5G 6G10G15G17G30G29
  23495001.8914    1233221.61649    914937.73947                  23495003.1414
        43.0004         33.0004
  20721728.6094    -417683.38149   -312359.42848                  20721728.0784
        49.7504         42.7504
  21500087.2344     532931.56949    396210.11048                  21500086.6914
        47.7504         43.0004
  23171994.0004    -980303.32249   -732662.38347                  23171995.1644
        45.5004         32.7504
  22263738.7114    -753172.54749   -561965.79948                  22263738.4184
        47.2504         39.7504
  21439013.7664     873503.85749    648901.05048                  21439013.3794
        46.7504         43.5004
  24653570.3134    -464720.83149   -358431.25046                  24653572.9734
        41.0004         25.2504
 02  7  1 15  4 45.0000000  0  7G 5G 6G10G15G17G30G29
  23505497.8134    1288376.42949    957915.45747                  23505498.5824
        43.0004         32.7504
  20719032.0234    -431854.71949   -323402.02948                  20719031.0394
        48.0004         43.5004
  21505201.8444     559809.23349    417153.73348                  21505201.3794
        47.7504         42.7504
  23164701.1884   -1018625.97049   -762524.15347                  23164702.1134
        44.7504         33.2504
  22258304.5704    -781727.17349   -584216.14548                  22258304.3014
        44.5004         39.5004
  21446787.5864     914356.30149    680734.09548                  21446787.4534
        47.0004         43.2504
  24646818.2504    -500202.92649   -386079.58146                  24646821.1524
        40.5004         24.7504
 02  7  1 15  5  0.0000000  0  7G 5G 6G10G15G17G30G29
  23516027.0554    1343709.05549   1001031.75547                  23516028.1994
        43.7504         33.0004
  20716377.2664    -445806.22949   -334273.32848                  20716376.4884
        50.0004         43.2504
  21510370.1954     586967.87649    438316.30148                  21510369.4804
        48.5004         42.2504
  23157445.5944   -1056753.78749   -792234.10747                  23157446.3914
        44.7504         33.2504
  22252908.5704    -810080.22749   -606309.41748                  22252909.0634
        47.5004         40.0004
  21454608.6564     955456.62049    712760.31348                  21454608.3914
        48.2504         42.7504
  24640098.9384    -535512.53749   -413593.49947                  24640101.4344
        41.2504         26.0004
 02  7  1 15  5 15.0000000  0  7G 5G 6G10G15G17G30G29
  23526590.0004    1399217.34949   1044284.93247                  23526590.8984
        42.7504         32.5004
  20713764.2034    -459539.48649   -344974.55648                  20713763.1214
        48.0004         42.7504
  21515591.1024     614405.44249    459696.21948                  21515590.6684
        47.5004         43.0004
  23150226.8524   -1094688.50449   -821793.57947                  23150228.2274
        45.0004         33.5004
  22247551.6884    -838233.35849   -628246.90748                  22247551.6454
        45.7504         40.0004
  21462476.5474     996802.76849    744978.06348                  21462476.2114
        46.5004         43.2504
  24633412.6954    -570651.27749   -440974.30147                  24633413.9964
        42.2504         26.0004
 02  7  1 15  5 30.0000000  0  7G 5G 6G10G15G17G30G29
  23537184.6564    1454891.74349   1087667.55147                  23537185.4064
        42.5004         33.2504
  20711190.5944    -473063.50249   -355512.74348                  20711189.8204
        48.7504         42.5004
  21520863.5634     642112.50549    481286.14148                  21520863.2544
        48.5004         42.5004
  23143043.5784   -1132439.22049   -851209.67947                  23143044.3134
        45.0004         33.0004
  22242230.3594    -866195.98949   -650035.95348                  22242230.3834
        46.7504         40.0004
  21470389.5784    1038385.11549    777379.88448                  21470389.3404
        48.2504         43.0004
  24626756.7504    -605627.99149   -468228.83047                  24626758.7854
        41.0004         26.5004
 02  7  1 15  5 45.0000000  0  7G 5G 6G10G15G17G30G29
  23547810.7974    1510731.71849   1131179.16847                  23547811.1054
        43.2504         32.7504
  20708656.7814    -486378.36649   -365887.97048                  20708655.9104
        48.7504         42.5004
  21526187.4614     670088.55449    503085.64648                  21526186.9494
        48.2504         42.5004
  23135894.1484   -1170006.13649   -880482.56347                  23135895.5474
        45.7504         33.2504
  22236945.5784    -893968.22349   -671676.63948                  22236945.3014
        45.5004         40.0004
  21478347.3984    1080203.15349    809965.34548                  21478346.7384
        48.0004         43.0004
  24620130.6804    -640442.48949   -495356.98547                  24620133.5634
        40.7504         26.2504
 02  7  1 15  6  0.0000000  0  7G 5G 6G10G15G17G30G29
  23558466.8284    1566728.62449   1174813.07847                  23558467.3284
        43.7504         32.5004
  20706161.3914    -499492.10549   -376106.46548                  20706160.4144
        49.5004         43.2504
  21531561.0084     698325.03249    525088.08948                  21531560.4774
        47.7504         42.5004
  23128779.0004   -1207397.42349   -909618.60047                  23128780.3554
        45.5004         33.0004
  22231695.2814    -921558.23049   -693175.33548                  22231695.0044
        46.5004         39.5004
  21486348.1884    1122248.33449    842727.80548                  21486348.0164
        49.0004         42.2504
  24613535.5704    -675102.54849   -522364.77647                  24613538.0204
        41.0004         26.0004
 02  7  1 15  6 15.0000000  0  7G 5G 6G10G15G17G30G29
  23569151.3134    1622875.71949   1218564.01847                  23569151.9454
        43.7504         33.0004
  20703702.9844    -512410.97449   -386173.11348                  20703702.1334
        47.7504         43.0004
  21536981.9304     726815.38849    547288.35548                  21536981.4964
        47.2504         43.0004
  23121695.5314   -1244619.50049   -938622.77447                  23121697.2154
        45.2504         33.0004
  22226478.4774    -948972.50849   -714537.09548                  22226478.6954
        44.0004         39.5004
  21494391.3834    1164513.93649    875662.01948                  21494390.6954
        47.7504         43.0004
  24606967.9534    -709614.52049   -549257.18347                  24606970.4884
        41.5004         26.0004
 02  7  1 15  6 30.0000000  0  7G 5G 6G10G15G17G30G29
  23579864.1954    1679173.37549   1262432.29247                  23579865.3834
        42.5004         32.5004
  20701281.9924    -525134.13449   -396087.26548                  20701280.6604
        49.0004         42.7504
  21542452.1174     755559.87049    569686.63548                  21542451.6844
        47.7504         42.2504
  23114644.8914   -1281671.62949   -967494.53247                  23114645.9454
        46.0004         33.0004
  22221295.5704    -976210.42549   -735761.43848                  22221295.5044
        47.5004         40.0004
  21502476.0864    1207000.28149    908768.23948                  21502475.6724
        48.0004         43.2504
  24600429.1644    -743977.11549   -576033.16847                  24600432.1564
        40.7504         27.0004
 02  7  1 15  6 45.0000000  0  7G 5G 6G10G15G17G30G29
  23590604.9064    1735612.70749   1306410.94747                  23590605.2154
        44.0004         32.2504
  20698896.3134    -537669.93549   -405855.41548                  20698895.6844
        48.0004         43.2504
  21547969.0004     784549.78049    592276.17048                  21547968.3524
        48.0004         42.7504
  23107624.8984   -1318562.33949   -996240.51547                  23107625.7504
        44.7504         32.5004
  22216144.3594   -1003280.40749   -756854.91248                  22216144.0234
        44.0004         39.7504
  21510601.2424    1249698.51049    942039.56748                  21510600.8594
        49.0004         42.7504
  24593916.7664    -778198.63749   -602699.24246                  24593919.9534
        41.2504         24.5004
 02  7  1 15  7  0.0010000  0  7G 5G 6G10G15G17G30G29
  23601372.2314    1792195.78649   1350501.62347                  23601372.4544
        42.2504         32.0004
  20696546.1224    -550020.34849   -415479.12048                  20696545.2944
        49.0004         43.0004
  21553532.3254     813785.49149    615057.23448                  21553532.1304
        47.5004         43.0004
  23100634.6774   -1355295.39049  -1024863.64747                  23100635.9114
        46.0004         32.0004
  22211024.5214   -1030185.63049   -777820.01348                  22211024.3334
        47.0004         40.0004
  21518767.1304    1292609.92049    975477.01148                  21518766.7944
        47.7504         42.5004
  24587431.3024    -812282.15549   -629257.77946                  24587433.4074
        40.5004         25.5004
 02  7  1 15  7 15.0010000  0  7G 5G 6G10G15G17G30G29
  23612163.4504    1848909.41749   1394694.01747                  23612165.0404
        43.7504         33.0004
  20694230.4354    -562188.87049   -424961.07748                  20694230.0094
        48.5004         43.2504
  21559140.7244     843257.58849    638022.50748                  21559139.6654
        47.0004         42.5004
  23093674.5994   -1391871.18449  -1053364.20847                  23093675.4424
        45.2504         32.7504
  22205935.4504   -1056927.79049   -798658.03848                  22205935.3724
        45.2504         40.0004
  21526971.1384    1335722.89349   1009071.51948                  21526970.7714
        48.0004         42.7504
  24580971.3104    -846228.20249   -655709.15747                  24580973.3564
        41.0004         26.0004
 02  7  1 15  7 30.0010000  0  7G 5G 6G10G15G17G30G29
  23622980.8804    1905752.38849   1438987.19847                  23622981.4504
        44.2504         32.7504
  20691948.1464    -574180.77149   -434305.41448                  20691947.7004
        48.5004         43.2504
  21564793.2164     872963.07749    661169.62148                  21564792.9894
        48.0004         42.2504
  23086742.5214   -1428296.69049  -1081747.72047                  23086743.9974
        45.5004         33.0004
  22200876.2474   -1083513.36349   -819374.06248                  22200876.3214
        45.7504         40.2504
  21535213.3254    1379035.55449   1042821.62648                  21535213.1854
        48.7504         43.0004
  24574536.8964    -880043.37149   -682058.60746                  24574538.9664
        41.0004         25.5004
 02  7  1 15  7 45.0010000  0  7G 5G 6G10G15G17G30G29
  23633822.4194    1962726.65249   1483382.70047                  23633823.5754
        44.0004         32.0004
  20689700.8564    -585993.65949   -443510.26348                  20689699.8334
        48.5004         43.2504
  21570490.7084     902903.80649    684500.05248                  21570490.1304
        48.2504         42.7504
  23079840.8334   -1464569.49049  -1110012.19947                  23079841.5874
        45.7504         33.0004
  22195847.6534   -1109939.96949   -839966.21348                  22195848.0244
        44.5004         39.7504
  21543493.8564    1422549.72849   1076728.74948                  21543493.9744
        49.0004         43.0004
  24568126.9194    -913724.90749   -708303.93947                  24568129.9424
        40.5004         26.2504
 02  7  1 15  8  0.0010000  0  7G 5G 6G10G15G17G30G29
  23644689.0524    2019827.76549   1527877.03347                  23644689.4894
        44.2504         32.5004
  20687486.2164    -597631.48049   -452578.69648                  20687485.1464
        49.5004         42.7504
  21576232.1464     933075.37849    708010.34848                  21576231.9074
        47.7504         42.0004
  23072966.8104   -1500693.69449  -1138160.90247                  23072966.8214
        44.7504         33.0004
  22190848.1534   -1136211.89149   -860437.83048                  22190847.9704
        46.0004         39.5004
  21551811.7394    1466261.03949   1110789.49048                  21551811.4784
        48.7504         42.7504
  24561741.9034    -947276.74649   -734448.17147                  24561744.9384
        40.7504         26.5004
 02  7  1 15  8 15.0010000  0  7G 5G 6G10G15G17G30G29
  23655577.8254    2077048.45349   1572464.53547                  23655578.3104
        44.5004         32.5004
  20685303.6144    -609100.98149   -461515.96348                  20685302.7434
        49.7504         42.7504
  21582016.1924     963470.60249    731694.94348                  21582015.7514
        48.2504         42.5004
  23066118.6924   -1536676.33349  -1166199.28147                  23066119.9744
        45.5004         33.7504
  22185876.6144   -1162335.97749   -880794.24847                  22185876.8494
        47.0004         39.0004
  21560165.8564    1510162.13549   1144998.11348                  21560165.8134
        49.0004         43.0004
  24555381.1464    -980705.42349   -760496.43547                  24555383.5324
        40.5004         26.0004
 02  7  1 15  8 30.0010000  0  7G 5G 6G10G15G17G30G29
  23666488.5364    2134387.17049   1617144.01047                  23666489.7084
        44.5004         32.5004
  20683152.4814    -620403.22849   -470322.90848                  20683151.9504
        49.7504         43.0004
  21587842.7864     994088.01449    755552.64748                  21587842.2204
        46.5004         42.5004
  23059298.7634   -1572518.47849  -1194128.20047                  23059299.8414
        45.5004         34.0004
  22180933.5364   -1188313.43949   -901036.40548                  22180933.0444
        47.2504         39.7504
  21568555.9744    1554251.49249   1179353.44248                  21568555.6854
        48.2504         43.2504
  24549043.0604   -1014011.71749   -786449.29047                  24549045.1104
        40.5004         26.0004
 02  7  1 15  8 45.0010000  0  7G 5G 6G10G15G17G30G29
  23677422.1614    2191842.88749   1661914.66847                  23677422.9194
        43.0004         31.5004
  20681033.6144    -631538.65649   -478999.86348                  20681033.0524
        48.5004         42.7504
  21593711.0284    1024926.78249    779582.84648                  21593710.8924
        48.0004         42.7504
  23052504.6144   -1608220.81149  -1221948.14547                  23052506.2044
        45.0004         33.7504
  22176017.5754   -1214144.90849   -921164.81248                  22176018.1264
        45.0004         39.7504
  21576981.1924    1598528.14149   1213854.70248                  21576981.1464
        48.5004         42.7504
  24542728.5524   -1047195.96749   -812307.13947                  24542730.2164
        40.0004         26.0004
 02  7  1 15  9  0.0010000  0  7G 5G 6G10G15G17G30G29
  23688377.0994    2249410.14149   1706772.23547                  23688378.0994
        44.0004         31.5004
  20678945.4584    -642512.22349   -487550.70948                  20678944.8494
        49.5004         42.5004
  21599620.7084    1055981.26949    803781.14148                  21599619.7984
        47.5004         43.0004
  23045736.4114   -1643788.36949  -1249663.13047                  23045737.3414
        45.0004         33.5004
  22171128.8494   -1239835.61149   -941183.52948                  22171128.6264
        47.5004         39.5004
  21585441.6144    1642986.69749   1248497.71048                  21585441.8174
        49.0004         42.5004
  24536435.3494   -1080262.76349   -838073.44447                  24536438.0014
        41.2504         25.7504
 02  7  1 15  9 15.0010000  0  8G 5G 6G10G15G17G23G30G29
  23699353.1534    2307089.38149   1751717.04447                  23699353.8564
        44.0004         31.7504
  20676888.2394    -653323.04649   -495974.72048                  20676887.4154
        49.0004         42.7504
  21605571.5444    1087252.04349    828147.95848                  21605570.8024
        47.5004         42.7504
  23038993.7164   -1679220.42049  -1277272.48347                  23038994.4584
        45.5004         34.7504
  22166267.2944   -1265384.79949   -961091.98348                  22166266.8684
        46.0004         40.2504
  21141131.2714    -845059.15659   -642456.15858                  21141130.6884
        47.7504         43.5004
  21593936.1384    1687627.43849   1283282.67548                  21593936.4544
        49.2504         42.5004
  24530165.6694   -1113211.32449   -863747.59346                  24530167.6534
        41.2504         25.5004
 02  7  1 15  9 30.0010000  0  8G 5G 6G10G15G17G23G30G29
  23710349.0054    2364873.90349   1796743.91847                  23710349.6464
        44.5004         30.7504
  20674860.7164    -663977.30849   -504276.73048                  20674859.7634
        49.5004         43.0004
  21611561.7784    1118732.47349    852678.16348                  21611561.3604
        48.0004         42.7504
  23032275.5834   -1714523.21649  -1304781.11847                  23032276.9744
        45.2504         34.7504
  22161430.8494   -1290798.68649   -980894.98248                  22161431.1424
        46.0004         40.0004
  21138462.0054    -859086.63149   -653386.64348                  21138461.5484
        47.5004         43.5004
  21602464.7314    1732443.79349   1318204.49448                  21602464.6534
        49.0004         42.7504
  24523917.1924   -1146047.42449   -889334.13146                  24523919.0054
        40.5004         25.2504
 02  7  1 15  9 45.0010000  0  8G 5G 6G10G15G17G23G30G29
  23721365.2244    2422764.36849   1841853.33947                  23721366.1614
        44.0004         30.5004
  20672863.2554    -674473.75349   -512455.77948                  20672863.1694
        48.5004         43.0004
  21617592.3564    1150423.30249    877372.30948                  21617591.5834
        47.0004         42.5004
  23025582.8024   -1749695.61149  -1332188.13947                  23025583.6224
        45.5004         33.7504
  22156620.9974   -1316076.33949  -1000591.84848                  22156620.7824
        45.5004         40.2504
  21135832.1854    -872904.85649   -664154.08248                  21135831.6734
        47.0004         43.5004
  21611026.3884    1777436.30149   1353263.56948                  21611026.5444
        49.5004         42.5004
  24517690.4664   -1178769.74949   -914831.98546                  24517692.5094
        40.5004         24.5004
 02  7  1 15 10  0.0010000  0  8G 5G 6G10G15G17G23G30G29
  23732401.5834    2480760.52749   1887045.11047                  23732402.3334
        44.2504         30.0004
  20670896.0054    -684812.13449   -520511.66348                  20670895.3134
        49.2504         43.2504
  21623662.7714    1182324.32649    902230.23348                  21623662.3454
        47.2504         43.0004
  23018914.7634   -1784737.47649  -1359493.46447                  23018915.1814
        46.0004         34.0004
  22151836.4744   -1341217.67149  -1020182.49348                  22151836.8924
        45.5004         40.0004
  21133242.7554    -886513.67649   -674758.35248                  21133242.0484
        47.0004         43.5004
  21619621.8644    1822604.84149   1388459.81448                  21619621.8064
        49.0004         42.5004
  24511485.3334   -1211377.74749   -940240.80746                  24511487.2394
        39.2504         22.5004
 02  7  1 15 10 15.0010000  0  8G 5G 6G10G15G17G23G30G29
  23743457.6144    2538859.89349   1932317.30447                  23743458.3764
        43.2504         30.5004
  20668958.5604    -694994.52849   -528445.99348                  20668957.5364
        49.0004         43.7504
  21629772.8644    1214432.94649    927249.92848                  21629772.3764
        47.5004         43.0004
  23012270.9504   -1819651.01449  -1386698.77847                  23012272.0564
        45.5004         34.5004
  22147077.9974   -1366224.84749  -1039668.58248                  22147077.6614
        46.2504         39.5004
  21130692.4194    -899915.19849   -685201.08648                  21130692.0244
        48.0004         43.7504
  21628250.1224    1867946.83849   1423791.21648                  21628250.5244
        49.0004         42.0004
  24505301.8414   -1243873.33349   -965561.98346                  24505303.8414
        40.0004         22.7504
 02  7  1 15 10 30.0010000  0  8G 5G 6G10G15G17G23G30G29
  23754533.3104    2597061.61349   1977669.28647                  23754534.0054
        44.0004         30.2504
  20667050.5524    -705021.18849   -536258.98048                  20667049.3174
        49.7504         43.5004
  21635922.4274    1246748.52649    952430.89048                  21635922.0874
        47.5004         42.2504
  23005651.5994   -1854436.70249  -1413804.48147                  23005652.1344
        45.7504         35.0004
  22142344.6614   -1391098.36949  -1059050.54248                  22142344.8414
        47.5004         40.0004
  21128181.6224    -913109.79649   -695482.57948                  21128180.9234
        48.0004         43.2504
  21636911.1534    1913461.47049   1459257.13648                  21636911.3844
        49.5004         42.2504
  24499139.2164   -1276256.60649   -990795.62546                  24499141.2314
        39.7504         22.5004
 02  7  1 15 10 45.0010000  0  9G 5G 6G10G15G17G23G24G30G29
  23765626.1854    2655356.33749   2023093.68847                  23765627.1064
        44.2504         29.5004
  20665170.3494    -714901.01749   -543957.55048                  20665169.3374
        49.5004         43.0004
  21642109.7714    1279261.74749    977765.85048                  21642109.1854
        47.2504         42.5004
  22999054.4504   -1889103.56949  -1440817.58647                  22999054.9814
        46.2504         34.7504
  22137635.1534   -1415847.32249  -1078335.41748                  22137635.5174
        46.5004         40.0004
  21125708.3724    -926106.43349   -705609.83148                  21125707.9464
        47.7504         43.2504
  24856896.3564     137344.61959   1429893.70256                  24856899.2244
        38.7504         22.0004
  21645603.4814    1959139.44049   1494850.34248                  21645603.7244
        49.2504         42.0004
  24492996.3724   -1308536.22149  -1015948.54046                  24492998.6854
        39.5004         24.2504
 02  7  1 15 11  0.0010000  0  8G 5G 6G10G15G17G23G30G29
  23776737.3644    2713747.71649   2068593.43147                  23776738.6424
        44.0004         29.5004
  20663319.2084    -724629.83149   -551538.44448                  20663317.9854
        49.0004         43.0004
  21648334.7554    1311976.27149   1003257.67848                  21648334.1574
        47.0004         42.2504
  22992480.7784   -1923647.47449  -1467734.89647                  22992481.6344
        46.2504         35.5004
  22132950.3104   -1440467.65749  -1097520.09848                  22132950.1814
        46.0004         40.7504
  21123273.6224    -938900.94849   -715579.57548                  21123272.9424
        47.0004         43.5004
  21654327.7474    2004984.36049   1530573.62848                  21654327.8254
        49.2504         42.0004
  24486874.2084   -1340707.89949  -1041017.35946                  24486876.6344
        40.2504         22.2504
 02  7  1 15 11 15.0010000  0  8G 5G 6G10G15G17G23G30G29
  23787865.7394    2772226.60449   2114161.35347                  23787866.6344
        43.0004         29.2504
  20661495.1064    -734216.21849   -559008.35448                  20661494.2554
        49.5004         42.7504
  21654596.6224    1344883.03849   1028899.30548                  21654596.2084
        47.0004         42.0004
  22985929.4274   -1958077.21949  -1494563.23747                  22985930.1774
        46.2504         35.2504
  22128287.5834   -1464968.18749  -1116611.39948                  22128287.5874
        46.7504         40.5004
  21120875.5834    -951502.08649   -725398.63048                  21120875.1614
        47.5004         43.5004
  21663081.7714    2050987.06949   1566419.87648                  21663081.4624
        49.2504         42.5004
  24480770.8254   -1372779.90449  -1066008.50846                  24480773.5484
        40.0004         22.5004
 02  7  1 15 11 30.0010000  0  9G 5G 6G10G15G17G23G18G30G29
  23799010.8414    2830796.06449   2159799.85947                  23799011.9114
        43.2504         29.5004
  20659698.0834    -743656.58149   -566364.46948                  20659697.6424
        49.5004         43.5004
  21660895.8804    1377985.19649   1054693.19248                  21660895.6144
        47.0004         42.5004
  22979399.3964   -1992389.34649  -1521299.92947                  22979400.3254
        46.2504         34.5004
  22123648.5834   -1489345.52249  -1135606.71148                  22123648.8104
        46.5004         40.0004
  21118515.3174    -963906.31749   -735064.24748                  21118514.5444
        48.0004         43.5004
  24713512.6924    -140255.75459    -91643.26456                  24713513.0364
        40.5004         23.0004
  21671865.9194    2097150.62949   1602391.46748                  21671866.0994
        49.7504         42.5004
  24474688.0214   -1404748.58749  -1090919.10346                  24474689.8534
        39.2504         22.5004
 02  7  1 15 11 45.0010000  0  9G 5G 6G10G15G17G23G18G30G29
  23810174.3104    2889458.72949   2205510.98647                  23810175.2514
        43.5004         29.7504
  20657930.2944    -752947.82949   -573604.40148                  20657928.9314
        49.2504         42.7504
  21667232.7714    1411285.26849   1080641.29948                  21667232.1384
        47.0004         42.5004
  22972893.2474   -2026580.89649  -1547942.68147                  22972893.5174
        46.2504         34.0004
  22119033.8254   -1513596.70349  -1154503.72048                  22119033.8924
        45.7504         40.0004
  21116193.0054    -976110.65149   -744574.11048                  21116192.3174
        47.0004         43.2504
  24703732.3104    -191649.25649   -131690.11046                  24703732.8134
        39.7504         22.7504
  21680682.1924    2143477.64649   1638490.42048                  21680682.1144
        49.0004         42.7504
  24468624.9504   -1436610.78749  -1115746.73246                  24468626.3414
        40.0004         22.5004
 02  7  1 15 12  0.0010000  0  9G 5G 6G10G15G17G23G18G30G29
  23821354.1224    2948209.28349   2251290.59047                  23821355.0324
        43.5004         29.5004
  20656189.8804    -762094.70849   -580731.85248                  20656188.4664
        49.7504         43.0004
  21673605.9744    1444778.07249   1106739.56548                  21673606.1494
        46.2504         42.5004
  22966408.4744   -2060656.73649  -1574495.25947                  22966409.1384
        46.2504         34.5004
  22114441.9814   -1537726.62349  -1173306.24548                  22114442.5134
        47.2504         40.0004
  21113907.5214    -988119.94949   -753932.00648                  21113907.1344
        47.2504         43.5004
  24693967.8174    -242965.17849   -171676.48146                  24693967.5244
        40.5004         22.0004
  21689527.5134    2189962.89349   1674712.66248                  21689527.8604
        49.5004         42.5004
  24462580.7634   -1468370.86049  -1140494.82246                  24462582.9624
        41.2504         22.5004
 02  7  1 15 12 15.0010000  0  9G 5G 6G10G15G17G23G18G30G29
  23832550.0674    3007042.97349   2297134.99347                  23832550.6344
        43.0004         30.0004
  20654475.7784    -771101.47249   -587750.09948                  20654475.1224
        50.0004         42.7504
  21680015.3644    1478458.83949   1132984.32148                  21680014.8924
        47.0004         42.7504
  22959945.4814   -2094621.27849  -1600961.11447                  22959945.9464
        45.5004         34.5004
  22109872.3174   -1561739.88249  -1192017.87048                  22109872.4034
        47.0004         40.0004
  21111658.2634    -999938.55549   -763141.30548                  21111657.8064
        48.2504         43.5004
  24684216.9584    -294207.56649   -211605.61346                  24684216.3804
        41.0004         24.2504
  21698402.9424    2236601.47749   1711054.39648                  21698403.1064
        49.0004         41.7504
  24456556.2244   -1500032.96949  -1165166.58046                  24456558.2594
        40.0004         22.5004
 02  7  1 15 12 30.0010000  0  9G 5G 6G10G15G17G23G18G30G29
  23843761.6224    3065961.13949   2343045.21447                  23843762.2674
        42.7504         29.5004
  20652788.9744    -779966.22649   -594657.70748                  20652787.7864
        50.2504         43.0004
  21686460.7394    1512329.12049   1159376.72648                  21686460.5914
        47.0004         42.5004
  22953503.7554   -2128472.83749  -1627338.90947                  22953504.3844
        45.7504         33.7504
  22105325.6144   -1585634.60649  -1210637.12448                  22105325.4974
        46.7504         40.5004
  21109446.1064   -1011564.63749   -772200.57148                  21109445.7674
        48.2504         43.5004
  24674479.8804    -345374.55049   -251475.91246                  24674480.3884
        41.2504         22.5004
  21707307.6464    2283394.89549   1747516.78348                  21707307.5214
        48.5004         41.2504
  24450549.4504   -1531595.13549  -1189760.40846                  24450551.9464
        40.7504         23.2504
 02  7  1 15 12 45.0010000  0  9G 5G 6G10G15G17G23G18G30G29
  23854989.4504    3124962.19249   2389020.00747                  23854990.3964
        44.2504         29.5004
  20651128.9584    -788690.17149   -601455.57948                  20651127.8254
        48.5004         43.5004
  21692941.5524    1546387.29049   1185915.56648                  21692941.1464
        47.0004         42.2504
  22947083.5284   -2162212.55049  -1653629.55247                  22947083.8924
        46.0004         34.0004
  22100800.6384   -1609412.13549  -1229165.05648                  22100801.2514
        45.5004         40.5004
  21107269.9274   -1022999.46049   -781110.81748                  21107269.6184
        48.0004         43.5004
  24664756.4424    -396466.97249   -291288.17146                  24664757.6774
        41.2504         22.7504
  21716241.0444    2330341.38449   1784098.43448                  21716241.6384
        48.2504         41.5004
  24444562.5994   -1563058.09349  -1214276.96646                  24444564.2784
        40.7504         21.7504
 02  7  1 15 13  0.0010000  0  9G 5G 6G10G15G17G23G18G30G29
  23866232.4194    3184043.89149   2435057.68847                  23866233.3994
        43.7504         29.5004
  20649495.2394    -797275.01449   -608145.06048                  20649494.2434
        49.7504         43.0004
  21699457.8564    1580631.00549   1212598.97748                  21699457.9664
        47.0004         41.7504
  22940683.4354   -2195842.27149  -1679834.50147                  22940684.1694
        45.5004         34.7504
  22096298.0444   -1633074.44449  -1247603.20648                  22096298.3804
        47.0004         41.0004
  21105130.1854   -1034244.83249   -789873.43448                  21105129.7944
        47.7504         43.7504
  24655048.3174    -447486.64949   -331043.73646                  24655048.7354
        41.5004         23.7504
  21725203.4664    2377438.75449   1820797.66948                  21725203.3644
        48.5004         41.7504
  24438593.6464   -1594423.45249  -1238717.45747                  24438595.4384
        40.7504         25.7504
 02  7  1 15 13 15.0010000  0  9G 5G 6G10G15G17G23G18G30G29
  23877489.6924    3243203.66049   2481156.14947                  23877490.7044
        43.0004         29.7504
  20647887.3414    -805722.87749   -614727.80648                  20647886.4624
        50.0004         42.7504
  21706009.1694    1615057.78849   1239425.02248                  21706009.1144
        46.2504         42.0004
  22934304.4194   -2229364.15849  -1705955.43247                  22934305.1694
        45.7504         33.7504
  22091816.5674   -1656623.80249  -1265953.33648                  22091816.7984
        47.2504         40.5004
  21103026.2864   -1045302.87349   -798490.08048                  21103025.4384
        47.7504         43.5004
  24645353.0214    -498435.57349   -370744.18946                  24645353.8254
        40.7504         22.5004
  21734193.8414    2424684.39249   1857612.42748                  21734193.6924
        48.5004         41.5004
  24432643.1304   -1625693.05349  -1263083.34346                  24432645.1384
        40.5004         23.0004
 02  7  1 15 13 30.0010000  0  9G 5G 6G10G15G17G23G18G30G29
  23888763.7634    3302446.24749   2527319.17247                  23888764.2634
        43.5004         30.0004
  20646306.9584    -814028.41749   -621199.66648                  20646305.7594
        49.5004         42.7504
  21712596.1224    1649672.50249   1266397.51248                  21712595.6494
        47.7504         42.5004
  22927947.3724   -2262773.09249  -1731988.34647                  22927948.0014
        45.7504         34.0004
  22087357.8254   -1680054.93049  -1284211.35948                  22087358.0564
        47.0004         40.7504
  21100958.6144   -1056168.36949   -806956.70248                  21100958.2554
        49.0004         43.7504
  24635672.8104    -549308.26449   -410385.18346                  24635672.8414
        41.7504         25.0004
  21743213.7244    2472083.20549   1894546.53148                  21743213.6884
        48.7504         42.2504
  24426712.0134   -1656861.53049  -1287370.43346                  24426714.1424
        40.7504         25.5004
 02  7  1 15 13 45.0010000  0  9G 5G 6G10G15G17G23G18G30G29
  23900051.5134    3361764.72049   2573541.32847                  23900052.5794
        43.7504         30.2504
  20644752.4114    -822198.10049   -627565.64048                  20644751.7514
        49.7504         43.0004
  21719217.6534    1684468.08849   1293510.96748                  21719217.4074
        46.5004         42.0004
  22921610.0994   -2296075.78349  -1757938.44947                  22921610.7244
        46.0004         35.2504
  22082920.3334   -1703374.60549  -1302382.51048                  22082920.3644
        47.7504         40.5004
  21098926.1224   -1066847.92749   -815278.42548                  21098925.3174
        48.2504         43.7504
  24626004.5994    -600111.05649   -449971.75446                  24626005.4274
        41.7504         24.2504
  21752261.3024    2519628.05449   1931594.44748                  21752260.9074
        48.5004         42.0004
  24420798.6774   -1687935.12449  -1311583.59346                  24420800.6854
        41.5004         22.7504
 02  7  1 15 14  0.0010000  0  9G 5G 6G10G15G17G23G18G30G29
  23911353.9034    3421158.06649   2619821.80647                  23911354.8924
        43.5004         29.5004
  20643223.5134    -830232.41049   -633826.14648                  20643222.3064
        49.0004         42.7504
  21725873.1694    1719443.74649   1320764.71548                  21725873.0214
        47.5004         42.0004
  22915292.3104   -2329272.75549  -1783806.19047                  22915293.6384
        46.0004         34.5004
  22078503.7714   -1726583.47049  -1320467.33148                  22078503.6654
        47.0004         40.2504
  21096929.1384   -1077342.12949   -823455.71048                  21096928.5324
        48.5004         43.5004
  24616350.8564    -650844.26349   -489504.10346                  24616351.1104
        41.2504         22.7504
  21761336.1224    2567317.96149   1968755.39448                  21761336.3174
        48.2504         42.0004
  24414903.4744   -1718914.17049  -1335723.05946                  24414905.7984
        41.7504         24.5004
 02  7  1 15 14 15.0010000  0  9G 5G 6G10G15G17G23G18G30G29
  23922669.9814    3480625.38449   2666159.94247                  23922671.0324
        43.2504         29.5004
  20641720.6224    -838131.77349   -639981.48948                  20641719.2674
        50.0004         43.0004
  21732562.8724    1754598.54849   1348158.04848                  21732562.8214
        47.7504         42.2504
  22908995.5674   -2362364.52149  -1809591.96147                  22908996.0634
        46.2504         34.7504
  22074108.2164   -1749682.18449  -1338466.31048                  22074108.2984
        46.7504         40.0004
  21094967.3804   -1087651.47749   -831488.95748                  21094966.6734
        48.5004         43.2504
  24606709.2394    -701508.27749   -528982.50446                  24606710.2864
        42.2504         25.2504
  21770438.9194    2615152.06049   2006028.69248                  21770438.9744
        47.5004         42.0004
  24409026.5674   -1749798.75049  -1359788.92546                  24409028.8804
        41.0004         24.0004
 02  7  1 15 14 30.0010000  0  9G 5G 6G10G15G17G23G18G30G29
  23934000.3334    3540169.19549   2712557.66647                  23934001.7244
        43.5004         30.2504
  20640243.5444    -845893.08549   -646029.26348                  20640242.7744
        47.7504         42.5004
  21739287.4814    1789934.95649   1375692.91548                  21739287.1104
        47.0004         42.5004
  22902718.7944   -2395348.16349  -1835293.45947                  22902719.8214
        46.0004         34.7504
  22069734.2634   -1772667.82049  -1356377.18248                  22069734.0094
        46.2504         40.5004
  21093041.1064   -1097772.99849   -839375.84548                  21093040.5284
        47.5004         43.7504
  24597082.6064    -752099.95749   -568404.57346                  24597083.3134
        41.7504         24.2504
  21779569.3884    2663132.84249   2043416.29448                  21779569.2474
        48.0004         42.0004
  24403168.1384   -1780585.84449  -1383778.84046                  24403170.1494
        41.2504         25.5004
 02  7  1 15 14 45.0010000  0  9G 5G 6G10G15G17G23G18G30G29
  23945345.5834    3599784.82749   2759011.35747                  23945346.5794
        43.7504         29.5004
  20638791.9424    -853520.57549   -651972.77048                  20638790.8604
        48.5004         43.0004
  21746045.5834    1825448.34749   1403365.66248                  21746045.5014
        46.2504         42.5004
  22896462.2864   -2428227.98049  -1860914.06347                  22896462.8604
        46.5004         35.0004
  22065380.9894   -1795544.57849  -1374203.21848                  22065380.7864
        47.0004         40.2504
  21091149.7944   -1107710.96749   -847119.71648                  21091149.1064
        47.0004         43.5004
  24587468.2944    -802623.28049   -607773.34546                  24587468.8024
        41.2504         25.2504
  21788726.9744    2711255.61249   2080914.53148                  21788726.6694
        49.0004         42.0004
  24397327.4194   -1811279.27649  -1407695.74646                  24397329.0484
        41.7504         25.5004
 02  7  1 15 15  0.0010000  0  9G 5G 6G10G15G17G23G18G30G29
  23956703.8174    3659475.14749   2805523.26747                  23956704.8454
        43.5004         29.2504
  20637366.4274    -861010.87049   -657809.35448                  20637365.9744
        48.5004         43.0004
  21752837.3254    1861141.74149   1431178.68848                  21752837.4274
        47.2504         41.7504
  22890225.7004   -2461000.77749  -1886451.27847                  22890226.2554
        46.2504         35.0004
  22061048.6614   -1818309.44949  -1391942.05748                  22061048.9664
        46.2504         40.7504
  21089294.5754   -1117462.05649   -854717.95548                  21089293.5954
        47.5004         43.7504
  24577866.6384    -853074.78749   -647086.17946                  24577867.7354
        42.0004         25.5004
  21797911.6854    2759523.23049   2118525.63748                  21797911.7784
        49.0004         41.5004
  24391504.3724   -1841875.41049  -1431536.82847                  24391506.8064
        41.7504         26.7504
 02  7  1 15 15 15.0010000  0  9G 5G 6G10G15G17G23G18G30G29
  23968076.9664    3719238.67049   2852092.19747                  23968078.0634
        44.0004         29.5004
  20635967.2634    -868364.97549   -663539.82448                  20635966.4314
        49.2504         42.7504
  21759663.7004    1897013.66149   1459130.83048                  21759663.9194
        47.0004         41.7504
  22884009.3414   -2493667.62449  -1911905.93847                  22884009.8534
        46.7504         35.2504
  22056737.8564   -1840963.55949  -1409594.60148                  22056738.1814
        47.5004         40.7504
  21087474.2784   -1127027.36449   -862171.43448                  21087473.4234
        49.0004         43.2504
  24568280.1854    -903455.42949   -686343.82647                  24568280.4354
        42.0004         26.5004
  21807124.4114    2807934.26549   2156248.50048                  21807124.4154
        49.0004         42.0004
  24385700.8104   -1872375.28749  -1455302.92947                  24385703.1184
        41.5004         26.2504
 02  7  1 15 15 30.0010000  0  9G 5G 6G10G15G17G23G18G30G29
  23979462.8334    3779069.99449   2898713.96247                  23979463.5364
        43.0004         29.5004
  20634592.6534    -875587.68049   -669167.89048                  20634591.8994
        48.5004         43.0004
  21766522.9504    1933058.74549   1487217.90348                  21766523.0214
        47.5004         42.0004
  22877812.8104   -2526233.56549  -1937281.95747                  22877812.8724
        46.5004         35.0004
  22052447.1384   -1863511.84349  -1427164.68048                  22052447.2124
        47.0004         40.7504
  21085688.4114   -1136411.88249   -869484.03248                  21085687.7824
        48.5004         43.7504
  24558705.7634    -953769.91649   -725549.86547                  24558706.1734
        42.2504         26.0004
  21816362.9274    2856483.20849   2194078.83248                  21816363.0404
        49.0004         41.7504
  24379914.6924   -1902783.28549  -1478997.43247                  24379916.7824
        42.0004         26.0004
 02  7  1 15 15 45.0010000  0  9G 5G 6G10G15G17G23G18G30G29
  23990861.1694    3838972.57049   2945391.27147                  23990862.9314
        43.5004         29.5004
  20633244.1224    -882675.05349   -674690.52048                  20633242.8604
        48.7504         43.0004
  21773415.9974    1969280.43949   1515442.58548                  21773415.5634
        47.5004         42.0004
  22871635.0364   -2558694.79549  -1962576.37447                  22871636.0174
        46.5004         35.5004
  22048177.2634   -1885950.56449  -1444649.38248                  22048177.3294
        46.0004         41.0004
  21083937.5994   -1145611.69449   -876652.70448                  21083937.0444
        48.7504         43.5004
  24549145.2554   -1004014.05649   -764701.12246                  24549145.0134
        41.0004         25.2504
  21825627.9194    2905173.53949   2232019.31848                  21825628.2714
        48.7504         41.5004
  24374146.8564   -1933095.39649  -1502617.22247                  24374148.1104
        43.2504         27.5004
 02  7  1 15 16  0.0010000  0  9G 5G 6G10G15G17G23G18G30G29
  24002273.9894    3898944.10049   2992122.27347                  24002274.7674
        43.0004         30.5004
  20631920.7944    -889628.94349   -680109.13548                  20631919.7824
        48.5004         42.7504
  21780341.6224    2005676.44849   1543803.09748                  21780341.2554
        47.5004         42.0004
  22865477.3724   -2591053.23849  -1987790.72147                  22865478.0014
        47.0004         34.7504
  22043927.8884   -1908281.77949  -1462050.31348                  22043927.1734
        46.5004         40.7504
  21082222.0284   -1154628.83549   -883679.04348                  21082221.5134
        49.0004         43.7504
  24539596.1534   -1054189.71849   -803798.99947                  24539596.7314
        41.5004         26.2504
  21834920.0674    2954002.91649   2270068.16748                  21834919.9894
        49.2504         41.0004
  24368396.6694   -1963313.39249  -1526163.63247                  24368398.2864
        43.0004         28.0004
 02  7  1 15 16 15.0010000  0  9G 5G 6G10G15G17G23G18G30G29
  24013698.3254    3958983.59549   3038906.25247                  24013700.4114
        43.5004         29.2504
  20630622.6774    -896449.80649   -685424.08948                  20630621.7904
        49.0004         42.7504
  21787300.7394    2042245.78049   1572298.67948                  21787300.5244
        48.2504         42.0004
  22859339.3174   -2623309.50349  -2012925.44547                  22859339.5634
        46.7504         35.0004
  22039698.6384   -1930506.19049  -1479368.02548                  22039698.2354
        46.2504         41.0004
  21080540.6924   -1163463.86349   -890563.46148                  21080540.2634
        49.0004         43.5004
  24530061.1774   -1104297.24449   -842843.85347                  24530061.4464
        42.5004         26.0004
  21844237.9894    3002970.41349   2308224.63648                  21844238.2824
        48.7504         41.0004
  24362663.0444   -1993437.44549  -1549636.89547                  24362665.3724
        42.5004         27.2504
 02  7  1 15 16 30.0010000  0  9G 5G 6G10G15G17G23G18G30G29
  24025136.3024    4019086.71249   3085739.79647                  24025137.1654
        43.5004         29.2504
  20629349.3964    -903141.48949   -690638.38848                  20629348.8414
        49.5004         42.5004
  21794291.8104    2078984.12949   1600925.95348                  21794291.2904
        47.7504         42.0004
  22853219.3804   -2655467.59549  -2037983.68047                  22853220.1574
        46.2504         35.2504
  22035489.0834   -1952627.77749  -1496605.62648                  22035488.9354
        46.7504         41.0004
  21078893.1774   -1172120.74449   -897309.07348                  21078892.3924
        48.5004         43.7504
  24520538.1774   -1154340.25949   -881838.39946                  24520538.6424
        42.0004         25.0004
  21853582.0054    3052071.52249   2346485.21048                  21853581.4384
        49.5004         41.2504
  24356948.2474   -2023471.19349  -1573039.77947                  24356950.0014
        42.5004         27.5004
 02  7  1 15 16 45.0010000  0  9G 5G 6G10G15G17G23G18G30G29
  24036585.3174    4079254.66849   3132623.88047                  24036587.0604
        43.7504         29.5004
  20628100.8884    -909702.19749   -695750.63348                  20628099.9784
        49.5004         42.7504
  21801314.9584    2115892.72849   1629685.88448                  21801314.6534
        47.5004         41.7504
  22847118.9814   -2687525.88349  -2062964.12247                  22847119.4814
        46.5004         35.2504
  22031299.3644   -1974644.90249  -1513761.82048                  22031299.3454
        47.5004         41.0004
  21077280.1144   -1180597.81349   -903914.58548                  21077279.4154
        49.0004         43.5004
  24511028.2784   -1204316.97049   -920781.25746                  24511028.2124
        42.0004         24.7504
  21862951.1924    3101307.61649   2384850.96948                  21862950.9544
        49.0004         41.0004
  24351250.5604   -2053412.62849  -1596370.71347                  24351252.5284
        43.2504         27.0004
 02  7  1 15 17  0.0010000  0  9G 5G 6G10G15G17G23G18G30G29
  24048048.4584    4139491.39549   3179561.54847                  24048049.5634
        43.2504         29.2504
  20626877.9744    -916127.63149   -700757.46148                  20626877.1304
        48.2504         43.0004
  21808371.7474    2152975.45249   1658581.50348                  21808371.7124
        47.2504         42.2504
  22841038.5054   -2719480.27949  -2087863.62647                  22841039.1734
        46.7504         35.0004
  22027130.5604   -1996553.50649  -1530833.44548                  22027130.0094
        45.7504         41.0004
  21075702.2314   -1188890.86249   -910376.69148                  21075701.3334
        48.2504         43.7504
  24501531.5214   -1254222.85549   -959668.92647                  24501531.7434
        42.2504         27.0004
  21872346.8724    3150682.35949   2423324.77048                  21872347.0874
        49.0004         40.5004
  24345570.8334   -2083257.40949  -1619626.35847                  24345573.2904
        43.0004         26.7504
 02  7  1 15 17 15.0010000  0  9G 5G 6G10G15G17G23G18G30G29
  24059523.3884    4199794.02749   3226550.58747                  24059525.1774
        44.0004         28.7504
  20625680.8494    -922420.12149   -705660.69048                  20625680.1034
        49.0004         42.5004
  21815460.8964    2190229.56549   1687610.66748                  21815460.3924
        47.5004         42.2504
  22834976.9974   -2751333.09049  -2112683.96047                  22834977.4894
        46.7504         35.0004
  22022980.9744   -2018356.06549  -1547822.43448                  22022981.0874
        45.7504         41.5004
  21074158.5444   -1197002.23549   -916697.23348                  21074158.1534
        48.0004         43.5004
  24492047.5054   -1304060.21649   -998503.25746                  24492047.6264
        42.2504         25.2504
  21881768.6144    3200193.10449   2461904.55048                  21881768.9314
        49.5004         41.0004
  24339910.1064   -2113007.51349  -1642808.18447                  24339912.3684
        42.5004         26.2504
 02  7  1 15 17 30.0010000  0  9G 5G 6G10G15G17G23G18G30G29
  24071011.0364    4260161.39649   3273590.03347                  24071012.0444
        43.7504         28.7504
  20624508.4744    -928580.32649   -710460.86248                  20624507.4424
        49.5004         42.5004
  21822583.0364    2227653.94549   1716772.50848                  21822582.2084
        48.0004         42.2504
  22828934.3494   -2783085.10749  -2137425.75647                  22828935.0444
        46.5004         35.2504
  22018852.4814   -2040053.35249  -1564729.41048                  22018852.4074
        45.0004         41.2504
  21072649.1384   -1204932.73049   -922876.83648                  21072648.3534
        49.2504         43.5004
  24482576.6464   -1353829.72949  -1037284.67847                  24482577.0244
        41.2504         26.2504
  21891215.8334    3249838.53449   2500589.27348                  21891215.8414
        48.7504         41.0004
  24334266.3494   -2142663.47849  -1665916.69247                  24334268.9664
        43.0004         27.7504
 02  7  1 15 17 45.0010000  0  9G 5G 6G10G15G17G23G18G30G29
  24082509.8804    4320587.84449   3320675.53847                  24082510.9194
        44.0004         28.7504
  20623360.3884    -934613.32449   -715161.89048                  20623359.7164
        49.5004         42.7504
  21829735.9894    2265243.01349   1746062.67848                  21829735.3414
        47.2504         42.0004
  22822910.2084   -2814741.54849  -2162093.08947                  22822910.9934
        46.5004         35.5004
  22014742.5214   -2061650.68749  -1581558.48048                  22014742.2204
        45.0004         41.0004
  21071173.3494   -1212687.61549   -928919.59748                  21071172.9424
        48.0004         43.7504
  24473118.1924   -1403536.22649  -1076016.98347                  24473118.0874
        42.0004         26.7504
  21900687.6224    3299613.07649   2539374.60948                  21900687.3684
        49.7504         41.2504
  24328640.2314   -2172230.14149  -1688955.61147                  24328642.0404
        42.0004         26.5004
 02  7  1 15 18  0.0010000  0  9G 5G 6G10G15G17G23G18G30G29
  24094019.9814    4381074.08249   3367807.63347                  24094021.3604
        44.2504         28.2504
  20622236.8414    -940517.87449   -719762.83448                  20622235.5834
        49.0004         43.0004
  21836920.2084    2302997.54549   1775481.79148                  21836919.5134
        47.2504         42.2504
  22816905.4034   -2846301.41149  -2186685.15847                  22816905.7044
        46.5004         35.5004
  22010652.1924   -2083147.03649  -1598308.87048                  22010651.9814
        45.0004         41.5004
  21069731.3414   -1220265.77049   -934824.64848                  21069730.8764
        47.0004         43.5004
  24463670.6224   -1453178.44349  -1114699.23647                  24463671.7204
        40.5004         27.5004
  21910184.2714    3349517.41949   2578261.08348                  21910183.4234
        48.7504         41.0004
  24323031.3564   -2201706.10249  -1711923.83847                  24323033.3334
        42.2504         27.2504
 02  7  1 15 18 15.0010000  0  9G 5G 6G10G15G17G23G18G30G29
  24105541.3724    4441617.39549   3414984.18747                  24105542.9234
        43.5004         28.7504
  20621137.6064    -946296.26749   -724265.48448                  20621136.5674
        49.0004         42.5004
  21844135.8174    2340914.59849   1805027.52748                  21844135.4034
        47.2504         42.2504
  22810917.1144   -2877767.05849  -2211203.81947                  22810917.9464
        46.7504         35.5004
  22006580.3564   -2104544.70349  -1614982.37048                  22006579.8294
        45.0004         41.7504
  21068322.5214   -1227669.44549   -940593.73948                  21068322.1734
        48.7504         44.0004
  24454236.3334   -1502758.46949  -1153333.02447                  24454236.5284
        41.0004         26.7504
  21919704.8564    3399548.75749   2617246.51248                  21919704.7164
        49.5004         41.5004
  24317438.8174   -2231093.47649  -1734823.07647                  24317440.2554
        42.7504         27.5004
 02  7  1 15 18 30.0010000  0  9G 5G 6G10G15G17G23G18G30G29
  24117073.7474    4502223.68449   3462209.82947                  24117075.8334
        44.0004         29.2504
  20620062.9584    -951942.03849   -728664.77748                  20620061.7394
        48.2504         42.7504
  21851383.0364    2379000.22249   1834704.63148                  21851382.6384
        47.5004         42.2504
  22804948.8724   -2909132.12849  -2235644.09947                  22804949.5524
        46.5004         35.5004
  22002528.1224   -2125837.50849  -1631574.14848                  22002528.2514
        45.2504         41.7504
  21066948.2004   -1234892.40049   -946222.00048                  21066947.4464
        48.2504         44.2504
  24444814.8964   -1552269.66949  -1191913.15047                  24444815.8534
        41.2504         27.2504
  21929250.8884    3449713.05449   2656335.54548                  21929250.6694
        49.2504         41.5004
  24311864.6694   -2260385.53549  -1757648.01747                  24311866.3024
        42.7504         26.5004
 02  7  1 15 18 45.0010000  0  9G 5G 6G10G15G17G23G18G30G29
  24128618.5214    4562891.63649   3509483.51447                  24128619.9934
        44.2504         29.7504
  20619013.8724    -957456.03349   -732961.39648                  20619012.8174
        47.7504         42.7504
  21858662.6224    2417253.17049   1864512.10748                  21858661.8534
        46.5004         42.0004
  22798998.9584   -2940397.48449  -2260006.69447                  22798999.3494
        47.0004         36.0004
  21998496.2474   -2147026.54649  -1648085.07048                  21998496.1494
        45.0004         41.5004
  21065607.6854   -1241935.50949   -951710.13848                  21065606.9034
        48.7504         43.7504
  24435405.8414   -1601712.83749  -1230440.28847                  24435406.7474
        41.2504         25.7504
  21938821.8494    3500008.97349   2695527.15348                  21938821.5834
        49.2504         41.7504
  24306308.7554   -2289583.02449  -1780399.23847                  24306310.6424
        43.0004         28.5004
 02  7  1 15 19  0.0010000  0  9G 5G 6G10G15G17G23G18G30G29
  24140174.4194    4623616.36649   3556801.46747                  24140176.2084
        43.7504         30.5004
  20617988.8254    -962842.66149   -737158.76748                  20617987.8374
        49.0004         43.2504
  21865972.5214    2455668.51249   1894446.12148                  21865972.3884
        47.5004         42.2504
  22793067.3564   -2971567.94049  -2284295.32447                  22793068.3494
        47.0004         36.2504
  21994483.3254   -2168116.31249  -1664518.65548                  21994482.6144
        45.2504         41.2504
  21064301.1064   -1248803.43249   -957061.75648                  21064299.8994
        48.5004         43.7504
  24426009.6614   -1651092.24049  -1268917.69847                  24426010.3134
        41.5004         28.2504
  21948416.8884    3550431.53849   2734817.43648                  21948416.8884
        49.0004         41.0004
  24300770.0674   -2318690.01149  -1803080.01547                  24300771.9424
        42.7504         26.5004
 02  7  1 15 19 15.0010000  0  9G 5G 6G10G15G17G23G18G30G29
  24151741.9584    4684402.90849   3604167.53747                  24151743.4894
        43.7504         29.2504
  20616989.1534    -968096.48749   -741252.65548                  20616988.0604
        48.5004         42.7504
  21873314.8414    2494251.23049   1924510.55848                  21873314.0714
        47.0004         42.5004
  22787154.8024   -3002638.06849  -2308505.80247                  22787156.0404
        46.7504         36.0004
  21990489.8174   -2189101.56749  -1680870.78848                  21990489.2044
        45.0004         41.5004
  21063028.2474   -1255490.74249   -962272.64548                  21063027.8294
        48.0004         44.0004
  24416626.1774   -1700402.35749  -1307341.16547                  24416626.7634
        40.7504         27.0004
  21958037.2394    3600985.63449   2774210.20448                  21958037.1654
        49.2504         40.7504
  24295249.3724   -2347700.95049  -1825685.86547                  24295250.7904
        43.2504         28.0004
 02  7  1 15 19 30.0010000  0  9G 5G 6G10G15G17G23G18G30G29
  24163320.0364    4745245.82549   3651577.57847                  24163321.4584
        43.5004         28.5004
  20616013.4664    -973222.29449   -745246.78648                  20616012.3644
        48.0004         43.0004
  21880687.6064    2532995.92949   1954701.22648                  21880687.2084
        47.0004         42.7504
  22781260.6694   -3033612.85849  -2332641.97547                  22781261.1384
        46.5004         35.7504
  21986515.0994   -2209987.30649  -1697145.37848                  21986514.7864
        45.7504         41.2504
  21061789.3724   -1262002.43649   -967346.68048                  21061788.3684
        49.2504         43.7504
  24407254.8024   -1749647.86349  -1345714.26347                  24407255.7044
        42.0004         29.0004
  21967681.0214    3651665.97249   2813701.35448                  21967681.0834
        49.0004         41.0004
  24289745.9744   -2376620.60549  -1848220.65047                  24289747.2204
        42.7504         27.0004
 02  7  1 15 19 45.0010000  0  9G 5G 6G10G15G17G23G18G30G29
  24174908.8174    4806146.06949   3699032.25647                  24174910.6184
        43.2504         29.5004
  20615062.6614    -978218.66149   -749140.06048                  20615061.4854
        49.0004         43.0004
  21888091.3724    2571903.55549   1985018.84848                  21888090.4114
        46.5004         42.5004
  22775384.2944   -3064490.93049  -2356702.78447                  22775384.6854
        47.0004         36.0004
  21982559.9424   -2230772.34849  -1713341.51248                  21982559.5954
        45.2504         41.5004
  21060583.8024   -1268337.24149   -972282.88948                  21060582.6264
        48.7504         43.5004
  24397896.3104   -1798827.30849  -1384035.88647                  24397897.2124
        41.2504         26.0004
  21977349.5674    3702473.46349   2853291.57848                  21977349.6774
        49.5004         41.5004
  24284260.6774   -2405447.21949  -1870682.91147                  24284261.7354
        42.5004         27.0004
 02  7  1 15 20  0.0010000  0  9G 5G 6G10G15G17G23G18G30G29
  24186508.5994    4867102.41649   3746530.67547                  24186509.6694
        43.0004         29.5004
  20614136.4744    -983086.29249   -752933.01148                  20614135.5954
        47.5004         43.0004
  21895526.3494    2610972.94349   2015462.51648                  21895525.2634
        47.5004         42.0004
  22769527.1924   -3095273.16149  -2380688.92147                  22769527.5604
        47.0004         35.7504
  21978623.2474   -2251457.46149  -1729459.76148                  21978623.4664
        45.2504         41.7504
  21059411.9034   -1274495.98149   -977081.90448                  21059411.1264
        48.5004         43.7504
  24388550.2864   -1847941.19149  -1422306.41447                  24388551.1104
        41.5004         28.0004
  21987041.8334    3753406.86249   2892979.91448                  21987042.3214
        49.7504         40.7504
  24278792.4424   -2434181.40949  -1893073.12747                  24278794.2594
        43.0004         27.2504
 02  7  1 15 20 15.0010000  0  9G 5G 6G10G15G17G23G18G30G29
  24198119.3564    4928115.47849   3794073.28047                  24198120.6464
        42.7504         29.0004
  20613234.5604    -987824.16949   -756624.86248                  20613233.3884
        47.5004         42.7504
  21902991.5214    2650204.64649   2046032.66848                  21902991.1694
        48.2504         42.0004
  22763687.7084   -3125958.65049  -2404599.65847                  22763688.3214
        46.7504         36.0004
  21974706.6464   -2272041.91349  -1745499.58148                  21974706.1494
        45.5004         42.0004
  21058273.8104   -1280477.70449   -981742.98048                  21058272.9464
        48.2504         43.5004
  24379216.8414   -1896988.46849  -1460525.04047                  24379217.2044
        40.0004         27.5004
  21996758.3644    3804466.68249   2932766.76048                  21996758.3764
        49.2504         40.5004
  24273341.8254   -2462821.82349  -1915390.31447                  24273344.4784
        43.5004         26.0004
 02  7  1 15 20 30.0010000  0  9G 5G 6G10G15G17G23G18G30G29
  24209739.3254    4989181.06749   3841656.78447                  24209740.8604
        43.0004         29.5004
  20612357.1464    -992435.95549   -760218.45348                  20612356.0484
        48.0004         42.7504
  21910487.4664    2689594.54149   2076726.07848                  21910486.2124
        47.2504         42.0004
  22757866.5364   -3156551.21149  -2428437.99747                  22757867.3254
        47.2504         36.0004
  21970807.6144   -2292529.35049  -1761463.80648                  21970807.5994
        46.7504         42.0004
  21057168.3174   -1286286.15149   -986269.03048                  21057167.3924
        49.2504         44.0004
  24369895.6144   -1945972.54349  -1498694.41447                  24369896.4074
        41.0004         27.5004
  22006498.1064    3855648.79649   2972648.89848                  22006498.0244
        49.5004         41.0004
  24267908.8414   -2491371.96949  -1937637.12647                  24267910.8254
        41.7504         27.0004
 02  7  1 15 20 45.0010000  0  9G 5G 6G10G15G17G23G18G30G29
  24221369.6534    5050300.99849   3889282.66947                  24221371.8214
        43.0004         29.2504
  20611504.2004    -996919.23749   -763711.93248                  20611503.2984
        47.5004         43.0004
  21918013.7554    2729144.54449   2107544.25348                  21918012.5324
        48.0004         42.0004
  22752062.7474   -3187048.51549  -2452202.09747                  22752063.3254
        46.7504         36.0004
  21966927.7864   -2312917.62449  -1777350.75548                  21966927.8174
        46.7504         42.0004
  21056096.5054   -1291919.08549   -990658.32748                  21056095.6734
        47.5004         43.7504
  24360586.8804   -1994890.89949  -1536812.59847                  24360587.4424
        40.7504         27.0004
  22016261.1224    3906954.97749   3012627.71748                  22016261.5214
        49.5004         41.0004
  24262493.7784   -2519829.26249  -1959811.59947                  24262495.4114
        41.7504         27.5004
 02  7  1 15 21  0.0010000  0  9G 5G 6G10G15G17G23G18G30G29
  24233011.8024    5111477.89749   3936952.93947                  24233013.0284
        42.0004         28.0004
  20610675.9744   -1001270.98449   -767102.89348                  20610675.1884
        48.0004         43.0004
  21925570.4814    2768857.22249   2138489.17148                  21925569.5054
        47.2504         42.0004
  22746278.3964   -3217447.63149  -2475889.69547                  22746278.6304
        47.5004         37.0004
  21963067.5054   -2333203.89249  -1793158.23348                  21963067.6694
        46.7504         41.7504
  21055058.3104   -1297373.56749   -994908.56748                  21055057.3724
        48.5004         43.5004
  24351290.5364   -2043740.48849  -1574877.18947                  24351291.8604
        40.5004         26.7504
  22026048.7004    3958387.82949   3052705.23448                  22026048.6534
        49.5004         41.2504
  24257096.8724   -2548190.35249  -1981911.12747                  24257098.7784
        43.0004         27.2504
 02  7  1 15 21 15.0010000  0  9G 5G 6G10G15G17G23G18G30G29
  24244664.3024    5172709.53849   3984665.86947                  24244665.4274
        43.0004         29.0004
  20609872.8254   -1005492.82849   -770392.65648                  20609871.2744
        49.5004         43.2504
  21933157.9504    2808730.46749   2169559.21948                  21933157.3494
        48.0004         41.7504
  22740511.2244   -3247750.33949  -2499502.17047                  22740512.0674
        47.5004         36.2504
  21959226.1534   -2353390.07749  -1808887.71448                  21959226.5094
        47.2504         42.0004
  21054054.0914   -1302651.37549   -999021.15248                  21054053.0284
        49.7504         44.0004
  24342008.2714   -2092522.77349  -1612889.30847                  24342008.5054
        41.7504         28.2504
  22035859.8644    4009945.16749   3092879.75848                  22035859.8454
        50.0004         41.2504
  24251718.2634   -2576456.82149  -2003936.88547                  24251719.6224
        42.2504         27.5004
 02  7  1 15 21 30.0010000  0  9G 5G 6G10G15G17G23G18G30G29
  24256325.4814    5233992.02749   4032418.36447                  24256327.1774
        42.7504         29.7504
  20609093.1224   -1009588.23149   -773583.87048                  20609092.5914
        48.0004         43.2504
  21940775.6224    2848760.34749   2200751.30748                  21940775.1304
        47.0004         42.7504
  22734762.7084   -3277960.26449  -2523042.35147                  22734763.4584
        47.2504         36.2504
  21955403.2004   -2373479.68849  -1824541.94548                  21955403.0564
        46.7504         42.0004
  21053082.9504   -1307756.07849  -1002998.83248                  21053082.1464
        50.0004         43.7504
  24332736.9974   -2141241.16749  -1650851.66347                  24332737.7394
        39.7504         28.5004
  22045693.6694    4061622.91249   3133148.10448                  22045693.8844
        49.2504         41.0004
  24246356.5364   -2604631.93849  -2025891.48347                  24246358.6344
        42.5004         27.2504
 02  7  1 15 21 45.0010000  0  9G 5G 6G10G15G17G23G18G30G29
  24267996.8724    5295324.09949   4080209.57647                  24267998.2474
        43.0004         28.0004
  20608338.0674   -1013557.94349   -776677.15048                  20608337.0054
        49.0004         43.5004
  21948422.3724    2888945.39949   2232064.33848                  21948422.1384
        47.2504         42.5004
  22729030.9274   -3308078.30849  -2546510.92047                  22729031.9974
        47.0004         36.5004
  21951598.6854   -2393473.68349  -1840121.66348                  21951598.2904
        47.5004         42.0004
  21052143.6384   -1312688.65949  -1006842.38448                  21052143.3254
        50.2504         43.5004
  24323478.4814   -2189896.26849  -1688764.68747                  24323478.9354
        40.7504         28.0004
  22055550.1534    4113419.95049   3173509.40748                  22055550.5714
        49.5004         41.0004
  24241011.9354   -2632716.21049  -2047775.30247                  24241013.7354
        41.5004         26.7504
 02  7  1 15 22  0.0010000  0  9G 5G 6G10G15G17G23G18G30G29
  24279678.2864    5356708.33549   4128041.40247                  24279678.8994
        42.5004         28.2504
  20607607.1384   -1017398.88649   -779670.08548                  20607605.9544
        49.5004         43.0004
  21956099.4274    2929288.29449   2263500.35348                  21956099.3374
        47.5004         42.5004
  22723318.1384   -3338101.47249  -2569905.57547                  22723318.8964
        47.0004         36.5004
  21947812.6464   -2413369.26149  -1855624.70248                  21947812.5564
        47.2504         41.7504
  21051238.6224   -1317446.06549  -1010549.45948                  21051237.6924
        50.2504         43.7504
  24314231.5284   -2238484.86449  -1726625.92647                  24314232.5244
        39.2504         27.7504
  22065430.3964    4165338.63149   3213965.49248                  22065430.4234
        49.2504         40.7504
  24235686.0054   -2660706.49149  -2069585.86147                  24235687.8534
        43.0004         26.2504
 02  7  1 15 22 15.0010000  0  9G 5G 6G10G15G17G23G18G30G29
  24291368.0284    5418142.89849   4175912.45847                  24291369.7594
        42.2504         27.2504
  20606900.0604   -1021112.43249   -782563.76448                  20606898.8804
        48.2504         43.0004
  21963806.0284    2969787.21949   2295057.93248                  21963805.5524
        46.5004         41.5004
  22717622.8174   -3368031.46749  -2593227.61747                  22717623.3604
        47.0004         36.7504
  21944045.0914   -2433167.91049  -1871052.20748                  21944044.6884
        45.7504         42.0004
  21050366.6854   -1322029.91349  -1014121.28448                  21050365.1884
        49.2504         43.7504
  24304998.6924   -2287008.20549  -1764436.29447                  24304998.7474
        39.2504         28.5004
  22075332.9354    4217377.07149   3254514.89448                  22075333.1574
        49.0004         41.0004
  24230376.6064   -2688603.85449  -2091324.05646                  24230378.6574
        42.0004         25.2504
 02  7  1 15 22 30.0010000  0  9G 5G 6G10G15G17G23G18G30G29
  24303068.5994    5479626.84949   4223821.99847                  24303069.9034
        43.2504         29.0004
  20606217.8414   -1024699.02849   -785358.50848                  20606216.9274
        48.5004         43.0004
  21971542.0364    3010441.23649   2326736.37348                  21971541.9624
        46.5004         41.5004
  22711945.2784   -3397868.79449  -2616477.46247                  22711945.3964
        47.7504         36.0004
  21940295.7004   -2452870.24649  -1886404.66648                  21940295.3764
        46.2504         41.7504
  21049527.1144   -1326440.68849  -1017558.24948                  21049526.0914
        50.0004         44.0004
  24295777.0914   -2335466.59549  -1802196.01447                  24295777.3764
        40.0004         28.0004
  22085257.9354    4269534.56349   3295157.06748                  22085258.0444
        49.0004         41.5004
  24225086.0674   -2716408.56649  -2112990.01947                  24225087.9894
        42.5004         27.5004
 02  7  1 15 22 45.0010000  0  9G 5G 6G10G15G17G23G18G30G29
  24314778.1384    5541160.08949   4271769.89847                  24314779.5564
        43.2504         29.0004
  20605559.3334   -1028158.22449   -788053.98648                  20605558.4234
        49.0004         43.5004
  21979308.0754    3051250.36649   2358535.67848                  21979307.4194
        46.2504         42.0004
  22706284.8884   -3427613.08249  -2639654.80147                  22706284.8294
        47.5004         36.5004
  21936565.2164   -2472475.96349  -1901681.83148                  21936564.8254
        45.5004         41.5004
  21048720.8414   -1330678.14349  -1020860.15948                  21048720.2004
        49.7504         44.0004
  24286568.6144   -2383859.58349  -1839904.81347                  24286568.7784
        38.7504         28.5004
  22095205.9354    4321810.72949   3335891.71648                  22095205.8214
        49.5004         40.7504
  24219812.8644   -2744119.98449  -2134583.31347                  24219813.8454
        42.2504         28.0004
 02  7  1 15 23  0.0010000  0  9G 5G 6G10G15G17G23G18G30G29
  24326497.0284    5602745.31749   4319758.33947                  24326498.5054
        42.7504         28.2504
  20604926.0134   -1031486.85149   -790647.71948                  20604925.1384
        49.0004         43.5004
  21987103.8174    3092217.22049   2390457.89648                  21987103.3644
        46.5004         42.0004
  22700642.7394   -3457261.25749  -2662757.24047                  22700643.0754
        47.0004         36.5004
  21932852.9354   -2491982.14549  -1916881.43248                  21932853.0364
        45.5004         42.0004
  21047947.8884   -1334739.17149  -1024024.58548                  21047947.2864
        49.5004         44.0004
  24277372.8104   -2432183.80649  -1877560.00547                  24277372.8604
        39.0004         29.0004
  22105176.8884    4374208.40049   3376721.05048                  22105177.1494
        48.7504         41.0004
  24214557.6854   -2771734.76949  -2156101.26547                  24214559.2824
        41.5004         26.5004
 02  7  1 15 23 15.0010000  0  9G 5G 6G10G15G17G23G18G30G29
  24338226.3494    5664384.80349   4367789.05847                  24338228.0994
        43.5004         28.5004
  20604318.1224   -1034682.11349   -793137.53148                  20604317.2554
        48.5004         43.2504
  21994929.8964    3133344.04049   2422504.75348                  21994929.4354
        46.5004         42.5004
  22695019.8644   -3486810.63249  -2685782.69147                  22695019.8644
        46.7504         36.5004
  21929160.7634   -2511386.05449  -1932001.35048                  21929160.4274
        45.5004         42.2504
  21047209.4894   -1338621.17849  -1027049.51148                  21047209.0444
        47.5004         43.5004
  24268190.2164   -2480436.39249  -1915159.37347                  24268190.6184
        39.0004         29.0004
  22115171.1224    4426729.67849   3417646.69148                  22115171.5364
        49.2504         40.5004
  24209321.7474   -2799249.86349  -2177541.55747                  24209323.0604
        43.0004         27.2504
 02  7  1 15 23 30.0010000  0  9G 5G 6G10G15G17G23G18G30G29
  24349965.5134    5726071.00749   4415856.21547                  24349967.0794
        43.0004         28.7504
  20603734.0134   -1037751.02649   -795528.90148                  20603733.2744
        49.0004         43.2504
  22002784.9504    3174623.32549   2454670.41448                  22002784.7984
        46.7504         42.0004
  22689414.2004   -3516268.43349  -2708736.80847                  22689413.9934
        46.7504         36.7504
  21925486.3494   -2530695.05649  -1947047.31548                  21925486.1734
        45.7504         42.0004
  21046503.1924   -1342331.30249  -1029940.52748                  21046502.1734
        49.2504         44.2504
  24259019.3564   -2528624.20749  -1952708.31047                  24259020.7244
        39.2504         29.2504
  22125187.9664    4479367.15649   3458662.86748                  22125187.8564
        49.2504         40.5004
  24204103.1924   -2826672.16649  -2198909.56147                  24204104.8104
        43.2504         27.7504
 02  7  1 15 23 45.0010000  0  9G 5G 6G10G15G17G23G18G30G29
  24361712.9974    5787805.32349   4463960.81147                  24361714.6304
        43.0004         28.5004
  20603174.7314   -1040691.80049   -797820.40348                  20603173.8024
        47.5004         43.0004
  22010669.9504    3216056.42849   2486955.93348                  22010669.0324
        47.0004         42.5004
  22683826.2944   -3545632.97849  -2731618.22947                  22683826.2864
        47.0004         36.0004
  21921830.1924   -2549907.35949  -1962017.93448                  21921829.8294
        46.2504         42.2504
  21045830.1614   -1345867.85749  -1032696.27048                  21045829.6034
        47.5004         43.7504
  24249863.2084   -2576745.33749  -1990205.22247                  24249863.5754
        38.5004         29.0004
  22135226.8334    4532122.09549   3499770.59848                  22135226.8374
        48.7504         40.7504
  24198903.4894   -2853999.76949  -2220203.77947                  24198904.4934
        43.7504         28.0004
 02  7  1 15 24  0.0010000  0  9G 5G 6G10G15G17G23G18G30G29
  24373469.0914    5849581.99949   4512098.42547                  24373470.7904
        43.5004         28.2504
  20602638.1144   -1043509.61249   -800016.10048                  20602636.9424
        47.5004         43.0004
  22018581.9894    3257637.60649   2519356.83948                  22018581.7044
        46.2504         42.2504
  22678254.9504   -3574909.60749  -2754431.17347                  22678255.3804
        46.7504         36.7504
  21918191.8724   -2569028.48649  -1976917.50448                  21918191.3214
        46.0004         42.0004
  21045189.4354   -1349236.20649  -1035320.95448                  21045188.6494
        47.5004         43.7504
  24240717.3414   -2624804.87549  -2027654.17947                  24240718.3494
        38.2504         28.2504
  22145287.0134    4584988.76349   3540965.37748                  22145287.0404
        48.7504         40.2504
  24193719.7634   -2881237.45049  -2241427.90947                  24193721.6614
        42.7504         27.5004
 02  7  1 15 24 15.0010000  0  9G 5G 6G10G15G17G23G18G30G29
  24385233.5524    5911405.86049   4560272.81647                  24385235.3174
        42.7504         28.0004
  20602126.4664   -1046199.14349   -802111.84448                  20602125.6304
        47.5004         43.0004
  22026524.3334    3299371.68749   2551876.88248                  22026523.7674
        46.5004         42.0004
  22672701.1064   -3604093.10649  -2777171.53047                  22672701.9934
        46.2504         36.0004
  21914571.2164   -2588053.31949  -1991742.02648                  21914570.8414
        47.5004         42.2504
  21044581.0834   -1352431.17349  -1037810.54548                  21044580.4544
        47.7504         43.7504
  24231584.8104   -2672797.36249  -2065050.87847                  24231585.4974
        38.5004         29.0004
  22155369.8174    4637971.88949   3582250.89648                  22155369.5634
        49.2504         39.7504
  24188554.7244   -2908379.91949  -2262577.85047                  24188556.7204
        43.0004         28.2504
 02  7  1 15 24 30.0010000  0  9G 5G 6G10G15G17G23G18G30G29
  24397006.6534    5973273.53149   4608481.33547                  24397008.2164
        42.5004         27.7504
  20601638.2784   -1048763.34149   -804109.92348                  20601637.8254
        47.5004         43.2504
  22034494.1854    3341255.35149   2584513.48648                  22034494.3414
        46.5004         41.7504
  22667164.8724   -3633186.54849  -2799841.71147                  22667165.2984
        46.7504         36.5004
  21910968.5364   -2606984.79249  -2006493.80448                  21910968.1654
        45.7504         42.2504
  21044005.5134   -1355455.84549  -1040167.42548                  21044004.9384
        47.7504         44.0004
  24222463.6304   -2720725.65049  -2102397.54547                  24222464.4114
        37.7504         28.0004
  22165473.5524    4691068.13549   3623624.56648                  22165473.2164
        49.0004         40.0004
  24183407.6614   -2935429.77849  -2283655.63147                  24183409.5914
        43.5004         27.0004
 02  7  1 15 24 45.0010000  0  9G 5G 6G10G15G17G23G18G30G29
  24408787.9744    6035186.75949   4656725.39747                  24408789.7594
        42.2504         28.5004
  20601174.7314   -1051200.05149   -806008.64548                  20601174.1734
        48.0004         42.7504
  22042493.2314    3383290.14549   2617267.86248                  22042493.0754
        47.0004         41.7504
  22661646.2244   -3662187.89549  -2822440.13347                  22661646.4034
        47.0004         36.2504
  21907384.4034   -2625820.93849  -2021171.30748                  21907384.2904
        47.5004         42.5004
  21043462.8024   -1358308.13849  -1042389.98148                  21043461.9114
        48.5004         43.7504
  24213356.7554   -2768587.50549  -2139692.46647                  24213357.4854
        38.7504         29.7504
  22175599.2084    4744279.02849   3665087.57748                  22175599.1964
        49.5004         40.2504
  24178278.3724   -2962384.75049  -2304659.46447                  24178280.2354
        43.2504         27.5004
 02  7  1 15 25  0.0010000  0  9G 5G 6G10G15G17G23G18G30G29
  24420578.7004    6097144.80549   4705004.31747                  24420580.2434
        41.5004         26.7504
  20600735.3174   -1053509.38349   -807808.12548                  20600734.5094
        49.2504         43.0004
  22050521.0054    3425475.48549   2650139.53748                  22050521.2004
        46.5004         42.0004
  22656144.9894   -3691097.51349  -2844967.07947                  22656145.1774
        46.7504         36.5004
  21903818.0754   -2644562.19749  -2035774.86448                  21903817.9814
        46.2504         42.7504
  21042952.8964   -1360988.38949  -1044478.48648                  21042951.6614
        48.2504         43.7504
  24204260.8804   -2816382.88749  -2176935.56447                  24204261.5324
        38.7504         29.0004
  22185746.4114    4797603.84949   3706639.35848                  22185746.3534
        50.0004         40.0004
  24173166.5054   -2989244.74449  -2325589.29947                  24173168.7354
        43.7504         27.7504
 02  7  1 15 25 15.0010000  0  9G 5G 6G10G15G17G23G18G30G29
  24432377.0364    6159146.84849   4753317.51647                  24432379.3804
        42.0004         27.7504
  20600320.0214   -1055691.66749   -809508.59448                  20600319.0954
        48.0004         43.2504
  22058576.8964    3467810.61849   2683127.94248                  22058576.6534
        46.2504         42.2504
  22650661.0134   -3719915.85549  -2867422.90247                  22650661.2904
        47.2504         36.0004
  21900269.6924   -2663208.99649  -2050304.81448                  21900269.8804
        47.2504         42.2504
  21042475.3804   -1363497.01449  -1046433.24848                  21042474.2864
        49.5004         43.5004
  24195179.4274   -2864112.03249  -2214127.05547                  24195179.6464
        38.7504         28.5004
  22195915.2634    4851041.85449   3748279.33748                  22195915.6654
        50.0004         40.5004
  24168073.4974   -3016009.89149  -2346445.21847                  24168074.7284
        43.7504         28.0004
 02  7  1 15 25 30.0010000  0  9G 5G 6G10G15G17G23G18G30G29
  24444184.2314    6221193.14449   4801665.26847                  24444185.9504
        41.7504         27.7504
  20599929.2554   -1057746.28549   -811109.61048                  20599928.0954
        49.2504         43.7504
  22066661.7084    3510295.66049   2716233.15548                  22066661.6884
        46.5004         42.0004
  22645194.3724   -3748642.32349  -2889807.14147                  22645194.9384
        47.0004         36.5004
  21896739.2314   -2681760.91049  -2064760.84448                  21896739.2984
        48.0004         42.0004
  21042030.9354   -1365833.46449  -1048253.86848                  21042029.8964
        50.0004         44.0004
  24186108.9034   -2911774.11949  -2251266.27747                  24186109.4704
        38.7504         28.5004
  22206106.0214    4904593.11849   3790007.55748                  22206106.2594
        49.2504         40.5004
  24162998.7554   -3042679.31549  -2367226.55847                  24162999.8804
        44.2504         28.5004
 02  7  1 15 25 45.0010000  0  9G 5G 6G10G15G17G23G18G30G29
  24456000.0524    6283284.10149   4850047.76947                  24456001.2124
        42.0004         27.2504
  20599562.6144   -1059672.19449   -812610.31948                  20599561.8134
        49.5004         43.0004
  22074775.1384    3552931.05749   2749455.52948                  22074774.6884
        47.2504         41.2504
  22639745.8564   -3777276.02449  -2912119.09047                  22639746.4034
        47.2504         36.7504
  21893227.2634   -2700217.06549  -2079142.24648                  21893226.9274
        49.0004         41.7504
  21041619.3334   -1367996.93349  -1049939.67748                  21041618.6614
        49.7504         43.7504
  24177052.4354   -2959368.03849  -2288352.41547                  24177052.6964
        39.0004         29.0004
  22216318.3414    4958258.11049   3831824.41448                  22216318.1144
        49.5004         40.5004
  24157941.6224   -3069251.87149  -2387932.39247                  24157943.6184
        43.5004         28.7504
 02  7  1 15 26  0.0010000  0  9G 5G 6G10G15G17G23G18G30G29
  24467822.5444    6345413.34149   4898460.10147                  24467824.4544
        42.2504         27.0004
  20599219.6144   -1061475.35749   -814015.38148                  20599218.5054
        49.0004         43.0004
  22082915.5134    3595710.38149   2782790.04648                  22082915.2434
        46.5004         42.0004
  22634313.2944   -3805823.10549  -2934363.53147                  22634313.9384
        47.5004         37.2504
  21889731.9504   -2718583.63049  -2093453.84248                  21889731.5834
        47.2504         42.0004
  21041239.0214   -1369993.63549  -1051495.54348                  21041238.4934
        49.0004         43.7504
  24168006.5214   -3006899.64849  -2325389.97747                  24168007.9234
        38.7504         28.5004
  22226550.6534    5012030.41449   3873724.88248                  22226551.0794
        49.5004         40.0004
  24152902.3804   -3095733.27849  -2408567.25747                  24152904.5834
        43.7504         28.0004
 02  7  1 15 26 15.0010000  0  9G 5G 6G10G15G17G23G18G30G29
  24479653.1304    6407585.39049   4946905.82547                  24479655.4894
        40.7504         27.0004
  20598900.9114   -1063150.70549   -815320.83848                  20598899.8494
        49.7504         43.5004
  22091084.4664    3638638.17149   2816240.25948                  22091084.0994
        47.5004         41.7504
  22628898.4894   -3834278.64149  -2956536.64747                  22628899.1264
        47.2504         36.7504
  21886254.9274   -2736855.72349  -2107691.81748                  21886254.6144
        48.7504         41.7504
  21040892.0364   -1371818.64749  -1052917.62848                  21040891.3134
        50.0004         43.7504
  24158975.5914   -3054363.76149  -2362374.95847                  24158975.5524
        39.7504         29.0004
  22236804.5834    5065914.53849   3915712.48748                  22236804.7084
        49.2504         40.2504
  24147881.4114   -3122118.39949  -2429127.04547                  24147883.1384
        44.0004         28.5004
 02  7  1 15 26 30.0010000  0  9G 5G 6G10G15G17G23G18G30G29
  24491492.6464    6469796.56649   4995381.99647                  24491493.6694
        41.7504         26.2504
  20598605.4424   -1064701.38749   -816529.16648                  20598604.2634
        49.7504         43.5004
  22099281.1144    3681710.82549   2849803.34248                  22099280.7514
        46.5004         42.0004
  22623499.9504   -3862645.93649  -2978640.99547                  22623500.8604
        47.2504         37.0004
  21882795.1854   -2755036.68649  -2121858.79048                  21882794.7714
        49.5004         42.2504
  21040576.6694   -1373475.26149  -1054208.49248                  21040576.0834
        49.7504         44.0004
  24149955.2554   -3101763.45849  -2399309.75747                  24149955.4424
        39.2504         29.0004
  22247078.8024    5119906.74949   3957784.30148                  22247078.9234
        49.7504         40.2504
  24142878.5754   -3148410.01449  -2449613.98347                  24142879.7474
        44.7504         29.2504
 02  7  1 15 26 45.0010000  0  9G 5G 6G10G15G17G23G18G30G29
  24503338.7634    6532048.71749   5043890.14347                  24503340.0634
        41.0004         27.2504
  20598334.6924   -1066125.10849   -817638.55848                  20598333.7744
        50.0004         43.2504
  22107505.3724    3724930.08749   2883480.67648                  22107505.0754
        47.7504         42.0004
  22618119.5214   -3890922.71349  -3000674.82247                  22618119.8764
        47.5004         37.0004
  21879353.3644   -2773124.32449  -2135953.05248                  21879352.9664
        48.7504         42.2504
  21040294.0214   -1374961.24149  -1055366.40248                  21040292.6464
        50.5004         44.0004
  24140948.1064   -3149096.36049  -2436192.47947                  24140948.4854
        40.0004         28.7504
  22257373.9744    5174008.84449   3999941.74348                  22257374.6614
        49.0004         40.7504
  24137894.0134   -3174605.82849  -2470026.26347                  24137894.9934
        44.5004         28.5004
 02  7  1 15 27  0.0010000  0  9G 5G 6G10G15G17G23G18G30G29
  24515191.9504    6594341.66449   5092430.04647                  24515193.6854
        41.0004         26.5004
  20598087.9584   -1067421.49649   -818648.73548                  20598087.2714
        49.5004         43.2504
  22115757.5834    3768295.86049   2917272.16948                  22115757.3334
        46.2504         42.0004
  22612755.6064   -3919108.85149  -3022638.02547                  22612756.0834
        48.0004         37.0004
  21875929.1774   -2791118.53449  -2149974.50148                  21875928.5914
        48.0004         42.2504
  21040043.2244   -1376276.49649  -1056391.27248                  21040042.6884
        50.2504         44.0004
  24131953.2554   -3196361.84649  -2473022.69247                  24131954.0994
        41.2504         30.0004
  22267690.2474    5228220.67849   4042184.69848                  22267690.7244
        49.7504         40.5004
  24132927.1614   -3200705.22449  -2490363.42547                  24132928.3494
        44.7504         28.7504
 02  7  1 15 27 15.0010000  0  9G 5G 6G10G15G17G23G18G30G29
  24527054.1694    6656676.42849   5141002.52047                  24527055.6964
        41.5004         26.5004
  20597865.7864   -1068589.08449   -819558.54348                  20597865.0954
        49.2504         43.5004
  22124038.0914    3811809.03949   2951178.53448                  22124037.6964
        47.0004         42.2504
  22607409.5284   -3947203.00049  -3044529.53447                  22607410.0324
        47.7504         37.0004
  21872522.8334   -2809018.03549  -2163922.15148                  21872522.6884
        48.5004         42.5004
  21039825.9354   -1377419.70749  -1057282.07948                  21039825.0404
        50.0004         44.5004
  24122972.5834   -3243558.36049  -2509799.14447                  24122972.8534
        40.7504         29.7504
  22278027.7244    5282543.22849   4084513.94848                  22278028.0054
        49.7504         40.2504
  24127979.4584   -3226706.46349  -2510624.11347                  24127979.9664
        44.0004         28.7504
 02  7  1 15 27 30.0010000  0  9G 5G 6G10G15G17G23G18G30G29
  24538923.0674    6719048.13449   5189603.80147                  24538925.1924
        41.7504         26.2504
  20597667.5604   -1069632.38249   -820371.50148                  20597666.2394
        50.0004         43.2504
  22132345.3964    3855464.69449   2985195.90448                  22132345.1304
        46.7504         41.5004
  22602080.0054   -3975209.80249  -3066353.00247                  22602080.8134
        48.0004         37.7504
  21869134.0604   -2826827.46249  -2177799.61248                  21869133.4934
        49.0004         42.0004
  21039640.5444   -1378395.47149  -1058042.41848                  21039639.1964
        49.5004         44.5004
  24114003.4424   -3290690.35749  -2546525.32247                  24114003.6464
        42.0004         29.0004
  22288385.2084    5336971.36549   4126925.44148                  22288385.3684
        49.5004         40.2504
  24123049.3884   -3252613.86749  -2530811.67647                  24123050.6534
        44.7504         28.7504
 02  7  1 15 27 45.0010000  0  9G 5G 6G10G15G17G23G18G30G29
  24550799.2004    6781458.94249   5238235.52546                  24550801.9114
        40.7504         25.5004
  20597492.7784   -1070548.64849   -821085.47148                  20597491.7904
        50.2504         43.2504
  22140680.0364    3899265.08549   3019326.06248                  22140680.3494
        48.0004         41.7504
  22596767.4974   -4003126.70149  -3088106.38947                  22596768.3024
        47.5004         37.5004
  21865762.4744   -2844544.27449  -2191604.90248                  21865762.2164
        49.2504         42.2504
  21039486.7084   -1379201.19849  -1058670.24548                  21039486.4074
        50.0004         44.2504
  24105046.8884   -3337754.90749  -2583198.95347                  24105047.7314
        43.0004         29.7504
  22298763.1144    5391507.37249   4169421.00948                  22298763.4354
        49.0004         40.5004
  24118137.0054   -3278424.61549  -2550923.90847                  24118138.8214
        44.0004         29.5004
 02  7  1 15 28  0.0010000  0  8G 6G10G15G17G23G18G30G29
  20597342.1384   -1071340.86349   -821702.78348                  20597341.0484
        49.2504         43.0004
  22149042.0674    3943206.82149   3053566.36348                  22149041.9424
        47.5004         41.7504
  22591471.4424   -4030956.74249  -3109792.11547                  22591472.2714
        47.5004         37.2504
  21862408.0674   -2862171.49749  -2205340.39248                  21862407.8064
        48.5004         42.0004
  21039365.3964   -1379840.03149  -1059168.04548                  21039364.5914
        50.0004         43.7504
  24096103.5284   -3384754.91649  -2619822.30647                  24096103.5754
        41.0004         29.2504
  22309160.3414    5446147.67349   4211997.83348                  22309160.8064
        49.7504         40.0004
  24113243.4974   -3304141.41349  -2570962.95047                  24113244.1814
        43.5004         29.5004
 02  7  1 15 28 15.0010000  0  8G 6G10G15G17G23G18G30G29
  20597215.5364   -1072006.47449   -822221.44248                  20597214.2354
        50.2504         43.2504
  22157431.2944    3987291.73149   3087918.23448                  22157431.2714
        46.2504         41.5004
  22586192.7634   -4058697.44849  -3131408.20947                  22586193.0914
        47.7504         36.7504
  21859071.3884   -2879706.88249  -2219004.30948                  21859070.9974
        48.2504         41.7504
  21039275.9274   -1380309.49949  -1059533.85948                  21039275.4034
        49.5004         43.7504
  24087172.4744   -3431687.68749  -2656393.25647                  24087172.4464
        42.5004         29.0004
  22319579.0284    5500894.38549   4254657.58948                  22319578.7944
        49.5004         40.2504
  24108367.9274   -3329761.49649  -2590926.59747                  24108370.1384
        43.5004         29.0004
 02  7  1 15 28 30.0010000  0  8G 6G10G15G17G23G18G30G29
  20597112.3414   -1072548.22849   -822643.58948                  20597111.3454
        49.5004         43.0004
  22165846.9034    4031516.75849   3122379.27048                  22165846.8924
        47.0004         41.2504
  22580930.0524   -4086351.68749  -3152956.94747                  22580930.4034
        46.5004         36.7504
  21855751.2244   -2897153.34649  -2232598.94748                  21855751.6264
        48.5004         42.2504
  21039218.5914   -1380612.51549  -1059769.97148                  21039217.8764
        49.2504         43.5004
  24078253.7244   -3478555.84549  -2692913.84847                  24078254.0524
        43.0004         30.7504
  22330016.1064    5555744.14549   4297397.64048                  22330016.5404
        49.0004         39.5004
  24103510.5444   -3355287.47349  -2610816.95447                  24103512.2044
        44.0004         29.0004
 02  7  1 15 28 45.0010000  0  8G 6G10G15G17G23G18G30G29
  20597033.3104   -1072964.19749   -822967.71248                  20597032.3414
        50.0004         42.7504
  22174289.8254    4075883.28949   3156950.58648                  22174289.5094
        47.0004         41.7504
  22575684.4274   -4113917.72749  -3174436.95547                  22575684.9114
        48.0004         36.7504
  21852448.6064   -2914509.11249  -2246122.90948                  21852448.1884
        49.0004         42.2504
  21039192.6144   -1380747.37349  -1059875.04948                  21039191.7124
        49.5004         43.7504
  24069347.6304   -3525357.42149  -2729382.53847                  24069347.8214
        42.7504         30.0004
  22340473.5674    5610698.37549   4340219.08548                  22340474.0994
        49.5004         39.5004
  24098671.2244   -3380717.11449  -2630632.19847                  24098673.7284
        44.5004         29.2504
 02  7  1 15 29  0.0010000  0  8G 6G10G15G17G23G18G30G29
  20596977.9424   -1073253.22349   -823192.93548                  20596977.1734
        50.0004         43.0004
  22182759.3254    4120391.87849   3191632.58148                  22182759.3214
        47.0004         41.5004
  22570456.1064   -4141394.53149  -3195847.42347                  22570456.1144
        47.5004         37.7504
  21849163.4974   -2931773.21349  -2259575.45048                  21849162.9544
        49.2504         42.5004
  21039199.2164   -1380713.08249  -1059848.32548                  21039198.3684
        49.0004         43.7504
  24060454.6694   -3572091.00849  -2765798.29947                  24060454.9504
        43.2504         29.5004
  22350950.9744    5665757.78649   4383122.49148                  22350951.2434
        49.0004         39.5004
  24093850.4974   -3406049.25049  -2650371.49647                  24093852.7354
        44.0004         29.2504
 02  7  1 15 29 15.0010000  0  8G 6G10G15G17G23G18G30G29
  20596946.7864   -1073417.76049   -823321.14648                  20596945.6304
        49.5004         42.7504
  22191255.2004    4165039.68349   3226423.07448                  22191255.3214
        46.7504         41.7504
  22565243.5994   -4168784.74749  -3217190.42247                  22565244.2354
        47.5004         37.5004
  21845895.0364   -2948948.33849  -2272958.65348                  21845894.6814
        49.5004         42.2504
  21039237.1614   -1380512.23549  -1059691.81048                  21039236.5674
        48.5004         43.7504
  24051573.7004   -3618758.99149  -2802162.93047                  24051574.0634
        43.5004         29.7504
  22361447.8884    5720919.41649   4426105.55248                  22361448.0794
        48.7504         39.7504
  24089048.9664   -3431286.01349  -2670036.46647                  24089050.0174
        44.0004         28.5004
 02  7  1 15 29 30.0010000  0  8G 6G10G15G17G23G18G30G29
  20596939.7714   -1073455.17749   -823350.30348                  20596938.9074
        48.0004         42.7504
  22199778.6224    4209828.95349   3261323.79148                  22199778.5994
        47.5004         41.5004
  22560048.6614   -4196085.69649  -3238463.85647                  22560048.9664
        48.2504         37.5004
  21842644.2714   -2966031.88149  -2286270.48748                  21842643.8454
        48.7504         42.7504
  21039307.8644   -1380142.33749  -1059403.57948                  21039306.9974
        47.5004         43.7504
  24042705.7314   -3665358.51149  -2838474.19847                  24042706.0404
        43.0004         30.0004
  22371964.8964    5776185.26149   4469169.81248                  22371964.4544
        49.0004         40.0004
  24084264.9034   -3456424.53449  -2689624.89847                  24084266.3534
        43.7504         30.0004
 02  7  1 15 29 45.0010000  0  8G 6G10G15G17G23G18G30G29
  20596956.6064   -1073366.90449   -823281.51648                  20596955.4814
        47.5004         42.7504
  22208328.2084    4254757.58849   3296333.09448                  22208327.9664
        46.5004         41.5004
  22554870.2784   -4223299.10149  -3259669.08447                  22554870.2314
        48.0004         37.5004
  21839410.3564   -2983025.47449  -2299512.23748                  21839410.7084
        49.0004         42.2504
  21039410.0284   -1379605.06149  -1058984.92448                  21039409.2434
        47.5004         44.0004
  24033850.9114   -3711891.00349  -2874733.24347                  24033851.0754
        43.7504         29.5004
  22382501.0604    5831553.40149   4512313.79048                  22382501.6464
        49.0004         39.5004
  24079499.8174   -3481466.08049  -2709137.74947                  24079501.5564
        44.0004         29.0004
 02  7  1 15 30  0.0010000  0  8G 6G10G15G17G23G18G30G29
  20596997.3804   -1073151.48149   -823113.65548                  20596997.0054
        47.7504         42.7504
  22216904.4354    4299826.58949   3331451.78348                  22216904.5324
        46.7504         41.5004
  22549708.9034   -4250423.57949  -3280805.00947                  22549708.6384
        48.0004         37.2504
  21836193.9194   -2999927.90449  -2312682.95548                  21836193.7084
        48.5004         42.5004
  21039544.5674   -1378899.06849  -1058434.79148                  21039543.4854
        47.5004         44.0004
  24025009.5914   -3758354.81249  -2910938.77047                  24025009.6344
        43.7504         29.2504
  22393057.3644    5887024.81249   4555538.24548                  22393057.3924
        48.2504         39.5004
  24074752.9034   -3506409.10049  -2728573.82947                  24074755.0914
        43.5004         29.5004
 02  7  1 15 30 15.0010000  0  8G 6G10G15G17G23G18G30G29
  20597062.5444   -1072810.54349   -822847.98548                  20597061.6614
        47.5004         43.0004
  22225507.1924    4345033.75649   3366678.13648                  22225506.9584
        47.5004         41.5004
  22544563.2864   -4277460.92349  -3301873.04547                  22544563.1264
        47.0004         37.7504
  21832994.6064   -3016740.82849  -2325783.91348                  21832994.5364
        50.0004         42.2504
  21039710.4974   -1378026.11949  -1057754.56148                  21039709.7824
        47.7504         44.0004
  24016180.4814   -3804751.50049  -2947091.97047                  24016180.6064
        44.5004         29.5004
  22403632.0054    5942597.32349   4598841.47248                  22403632.3494
        49.0004         39.5004
  24070025.2944   -3531254.88749  -2747934.14647                  24070026.5754
        43.5004         28.2504
 02  7  1 15 30 30.0010000  0  8G 6G10G15G17G23G18G30G29
  20597151.0914   -1072344.53949   -822484.86448                  20597150.4194
        49.5004         42.7504
  22234135.9034    4390378.21149   3402011.46248                  22234136.0054
        46.7504         41.2504
  22539434.7864   -4304411.67749  -3322873.59947                  22539434.9314
        47.0004         37.5004
  21829812.2474   -3033465.06849  -2338815.78548                  21829811.9624
        48.5004         42.0004
  21039908.1924   -1376986.83849  -1056944.73248                  21039907.4704
        48.7504         44.0004
  24007364.0604   -3851081.41049  -2983193.17747                  24007364.0834
        44.0004         29.5004
  22414226.1614    5998269.91949   4642222.69347                  22414226.4274
        48.2504         39.2504
  24065315.4744   -3556003.77349  -2767218.95547                  24065317.0364
        44.0004         29.2504
 02  7  1 15 30 45.0010000  0  8G 6G10G15G17G23G18G30G29
  20597264.0674   -1071751.88649   -822023.06848                  20597262.9584
        50.0004         43.2504
  22242791.2164    4435860.90549   3437452.49848                  22242791.1304
        47.0004         41.0004
  22534323.0914   -4331274.49149  -3343805.64447                  22534323.4034
        47.0004         38.0004
  21826646.8964   -3050099.21049  -2351777.44048                  21826646.0014
        49.0004         42.2504
  21040137.9894   -1375779.92449  -1056004.28648                  21040136.6494
        50.0004         44.0004
  23998561.1774   -3897342.85149  -3019241.02647                  23998560.5754
        43.2504         30.2504
  22424839.5284    6054043.64249   4685682.68648                  22424839.9504
        49.0004         39.5004
  24060624.4504   -3580654.01949  -2786426.89747                  24060625.9624
        44.2504         29.5004
 02  7  1 15 31  0.0010000  0  8G 6G10G15G17G23G18G30G29
  20597400.7784   -1071031.80849   -821461.95948                  20597400.2394
        50.5004         43.2504
  22251472.7784    4481482.20849   3473001.55348                  22251472.2984
        48.0004         41.0004
  22529228.1144   -4358048.65949  -3364668.59447                  22529228.2044
        47.0004         38.0004
  21823498.5914   -3066642.57149  -2364668.34848                  21823498.0794
        49.0004         42.0004
  21040399.6534   -1374404.73249  -1054932.70048                  21040398.7514
        50.2504         43.7504
  23989770.2394   -3943534.80949  -3055234.70547                  23989770.4814
        43.5004         28.7504
  22435472.4424    6109918.67849   4729221.65647                  22435472.7594
        48.5004         39.0004
  24055952.2634   -3605204.66749  -2805557.23347                  24055954.7164
        44.0004         29.5004
 02  7  1 15 31 15.0010000  0  8G 6G10G15G17G23G18G30G29
  20597561.7784   -1070184.99249   -820802.10848                  20597561.2904
        50.5004         43.2504
  22260180.3644    4527241.01449   3508657.74548                  22260180.0634
        47.0004         41.2504
  22524149.2714   -4384734.98349  -3385463.10847                  22524150.3374
        47.0004         38.0004
  21820367.5284   -3083096.06649  -2377489.24448                  21820367.1264
        49.0004         42.2504
  21040693.4744   -1372862.09549  -1053730.63748                  21040692.6574
        50.0004         44.2504
  23980993.8024   -3989658.01749  -3091174.84347                  23980993.4274
        43.5004         29.5004
  22446123.8494    6165893.96749   4772838.72847                  22446124.3994
        48.5004         39.0004
  24051299.6224   -3629656.19349  -2824610.34847                  24051301.7284
        43.0004         29.0004
 02  7  1 15 31 30.0010000  0  8G 6G10G15G17G23G18G30G29
  20597747.0524   -1069213.45249   -820045.06348                  20597746.3564
        51.0004         43.5004
  22268913.4114    4573134.58249   3544418.95648                  22268913.2744
        48.0004         41.0004
  22519087.7784   -4411335.66749  -3406190.89347                  22519088.0714
        47.0004         38.0004
  21817253.2784   -3099461.85149  -2390241.79248                  21817252.9274
        49.2504         42.7504
  21041018.2714   -1371154.25849  -1052399.85648                  21041017.6224
        50.7504         44.0004
  23972229.4114   -4035714.40449  -3127062.88847                  23972228.5214
        43.7504         29.2504
  22456794.7474    6221966.89149   4816531.89248                  22456794.8534
        49.0004         39.7504
  24046665.5754   -3654010.40749  -2843587.62647                  24046666.9234
        44.2504         29.2504
 02  7  1 15 31 45.0010000  0  8G 6G10G15G17G23G18G30G29
  20597956.3104   -1068113.14349   -819187.67748                  20597955.5284
        50.0004         43.2504
  22277673.0834    4619166.56449   3580288.00948                  22277672.6224
        47.0004         41.2504
  22514042.9974   -4437846.84949  -3426848.93547                  22514043.4424
        47.0004         37.5004
  21814156.2634   -3115736.10949  -2402923.02948                  21814156.1814
        49.0004         42.5004
  21041375.6304   -1369277.33749  -1050937.31648                  21041374.8564
        49.7504         44.0004
  23963478.4894   -4081699.68949  -3162895.52747                  23963478.5174
        43.7504         29.0004
  22467484.0054    6278140.86949   4860303.79247                  22467484.3604
        48.7504         39.0004
  24042049.7864   -3678263.09349  -2862485.78547                  24042051.7634
        44.5004         28.2504
 02  7  1 15 32  0.0010000  0  8G 6G10G15G17G23G18G30G29
  20598189.5914   -1066887.54849   -818232.66948                  20598188.3924
        51.0004         43.2504
  22286458.3414    4665333.08849   3616261.91948                  22286458.0484
        46.7504         41.0004
  22509014.2164   -4464272.07949  -3447439.98947                  22509015.2594
        46.2504         37.7504
  21811076.2554   -3131922.44149  -2415535.74048                  21811076.1064
        48.5004         43.0004
  21041763.9504   -1367234.84549  -1049345.75848                  21041763.0914
        50.5004         44.2504
  23954741.2634   -4127617.16849  -3198675.37347                  23954740.9784
        43.0004         29.7504
  22478191.9504    6334412.07049   4904151.44547                  22478192.4814
        49.0004         38.5004
  24037453.8884   -3702417.59449  -2881307.45047                  24037455.2394
        44.2504         28.2504
 02  7  1 15 32 15.0010000  0  8G 6G10G15G17G23G18G30G29
  20598446.1924   -1065539.18449   -817182.00648                  20598445.4074
        50.2504         43.0004
  22295268.5524    4711631.19949   3652338.35248                  22295268.8294
        47.0004         41.0004
  22504001.5054   -4490613.89149  -3467966.05347                  22504002.0674
        47.2504         37.7504
  21808011.9114   -3148023.50349  -2428082.01648                  21808011.6964
        49.5004         42.5004
  21042183.8884   -1365029.52749  -1047627.32748                  21042182.7434
        50.0004         44.0004
  23946015.6384   -4173469.36349  -3234404.30647                  23946015.0094
        43.2504         30.2504
  22488917.8724    6390777.36249   4948072.42847                  22488918.1264
        48.7504         38.5004
  24032875.1854   -3726476.02849  -2900054.23347                  24032876.7394
        44.0004         28.5004
 02  7  1 15 32 30.0010000  0  8G 6G10G15G17G23G18G30G29
  20598727.3334   -1064061.21449   -816030.33248                  20598726.3104
        50.0004         43.0004
  22304105.2084    4758067.01949   3688522.08948                  22304105.0054
        45.7504         40.7504
  22499006.0134   -4516865.70649  -3488421.99547                  22499006.4464
        47.0004         37.7504
  21804965.5604   -3164032.68349  -2440556.68348                  21804965.3494
        49.0004         42.5004
  21042635.7244   -1362654.77349  -1045776.86248                  21042634.8454
        50.0004         44.2504
  23937303.5604   -4219249.23449  -3270076.88947                  23937303.0094
        43.2504         30.0004
  22499662.9424    6447243.08249   4992071.67147                  22499663.3884
        49.0004         38.7504
  24028317.3104   -3750431.57249  -2918720.85747                  24028318.5874
        44.0004         29.5004
 02  7  1 15 32 45.0010000  0  8G 6G10G15G17G23G18G30G29
  20599032.4274   -1062457.22549   -814780.47648                  20599032.0674
        50.5004         43.0004
  22312966.6534    4804636.50849   3724809.99148                  22312966.9704
        46.5004         41.0004
  22494026.5524   -4543031.24949  -3508810.70447                  22494027.2744
        46.7504         38.0004
  21801935.8804   -3179953.81049  -2452962.73948                  21801935.4464
        49.7504         42.0004
  21043119.1384   -1360114.33649  -1043797.29748                  21043118.3844
        50.5004         44.7504
  23928604.7634   -4264960.23749  -3305695.80447                  23928604.9354
        43.2504         30.7504
  22510426.6064    6503805.15549   5036145.97647                  22510426.6854
        48.7504         38.7504
  24023776.9034   -3774287.51949  -2937309.87347                  24023778.8844
        44.2504         29.0004
 02  7  1 15 33  0.0010000  0  8G 6G10G15G17G23G18G30G29
  20599361.7864   -1060728.58349   -813433.48248                  20599360.5174
        50.0004         43.5004
  22321853.8494    4851337.78049   3761200.57248                  22321853.9544
        46.0004         41.0004
  22489063.9354   -4569111.96649  -3529133.29747                  22489064.1534
        47.2504         38.0004
  21798922.8104   -3195788.21749  -2465301.22848                  21798922.4814
        49.0004         42.0004
  21043633.6924   -1357409.68549  -1041689.76948                  21043632.6064
        50.0004         44.0004
  23919919.4114   -4310603.59949  -3341262.00347                  23919919.5834
        42.5004         30.5004
  22521207.8644    6560461.51349   5080293.76247                  22521208.4314
        48.5004         38.2504
  24019256.1924   -3798045.03849  -2955822.18547                  24019257.6854
        44.0004         29.0004
 02  7  1 15 33 15.0010000  0  8G 6G10G15G17G23G18G30G29
  20599714.6224   -1058873.32449   -811987.81648                  20599713.3454
        48.7504         43.5004
  22330766.3334    4898172.36349   3797695.04148                  22330765.6144
        46.5004         40.7504
  22484116.9744   -4595106.04549  -3549388.41347                  22484117.0174
        47.0004         38.2504
  21795926.1304   -3211534.32549  -2477570.91248                  21795926.1494
        49.0004         43.0004
  21044179.7944   -1354539.12849  -1039452.96948                  21044178.9974
        48.7504         44.0004
  23911247.2634   -4356177.29349  -3376773.94947                  23911247.2984
        43.7504         30.5004
  22532007.4584    6617213.75249   5124516.25747                  22532007.7984
        48.2504         38.2504
  24014754.6384   -3821702.05049  -2974256.21647                  24014755.5754
        43.7504         28.2504
 02  7  1 15 33 30.0010000  0  8G 6G10G15G17G23G18G30G29
  20600091.1924   -1056893.24049   -810444.89548                  20600090.5094
        48.2504         43.5004
  22339703.3884    4945138.02649   3834291.64448                  22339703.0834
        47.0004         41.0004
  22479186.7244   -4621015.35249  -3569577.44947                  22479187.1034
        46.2504         38.2504
  21792946.5834   -3227193.99649  -2489773.25048                  21792946.1034
        49.0004         42.2504
  21044757.6304   -1351504.64049  -1037088.42648                  21044756.2674
        47.7504         44.5004
  23902587.9424   -4401682.93349  -3412232.81047                  23902587.9744
        43.5004         31.0004
  22542824.8724    6674059.60849   5168811.70547                  22542825.3374
        48.5004         38.5004
  24010271.9744   -3845260.01849  -2992613.03347                  24010273.1264
        44.2504         29.5004
 02  7  1 15 33 45.0010000  0  8G 6G10G15G17G23G18G30G29
  20600492.1924   -1054785.35549   -808802.38248                  20600491.3994
        50.7504         43.5004
  22348666.3254    4992237.23549   3870992.31648                  22348665.8174
        48.0004         40.7504
  22474273.1064   -4646837.11749  -3589698.28247                  22474273.3724
        45.7504         38.5004
  21789983.2864   -3242764.41449  -2501906.02548                  21789982.9854
        49.0004         41.7504
  21045366.5134   -1348303.40949  -1034593.95048                  21045365.4384
        50.0004         44.0004
  23893941.3024   -4447117.36749  -3447636.25147                  23893941.7204
        43.5004         30.5004
  22553660.7314    6731001.48749   5213181.96847                  22553660.7124
        48.2504         38.7504
  24005807.4584   -3868715.89249  -3010890.30747                  24005809.1224
        44.5004         30.0004
 02  7  1 15 34  0.0010000  0  8G 6G10G15G17G23G18G30G29
  20600918.1534   -1052548.65949   -807059.50648                  20600917.3994
        49.2504         43.2504
  22357653.7864    5039470.47449   3907797.40548                  22357654.2554
        47.5004         41.0004
  22469376.0134   -4672570.34949  -3609750.12847                  22469376.6224
        46.0004         38.0004
  21787037.8334   -3258244.72349  -2513968.59348                  21787037.4274
        49.5004         42.0004
  21046007.8414   -1344934.65149  -1031968.94248                  21046006.7904
        49.0004         44.0004
  23885309.6464   -4492479.57249  -3482983.39747                  23885309.7904
        44.0004         31.0004
  22564514.8724    6788039.77449   5257627.35147                  22564515.0874
        49.2504         39.2504
  24001364.0444   -3892068.42249  -3029087.05947                  24001366.1694
        45.0004         29.5004
 02  7  1 15 34 15.0010000  0  8G 6G10G15G17G23G18G30G29
  20601368.0214   -1050184.71749   -805217.47348                  20601366.9784
        49.0004         43.5004
  22366667.7004    5086835.63549   3944705.31748                  22366667.4974
        47.7504         41.0004
  22464495.5914   -4698216.84649  -3629734.38847                  22464495.8024
        45.5004         38.5004
  21784108.6854   -3273636.80149  -2525962.41248                  21784108.3724
        50.0004         42.0004
  21046680.0054   -1341400.07249  -1029214.72148                  21046679.5244
        48.7504         44.5004
  23876690.9664   -4537770.92849  -3518275.31047                  23876690.9354
        43.2504         31.2504
  22575386.7474    6845172.47749   5302146.31547                  22575387.0364
        48.0004         38.2504
  23996940.0284   -3915319.01849  -3047204.36547                  23996941.2514
        44.5004         29.7504
 02  7  1 15 34 30.0010000  0  8G 6G10G15G17G23G18G30G29
  20601842.3104   -1047691.91449   -803275.02948                  20601841.0834
        49.0004         43.0004
  22375705.8884    5134333.71749   3981716.78548                  22375705.9854
        47.7504         40.7504
  22459631.9814   -4723775.09949  -3649649.89547                  22459632.6924
        46.5004         38.7504
  21781196.8254   -3288939.03849  -2537886.23248                  21781196.0754
        49.5004         42.2504
  21047384.6064   -1337698.25749  -1026330.18948                  21047383.6854
        49.5004         44.0004
  23868086.0674   -4582989.60649  -3553510.58847                  23868086.2594
        43.2504         30.5004
  22586276.9114    6902400.67449   5346739.68247                  22586276.9544
        48.2504         38.5004
  23992534.8104   -3938465.83249  -3065240.81947                  23992536.0714
        44.7504         29.5004
 02  7  1 15 34 45.0010000  0  8G 6G10G15G17G23G18G30G29
  20602340.4034   -1045073.68549   -801234.85548                  20602339.4894
        50.2504         43.0004
  22384769.3024    5181960.88749   4018828.86548                  22384769.1384
        47.5004         40.2504
  22454784.8334   -4749248.63449  -3669499.37947                  22454785.1064
        46.0004         38.2504
  21778301.4744   -3304155.19849  -2549742.96648                  21778300.7744
        50.2504         42.0004
  21048120.2314   -1333832.86549  -1023318.18848                  21048119.4894
        49.5004         44.0004
  23859494.2864   -4628139.18949  -3588692.05647                  23859495.0714
        44.5004         31.0004
  22597184.2864    6959720.35549   5391404.34747                  22597184.6654
        48.0004         38.5004
  23988149.6064   -3961512.17949  -3083198.97147                  23988150.3764
        44.0004         30.0004
 02  7  1 15 35  0.0010000  0  8G 6G10G15G17G23G18G30G29
  20602863.4664   -1042326.37849   -799094.10148                  20602862.2714
        50.7504         43.5004
  22393857.6464    5229720.28149   4056043.95048                  22393857.4744
        48.0004         40.7504
  22449954.3414   -4774634.00949  -3689280.17247                  22449954.5834
        45.2504         38.0004
  21775423.0054   -3319281.71249  -2561529.85848                  21775422.5914
        50.0004         42.5004
  21048887.5994   -1329800.43149  -1020176.02748                  21048886.5604
        50.5004         44.0004
  23850916.6064   -4673215.76249  -3623816.61847                  23850917.1884
        44.0004         31.5004
  22608110.1694    7017134.63449   5436142.70047                  22608110.1964
        48.2504         38.5004
  23983783.4664   -3984454.21649  -3101075.88447                  23983784.8104
        44.7504         29.5004
 02  7  1 15 35 15.0010000  0  8G 6G10G15G17G23G18G30G29
  20603410.4664   -1039452.15649   -796854.44948                  20603409.3994
        50.0004         43.0004
  22402970.6534    5277609.34649   4093360.08548                  22402970.2084
        48.5004         41.0004
  22445140.3334   -4799933.45049  -3708994.01047                  22445140.1534
        45.2504         38.5004
  21772560.9114   -3334320.82349  -2573248.63548                  21772560.2904
        49.7504         42.7504
  21049685.9194   -1325603.25249  -1016905.49348                  21049685.4274
        49.5004         44.0004
  23842351.9894   -4718221.31949  -3658885.85847                  23842352.4074
        43.5004         31.0004
  22619053.5214    7074640.88749   5480952.74947                  22619053.6184
        48.2504         38.5004
  23979437.6924   -4007293.84049  -3118872.97447                  23979438.9744
        44.2504         29.2504
 02  7  1 15 35 30.0010000  0  8G 6G10G15G17G23G18G30G29
  20603981.1384   -1036450.78449   -794515.70948                  20603980.3844
        50.0004         43.2504
  22412108.6064    5325627.73949   4130777.00348                  22412108.0634
        47.2504         41.0004
  22440341.4424   -4825146.87149  -3728640.80147                  22440341.8254
        46.0004         38.7504
  21769715.7944   -3349272.54249  -2584899.31248                  21769715.4544
        49.7504         42.5004
  21050516.2474   -1321241.27249  -1013506.53748                  21050515.4504
        50.0004         44.5004
  23833802.1384   -4763155.49049  -3693899.46447                  23833801.9504
        44.5004         31.7504
  22630013.5284    7132238.88549   5525834.27747                  22630014.0244
        48.7504         38.2504
  23975110.5524   -4030030.59349  -3136589.89747                  23975112.2784
        44.0004         30.2504
 02  7  1 15 35 45.0010000  0  8G 6G10G15G17G23G18G30G29
  20604576.4814   -1033322.25749   -792077.88848                  20604575.8454
        50.7504         43.2504
  22421270.4744    5373774.98449   4168294.32148                  22421270.3414
        47.5004         41.0004
  22435560.5214   -4850274.40449  -3748220.67047                  22435560.8174
        46.5004         39.0004
  21766887.0364   -3364137.08649  -2596482.05948                  21766886.7514
        49.7504         43.0004
  21051377.8724   -1316714.72949  -1009979.34948                  21051377.3294
        51.0004         44.5004
  23825264.7164   -4808018.14049  -3728857.30647                  23825264.5174
        43.2504         32.0004
  22640991.7314    7189927.93849   5570786.75747                  22640991.6534
        48.0004         38.0004
  23970803.8254   -4052664.43849  -3154226.61747                  23970805.1224
        45.5004         30.2504
 02  7  1 15 36  0.0010000  0  8G 6G10G15G17G23G18G30G29
  20605196.4034   -1030067.06949   -789541.37548                  20605195.2824
        49.7504         43.2504
  22430456.7244    5422049.95349   4205911.16648                  22430456.7944
        47.5004         40.5004
  22430794.7314   -4875316.69549  -3767734.13347                  22430794.3924
        46.5004         39.0004
  21764074.8964   -3378915.12349  -2607997.39948                  21764075.1264
        49.5004         42.7504
  21052270.2634   -1312024.29149  -1006324.46248                  21052269.3534
        50.5004         44.0004
  23816740.1534   -4852809.67949  -3763759.76247                  23816740.5214
        44.0004         32.2504
  22651986.6224    7247707.08149   5615809.43547                  22651986.8294
        48.0004         37.5004
  23966515.8724   -4075195.56449  -3171783.31947                  23966517.4504
        44.7504         29.5004
 02  7  1 15 36 15.0010000  0  8G 6G10G15G17G23G18G30G29
  20605840.1224   -1026682.77949   -786904.26548                  20605838.7474
        51.0004         43.0004
  22439668.0754    5470454.62649   4243629.07848                  22439668.0914
        48.5004         41.0004
  22426046.0364   -4900271.40349  -3787179.33647                  22426046.1184
        46.7504         39.0004
  21761279.5604   -3393604.29649  -2619443.49648                  21761279.2244
        49.5004         42.2504
  21053194.6384   -1307167.66749  -1002540.08148                  21053194.0564
        51.0004         44.2504
  23808231.2714   -4897527.61349  -3798604.87147                  23808231.2784
        43.7504         32.5004
  22662999.2864    7305578.36549   5660903.90347                  22662999.3334
        48.7504         38.2504
  23962248.4664   -4097621.35349  -3189257.93347                  23962250.1814
        45.0004         30.5004
 02  7  1 15 36 30.0010000  0  8G 6G10G15G17G23G18G30G29
  20606508.6304   -1023169.99449   -784167.03048                  20606507.3764
        50.7504         43.0004
  22448903.9114    5518988.05149   4281447.31948                  22448903.6184
        48.0004         41.5004
  22421313.9584   -4925139.25249  -3806556.85447                  22421313.8104
        47.0004         38.7504
  21758501.0134   -3408205.52149  -2630821.05748                  21758500.7164
        49.7504         42.0004
  21054150.2244   -1302145.73049   -998626.86848                  21054149.2284
        50.5004         44.5004
  23799735.6384   -4942172.26549  -3833392.87847                  23799735.3254
        44.5004         32.0004
  22674028.8804    7363540.47249   5706069.16047                  22674029.8534
        48.5004         37.5004
  23958001.7474   -4119942.16149  -3206650.75747                  23958002.6814
        45.7504         31.5004
 02  7  1 15 36 45.0010000  0  8G 6G10G15G17G23G18G30G29
  20607201.7714   -1019529.31649   -781330.13848                  20607200.7554
        50.5004         43.2504
  22458163.6534    5567649.05549   4319364.95848                  22458163.6694
        48.5004         41.7504
  22416598.2714   -4949921.01349  -3825867.30747                  22416598.1854
        48.0004         38.5004
  21755739.0214   -3422719.33049  -2642130.51248                  21755738.8064
        49.2504         42.2504
  21055136.9894   -1296959.23749   -994585.44548                  21055135.8724
        51.0004         44.5004
  23791253.5674   -4986744.16449  -3868124.18547                  23791254.1104
        44.0004         32.5004
  22685076.0444    7421592.52549   5751304.49547                  22685076.7784
        47.5004         38.0004
  23953773.3804   -4142158.50249  -3223962.15747                  23953775.0014
        45.2504         30.7504
 02  7  1 15 37  0.0010000  0  8G 6G10G15G17G23G18G30G29
  20607918.6224   -1015761.28749   -778394.00748                  20607917.9274
        50.5004         43.0004
  22467447.8964    5616436.60549   4357381.20148                  22467447.1104
        47.7504         41.0004
  22411898.3104   -4974617.34349  -3845111.17347                  22411898.7904
        47.5004         38.5004
  21752993.4814   -3437146.68949  -2653372.59748                  21752993.4784
        49.5004         41.7504
  21056155.0444   -1291608.91049   -990416.35848                  21056154.5914
        51.2504         44.0004
  23782785.8414   -5031243.69849  -3902799.10947                  23782785.5834
        44.5004         32.7504
  22696139.8334    7479733.19349   5796608.87247                  22696140.3414
        48.0004         38.0004
  23949565.8964   -4164270.67549  -3241192.41047                  23949567.1304
        45.0004         30.5004
 02  7  1 15 37 15.0010000  0  8G 6G10G15G17G23G18G30G29
  20608660.7864   -1011860.50449   -775354.43648                  20608659.9704
        50.7504         42.7504
  22476756.6224    5665355.58249   4395499.88048                  22476756.3564
        48.5004         40.7504
  22407216.0214   -4999222.91749  -3864284.32647                  22407216.4664
        47.7504         38.2504
  21750265.3174   -3451482.22449  -2664543.13248                  21750265.2714
        49.7504         42.0004
  21057205.4584   -1286089.54949   -986115.55048                  21057204.5714
        50.7504         44.0004
  23774332.3724   -5075665.51949  -3937413.48247                  23774332.2944
        45.0004         32.7504
  22707221.3174    7537967.44049   5841986.18747                  22707222.2084
        48.5004         37.5004
  23945378.7944   -4186273.06649  -3258337.10247                  23945379.7984
        45.2504         30.0004
 02  7  1 15 37 30.0010000  0  8G 6G10G15G17G23G18G30G29
  20609427.8564   -1007829.85649   -772213.67048                  20609427.2434
        50.5004         43.0004
  22486090.1854    5714402.53849   4433718.27748                  22486089.7944
        48.0004         40.5004
  22402550.6774   -5023740.87049  -3883389.19547                  22402550.7864
        47.7504         38.5004
  21747554.5674   -3465729.07749  -2675644.56048                  21747553.9784
        49.5004         41.7504
  21058287.3494   -1280404.24949   -981685.43248                  21058286.3254
        51.2504         44.0004
  23765894.2634   -5120012.33549  -3971969.39947                  23765893.8294
        44.7504         32.5004
  22718320.1224    7596291.83749   5887433.73647                  22718320.4894
        48.5004         37.7504
  23941211.9894   -4208168.49149  -3275398.44147                  23941212.8334
        45.2504         30.0004
 02  7  1 15 37 45.0010000  0  8G 6G10G15G17G23G18G30G29
  20610218.4584   -1003674.79049   -768975.96648                  20610217.6184
        50.5004         42.7504
  22495446.4114    5763571.63049   4472031.83648                  22495446.1344
        48.2504         40.2504
  22397900.4974   -5048176.56249  -3902429.98447                  22397900.8764
        47.2504         38.2504
  21744859.3254   -3479892.69849  -2686681.14648                  21744858.9274
        48.7504         42.2504
  21059399.8104   -1274558.59949   -977130.38248                  21059398.8134
        51.0004         44.0004
  23757467.7944   -5164289.19449  -4006470.81947                  23757468.2354
        44.7504         31.7504
  22729434.9744    7654700.48549   5932946.92547                  22729435.2864
        48.5004         37.5004
  23937065.6854   -4229962.09049  -3292380.46747                  23937066.2044
        45.7504         30.7504
 02  7  1 15 38  0.0010000  0  8G 6G10G15G17G23G18G30G29
  20611033.6224    -999391.70749   -765638.48648                  20611032.5874
        50.5004         43.0004
  22504827.1774    5812866.00349   4510443.01848                  22504826.8024
        47.0004         40.7504
  22393266.8964   -5072526.59649  -3921404.00847                  22393266.8374
        47.2504         38.5004
  21742180.5364   -3493969.76749  -2697650.27648                  21742180.2944
        49.0004         41.7504
  21060543.1464   -1268549.20249   -972447.72648                  21060542.8214
        50.7504         44.0004
  23749056.4974   -5208492.56449  -4040914.96847                  23749056.5284
        43.2504         32.5004
  22740566.4584    7713196.57249   5978528.26147                  22740567.1614
        48.5004         38.2504
  23932938.1614   -4251650.10149  -3309280.19047                  23932939.2084
        45.5004         31.7504
 02  7  1 15 38 15.0010000  0  8G 6G10G15G17G23G18G30G29
  20611872.9424    -994981.37249   -762201.85948                  20611872.1034
        50.0004         43.2504
  22514230.6064    5862284.28349   4548950.76248                  22514230.7864
        47.0004         40.5004
  22388649.2004   -5096791.93849  -3940312.04347                  22388649.4664
        46.5004         38.0004
  21739518.0674   -3507961.17549  -2708552.66048                  21739517.7944
        49.2504         42.0004
  21061717.6144   -1262377.05249   -967638.25548                  21061717.0634
        50.2504         44.0004
  23740658.9034   -5252623.01649  -4075302.28847                  23740658.3644
        44.0004         32.2504
  22751714.1854    7771778.66649   6024176.61547                  22751715.0564
        48.0004         38.5004
  23928830.7084   -4273232.95849  -3326097.98047                  23928832.0564
        45.2504         31.0004
 02  7  1 15 38 30.0010000  0  8G 6G10G15G17G23G18G30G29
  20612737.1064    -990440.00749   -758663.12548                  20612736.0134
        50.5004         42.7504
  22523658.7944    5911829.79149   4587557.64448                  22523659.1494
        48.7504         40.5004
  22384048.3254   -5120968.94749  -3959151.24447                  22384048.8604
        45.5004         38.5004
  21736872.8494   -3521863.42949  -2719385.56748                  21736872.2714
        49.5004         42.7504
  21062924.0444   -1256038.58549   -962699.18148                  21062923.0484
        50.7504         44.0004
  23732275.5524   -5296676.68549  -4109629.79247                  23732275.4154
        44.2504         32.5004
  22762879.3104    7830450.04349   6069894.54047                  22762879.6854
        48.0004         37.7504
  23924744.2554   -4294706.85549  -3342830.84447                  23924745.2514
        44.7504         30.7504
 02  7  1 15 38 45.0010000  0  8G 6G10G15G17G23G18G30G29
  20613626.4814    -985766.36349   -755021.33448                  20613625.3764
        49.7504         42.7504
  22533111.9114    5961503.20549   4626264.17248                  22533111.2514
        47.5004         40.7504
  22379464.9814   -5145056.42449  -3977920.69647                  22379465.2284
        47.2504         37.7504
  21734244.2634   -3535675.31349  -2730148.07948                  21734243.8724
        49.5004         42.5004
  21064161.9664   -1249532.67249   -957629.63648                  21064160.8724
        51.0004         44.5004
  23723907.0134   -5340652.23649  -4143896.43147                  23723907.0564
        45.0004         33.0004
  22774061.3024    7889211.48549   6115682.63347                  22774061.5444
        48.2504         38.0004
  23920679.4584   -4316070.31649  -3359477.67047                  23920680.0604
        45.0004         30.2504
 02  7  1 15 39  0.0010000  0  8G 6G10G15G17G23G18G30G29
  20614540.4274    -980964.18449   -751279.36648                  20614539.2434
        50.0004         43.0004
  22542587.6614    6011300.25949   4665067.05748                  22542587.7314
        47.5004         41.0004
  22374897.5524   -5169058.31149  -3996623.43447                  22374897.6144
        46.5004         38.2504
  21731632.2714   -3549400.85249  -2740843.28048                  21731632.7714
        49.2504         43.0004
  21065430.9814   -1242863.33649   -952432.74048                  21065430.3374
        51.2504         44.5004
  23715553.3494   -5384553.17749  -4178104.90247                  23715553.3454
        45.0004         33.0004
  22785259.2314    7948058.68049   6161537.56747                  22785259.8924
        48.2504         38.5004
  23916633.9664   -4337326.87549  -3376041.17947                  23916634.7674
        45.2504         30.5004
 02  7  1 15 39 15.0010000  0  8G 6G10G15G17G23G18G30G29
  20615478.7004    -976033.52449   -747437.29148                  20615477.5214
        50.0004         43.2504
  22552086.7864    6061220.45249   4703965.89248                  22552087.2594
        48.7504         40.0004
  22370346.5604   -5192974.79049  -4015259.62947                  22370346.7784
        45.5004         39.2504
  21729037.0364   -3563040.12349  -2751471.26748                  21729036.9114
        48.7504         42.7504
  21066731.1224   -1236030.80649   -947108.69048                  21066730.5484
        50.5004         44.0004
  23707213.3254   -5428379.56649  -4212255.29947                  23707212.8534
        44.5004         33.5004
  22796473.7784    8006991.04249   6207458.85647                  22796474.3684
        47.5004         38.0004
  23912608.9974   -4358476.39549  -3392521.29747                  23912610.3844
        44.5004         30.5004
 02  7  1 15 39 30.0010000  0  8G 6G10G15G17G23G18G30G29
  20616441.8724    -970970.40049   -743492.00748                  20616441.2084
        50.5004         43.0004
  22561610.9114    6111267.29949   4742963.40848                  22561610.9274
        47.5004         40.5004
  22365812.2864   -5216801.99949  -4033826.27347                  22365812.0954
        47.0004         39.0004
  21726458.4274   -3576589.44749  -2762029.18548                  21726458.0604
        49.5004         42.5004
  21068063.2244   -1229031.36249   -941654.58248                  21068062.5604
        51.0004         44.2504
  23698888.1304   -5472127.28349  -4246344.41347                  23698888.3764
        45.2504         32.7504
  22807705.2084    8066011.95449   6253449.14347                  22807705.4274
        48.2504         37.7504
  23908605.6224   -4379514.78949  -3408914.82747                  23908606.8134
        45.7504         31.5004
 02  7  1 15 39 45.0010000  0  8G 6G10G15G17G23G18G30G29
  20617429.9894    -965778.34749   -739446.23448                  20617429.0324
        49.5004         43.0004
  22571157.5444    6161436.81549   4782056.52448                  22571157.8534
        47.2504         40.5004
  22361294.5364   -5240543.58749  -4052326.18847                  22361294.4314
        46.0004         39.0004
  21723896.6384   -3590052.43749  -2772519.80848                  21723896.4934
        49.7504         42.5004
  21069426.1774   -1221868.67149   -936073.25048                  21069425.4704
        51.5004         44.0004
  23690577.3104   -5515799.58549  -4280374.72847                  23690578.1184
        44.2504         32.2504
  22818952.9034    8125117.45449   6299505.33947                  22818953.4974
        48.2504         37.0004
  23904622.7784   -4400445.27349  -3425224.25747                  23904624.5634
        45.5004         31.0004
 02  7  1 15 40  0.0010000  0  8G 6G10G15G17G23G18G30G29
  20618442.6614    -960456.49049   -735299.34348                  20618441.7744
        50.0004         43.2504
  22580727.7314    6211729.26549   4821245.41648                  22580728.3334
        47.5004         40.0004
  22356793.0754   -5264198.77949  -4070758.79147                  22356792.5714
        46.0004         39.0004
  21721351.2394   -3603428.47449  -2782942.68748                  21721351.0054
        49.5004         42.5004
  21070820.4194   -1214542.10449   -930364.24748                  21070819.4424
        51.0004         44.2504
  23682281.8174   -5559395.60749  -4314345.63447                  23682281.6104
        45.2504         32.7504
  22830216.2394    8184307.86849   6345627.69547                  22830216.7124
        48.2504         37.7504
  23900660.2004   -4421266.80649  -3441448.80447                  23900661.5524
        45.2504         31.2504
 02  7  1 15 40 15.0010000  0  8G 6G10G15G17G23G18G30G29
  20619480.4114    -955003.62549   -731050.33648                  20619479.5364
        50.0004         43.5004
  22590322.1384    6262145.51949   4860530.80748                  22590322.1494
        48.0004         39.7504
  22352308.3564   -5287766.51449  -4089123.24147                  22352308.4384
        45.5004         39.2504
  21718822.6064   -3616716.46549  -2793296.94848                  21718822.2944
        49.0004         42.2504
  21072245.7634   -1207050.63249   -924526.72448                  21072245.0564
        50.7504         44.5004
  23674000.6064   -5602913.86349  -4348255.91047                  23674000.6104
        45.7504         33.2504
  22841496.0524    8243583.98049   6391816.84647                  22841496.6464
        47.7504         37.0004
  23896719.4744   -4441978.05049  -3457587.38947                  23896719.9664
        45.5004         30.5004
 02  7  1 15 40 30.0010000  0  8G 6G10G15G17G23G18G30G29
  20620542.6694    -949419.72949   -726699.25148                  20620542.0674
        49.7504         43.0004
  22599939.4354    6312684.91149   4899912.11348                  22599939.5834
        47.5004         40.5004
  22347839.3964   -5311246.93149  -4107419.65548                  22347839.9544
        46.2504         39.5004
  21716310.6694   -3629916.55049  -2803582.73148                  21716310.6924
        48.0004         42.7504
  21073702.8724   -1199394.50049   -918560.89948                  21073702.0324
        50.7504         44.5004
  23665734.0994   -5646354.37349  -4382105.63647                  23665733.9154
        44.5004         33.0004
  22852791.9814    8302945.16449   6438072.27947                  22852792.6654
        48.5004         37.5004
  23892798.6924   -4462578.80749  -3473639.88547                  23892799.7904
        45.0004         31.7504
 02  7  1 15 40 45.0010000  0  8G 6G10G15G17G23G18G30G29
  20621630.4354    -943705.24549   -722246.40148                  20621629.3374
        50.0004         43.2504
  22609580.0914    6363346.53049   4939388.69548                  22609580.0714
        47.0004         40.2504
  22343388.2864   -5334640.51349  -4125648.39447                  22343388.3764
        45.0004         38.2504
  21713815.2084   -3643029.28349  -2813800.42848                  21713815.2514
        50.2504         42.5004
  21075190.8564   -1191574.25449   -912467.19548                  21075190.1694
        52.0004         44.5004
  23657482.0994   -5689717.33749  -4415894.91547                  23657482.2084
        45.0004         33.0004
  22864104.5754    8362390.58949   6484393.35747                  22864104.5484
        47.7504         37.5004
  23888899.9354   -4483069.23349  -3489606.38047                  23888901.3374
        45.5004         31.5004
 02  7  1 15 41  0.0010000  0  8G 6G10G15G17G23G18G30G29
  20622742.7474    -937860.69749   -717692.21048                  20622741.5714
        49.7504         42.7504
  22619243.3494    6414129.49849   4978959.81348                  22619243.4664
        46.2504         40.0004
  22338952.6534   -5357947.97349  -4143810.02847                  22338952.5754
        45.7504         38.2504
  21711336.5444   -3656055.34349  -2823950.58948                  21711336.1774
        50.2504         43.0004
  21076710.5364   -1183590.67449   -906246.22048                  21076709.4934
        51.0004         44.2504
  23649244.8964   -5733003.20049  -4449624.12947                  23649245.0834
        45.2504         32.7504
  22875432.5284    8421919.25249   6530779.28647                  22875432.8644
        48.0004         37.0004
  23885021.2864   -4503449.69149  -3505487.24947                  23885022.4074
        44.7504         30.2504
 02  7  1 15 41 15.0010000  0  8G 6G10G15G17G23G18G30G29
  20623879.6774    -931884.45049   -713035.40048                  20623878.8884
        50.0004         42.7504
  22628930.5674    6465034.96149   5018626.39348                  22628930.3684
        46.7504         40.0004
  22334534.4114   -5381167.79849  -4161903.38847                  22334534.3454
        46.5004         38.5004
  21708874.1854   -3668993.29049  -2834032.10848                  21708874.4424
        49.7504         42.5004
  21078261.0524   -1175442.35349   -899896.88348                  21078260.3804
        51.7504         44.2504
  23641022.4894   -5776210.13349  -4483291.83847                  23641022.8374
        45.7504         32.5004
  22886776.3414    8481532.08249   6577230.80347                  22886777.0364
        48.0004         36.7504
  23881164.5914   -4523718.38549  -3521280.99047                  23881165.6304
        45.7504         30.7504
 02  7  1 15 41 30.0010000  0  8G 6G10G15G17G23G18G30G29
  20625041.4354    -925780.46449   -708279.03248                  20625040.4504
        49.7504         43.0004
  22638640.1224    6516058.37249   5058384.87047                  22638639.6384
        47.0004         39.0004
  22330131.5754   -5404304.03649  -4179931.60547                  22330131.5794
        45.5004         38.7504
  21706428.4744   -3681847.28749  -2844048.19548                  21706427.9814
        50.0004         42.7504
  21079842.2784   -1167133.39649   -893422.35548                  21079840.8884
        52.5004         44.2504
  23632815.6304   -5819342.06649  -4516901.09047                  23632815.3994
        44.7504         33.5004
  22898135.6924    8541224.79149   6623744.56947                  22898136.1534
        47.5004         37.0004
  23877328.1064   -4543878.96049  -3536990.46947                  23877329.4274
        44.7504         31.0004
 02  7  1 15 41 45.0010000  0  8G 6G10G15G17G23G18G30G29
  20626227.9894    -919543.73449   -703419.24348                  20626227.2514
        49.7504         43.0004
  22648372.7084    6567204.29049   5098238.82447                  22648372.8724
        45.7504         39.0004
  22325745.5214   -5427351.79649  -4197890.87747                  22325745.7044
        46.0004         38.7504
  21703999.4354   -3694612.55149  -2853995.13748                  21703998.8134
        49.7504         43.0004
  21081454.6144   -1158659.00149   -886818.93148                  21081454.0244
        51.7504         44.7504
  23624622.8494   -5862393.81849  -4550447.86747                  23624622.4384
        45.0004         33.5004
  22909510.6694    8601001.70549   6670323.96347                  22909511.3604
        47.7504         37.0004
  23873513.2084   -4563926.53249  -3552611.91847                  23873514.1144
        45.0004         31.5004
 02  7  1 15 42  0.0010000  0  8G 6G10G15G17G23G18G30G29
  20627440.6614    -913171.78849   -698454.08248                  20627439.3134
        50.7504         43.2504
  22658129.1224    6618474.69449   5138189.77348                  22658129.2044
        46.0004         39.5004
  22321377.1224   -5450308.68549  -4215779.33947                  22321377.2314
        46.0004         38.2504
  21701587.5604   -3707286.60749  -2863871.01648                  21701586.9504
        50.0004         42.5004
  21083099.3254   -1150016.86149   -880084.79948                  21083098.0794
        52.0004         44.2504
  23616446.1774   -5905362.65149  -4583930.03947                  23616445.9314
        45.0004         32.7504
  22920902.2474    8660864.89649   6716970.56747                  22920902.9194
        47.2504         36.5004
  23869720.2634   -4583858.20849  -3568143.03447                  23869721.0364
        45.5004         31.0004
 02  7  1 15 42 15.0010000  0  8G 6G10G15G17G23G18G30G29
  20628677.5994    -906671.56149   -693388.97348                  20628676.4504
        49.5004         43.0004
  22667908.2004    6669862.21049   5178231.96747                  22667907.7944
        46.7504         39.2504
  22317024.0994   -5473181.80649  -4233602.53147                  22317024.1924
        44.5004         38.5004
  21699191.9504   -3719876.53449  -2873681.35048                  21699191.4784
        49.7504         42.5004
  21084774.3884   -1141214.24349   -873225.60248                  21084773.8294
        51.0004         44.2504
  23608283.4354   -5948255.49249  -4617352.99947                  23608283.6224
        44.5004         33.5004
  22932309.1924    8720807.00749   6763678.66147                  22932309.8924
        47.7504         36.2504
  23865948.4584   -4603680.74749  -3583589.14047                  23865949.2164
        45.7504         32.0004
 02  7  1 15 42 30.0010000  0  8G 6G10G15G17G23G18G30G29
  20629940.5054    -900035.90549   -688218.33748                  20629939.3924
        50.2504         43.2504
  22677710.1854    6721373.58049   5218370.67847                  22677710.5994
        46.0004         39.2504
  22312688.7714   -5495964.09449  -4251354.95547                  22312689.4624
        46.5004         38.7504
  21696812.9584   -3732375.51849  -2883420.80948                  21696813.0134
        49.7504         43.0004
  21086481.2244   -1132244.08349   -866235.86448                  21086480.4974
        51.5004         44.2504
  23600137.4504   -5991064.96749  -4650710.97647                  23600137.3254
        45.7504         33.2504
  22943731.8884    8780834.44649   6810453.25447                  22943732.6694
        48.0004         36.5004
  23862198.4504   -4623386.75849  -3598944.42947                  23862199.1614
        45.5004         31.5004
 02  7  1 15 42 45.0010000  0  8G 6G10G15G17G23G18G30G29
  20631227.8644    -893268.89449   -682945.33148                  20631226.7984
        50.2504         43.2504
  22687535.2554    6773004.00949   5258602.16748                  22687535.3064
        46.5004         39.7504
  22308370.4354   -5518659.85249  -4269039.92647                  22308370.3604
        45.7504         39.0004
  21694451.4744   -3744787.71349  -2893092.64548                  21694450.9624
        49.7504         42.7504
  21088219.1224   -1123110.73949   -859118.97348                  21088218.4034
        51.5004         44.0004
  23592005.9974   -6033795.03849  -4684007.09647                  23592005.8724
        44.7504         33.7504
  22955170.2634    8840942.81649   6857290.91247                  22955171.1884
        48.0004         36.5004
  23858469.7084   -4642980.17949  -3614211.98747                  23858470.8214
        45.0004         31.7504
 02  7  1 15 43  0.0010000  0  8G 6G10G15G17G23G18G30G29
  20632540.9274    -886369.08449   -677568.85448                  20632540.4784
        51.0004         43.0004
  22697382.8884    6824754.41749   5298927.12547                  22697383.2164
        46.2504         39.2504
  22304068.2164   -5541267.61949  -4286656.36147                  22304068.3844
        46.0004         39.0004
  21692106.0754   -3757111.65149  -2902695.70748                  21692105.6694
        49.5004         43.0004
  21089988.7004   -1113812.99649   -851873.97048                  21089987.7204
        51.0004         44.2504
  23583890.2944   -6076444.07349  -4717240.07447                  23583889.8454
        45.7504         33.7504
  22966623.9744    8901132.93849   6904192.26547                  22966624.8494
        48.0004         36.5004
  23854762.9974   -4662459.31249  -3629390.49747                  23854763.5444
        44.0004         30.2504
 02  7  1 15 43 15.0010000  0  8G 6G10G15G17G23G18G30G29
  20633878.7554    -879339.94749   -672091.58948                  20633877.2434
        50.0004         43.0004
  22707253.0214    6876620.85349   5339342.51548                  22707252.8104
        45.5004         39.5004
  22299782.0214   -5563791.04849  -4304207.06047                  22299782.3684
        45.5004         39.0004
  21689776.9664   -3769351.23349  -2912233.02848                  21689776.5324
        50.0004         42.0004
  21091788.4274   -1104354.58949   -844503.77248                  21091787.6344
        51.5004         44.2504
  23575788.7554   -6119015.68949  -4750412.70047                  23575788.5834
        45.0004         33.7504
  22978092.8334    8961400.82049   6951154.21647                  22978093.2864
        47.5004         36.7504
  23851077.1854   -4681827.62749  -3644482.63347                  23851077.7044
        44.7504         31.2504
 02  7  1 15 43 30.0010000  0  8G 6G10G15G17G23G18G30G29
  20635241.6144    -872178.13149   -666510.96048                  20635240.5054
        50.0004         43.2504
  22717145.4894    6928606.23949   5379850.58447                  22717145.3294
        46.0004         39.0004
  22295512.5604   -5586226.92249  -4321689.54847                  22295512.7084
        45.5004         39.0004
  21687464.4744   -3781503.17849  -2921702.06148                  21687464.2784
        49.5004         42.7504
  21093619.4034   -1094732.39849   -837005.95548                  21093618.3684
        52.2504         44.2504
  23567702.9974   -6161506.42549  -4783522.34047                  23567703.3964
        45.0004         33.5004
  22989576.6144    9021749.35749   6998179.00647                  22989577.0244
        47.5004         36.5004
  23847412.7394   -4701081.44349  -3659485.58347                  23847414.2554
        45.0004         30.5004
 02  7  1 15 43 45.0010000  0  8G 6G10G15G17G23G18G30G29
  20636629.5834    -864884.31849   -660827.46348                  20636628.8604
        51.0004         43.2504
  22727060.3334    6980709.37549   5420450.41048                  22727060.5524
        46.0004         39.7504
  22291259.7244   -5608576.05049  -4339104.42847                  22291259.7784
        45.7504         39.0004
  21685168.3884   -3793568.26949  -2931103.41848                  21685168.4704
        49.7504         42.7504
  21095481.4584   -1084947.32649   -829381.21748                  21095480.6424
        51.7504         44.2504
  23559632.5754   -6203916.58449  -4816569.16947                  23559632.8214
        45.2504         33.5004
  23001075.6064    9082177.28349   7045265.67747                  23001076.3334
        47.7504         36.5004
  23843770.2394   -4720221.36249  -3674399.75047                  23843772.3724
        44.0004         31.0004
 02  7  1 15 44  0.0010000  0  8G 6G10G15G17G23G18G30G29
  20638042.8964    -857456.70349   -655039.70448                  20638041.9424
        49.5004         43.2504
  22736998.1464    7032931.57149   5461143.02047                  22736997.9624
        46.2504         39.0004
  22287023.8104   -5630836.78249  -4356450.43747                  22287023.6064
        45.5004         39.0004
  21682889.5834   -3805544.92149  -2940435.86648                  21682889.4234
        50.0004         42.7504
  21097374.6924   -1074997.74149   -821628.28548                  21097373.7784
        51.7504         44.5004
  23551578.2864   -6246244.21149  -4849551.68947                  23551578.5674
        45.0004         33.7504
  23012590.0054    9142685.92149   7092415.22247                  23012590.7514
        48.0004         36.5004
  23840150.7004   -4739245.25749  -3689223.51947                  23840151.7674
        43.7504         31.0004
 02  7  1 15 44 15.0010000  0  8G 6G10G15G17G23G18G30G29
  20639481.2004    -849899.05749   -649150.63548                  20639480.3454
        51.0004         43.2504
  22746957.2394    7085268.61449   5501925.10448                  22746957.4424
        47.0004         39.5004
  22282803.2714   -5653013.00649  -4373730.59247                  22282803.4784
        46.5004         39.0004
  21680626.6224   -3817437.05849  -2949702.45948                  21680626.6064
        50.0004         43.0004
  21099298.6854   -1064887.63149   -813750.28248                  21099297.7084
        51.7504         44.0004
  23543538.3724   -6288493.02849  -4882472.82747                  23543538.0834
        46.0004         33.2504
  23024119.1064    9203271.02749   7139624.35547                  23024119.4544
        48.0004         36.5004
  23836552.0214   -4758156.74349  -3703959.69847                  23836553.0404
        43.7504         30.7504
 02  7  1 15 44 30.0010000  0  8G 6G10G15G17G23G18G30G29
  20640944.3104    -842209.71149   -643158.92948                  20640943.3534
        49.7504         43.5004
  22756939.3024    7137721.70549   5542797.63348                  22756939.1034
        46.0004         39.5004
  22278599.9424   -5675103.10949  -4390943.64047                  22278600.0674
        46.0004         38.7504
  21678380.0674   -3829243.13949  -2958901.99048                  21678379.6654
        49.5004         43.0004
  21101253.7004   -1054615.50349   -805746.00648                  21101252.7634
        51.5004         44.5004
  23535513.9584   -6330661.14149  -4915331.02847                  23535513.9784
        46.0004         34.7504
  23035662.6144    9263933.79349   7186894.01647                  23035663.4544
        48.2504         37.0004
  23832974.9744   -4776953.96849  -3718606.82247                  23832976.1064
        43.7504         31.5004
 02  7  1 15 44 45.0010000  0  8G 6G10G15G17G23G18G30G29
  20642432.9504    -834387.34049   -637063.57248                  20642431.9314
        49.5004         43.5004
  22766942.4814    7190291.70049   5583761.25047                  22766942.4424
        45.2504         39.2504
  22274413.2474   -5697105.84949  -4408088.63047                  22274413.0714
        45.2504         39.0004
  21676149.9584   -3840962.00249  -2968033.56248                  21676149.6494
        50.0004         43.0004
  21103239.2164   -1044180.27949   -797614.65948                  21103238.5054
        52.0004         44.2504
  23527505.9504   -6372747.01849  -4948125.18847                  23527505.2124
        45.7504         34.5004
  23047221.6534    9324675.00149   7234224.78947                  23047222.3644
        48.5004         37.0004
  23829420.1694   -4795635.37049  -3733163.72347                  23829421.3844
        43.2504         32.0004
 02  7  1 15 45  0.0010000  0  8G 6G10G15G17G23G18G30G29
  20643946.1464    -826434.15949   -630866.30348                  20643945.4854
        50.2504         43.2504
  22776968.0754    7242975.90249   5624813.84947                  22776968.0484
        46.5004         38.7504
  22270242.2784   -5719023.41049  -4425167.23347                  22270242.4154
        46.5004         39.2504
  21673935.9894   -3852595.98849  -2977099.00548                  21673935.9784
        49.5004         43.5004
  21105255.7784   -1033584.33649   -789358.07648                  21105254.6064
        50.7504         44.2504
  23519512.0604   -6414752.71549  -4980856.85347                  23519511.7594
        44.7504         34.2504
  23058794.7864    9385492.05749   7281614.66447                  23058795.0914
        47.5004         36.7504
  23825887.1614   -4814202.99049  -3747631.94847                  23825887.5564
        42.5004         31.2504
 02  7  1 15 45 15.0010000  0  8G 6G10G15G17G23G18G30G29
  20645485.0444    -818347.26549   -624564.82448                  20645483.8374
        50.7504         43.7504
  22787015.6064    7295776.63049   5665957.23947                  22787015.6034
        45.7504         39.0004
  22266087.7244   -5740853.16049  -4442177.40347                  22266088.1494
        47.2504         39.2504
  21671738.8884   -3864142.30149  -2986096.12148                  21671738.5524
        49.2504         43.5004
  21107302.8724   -1022825.01249   -780974.18548                  21107301.8374
        51.7504         44.5004
  23511534.3564   -6456675.18349  -5013523.67947                  23511534.3064
        45.7504         34.5004
  23070382.9354    9446387.18549   7329065.37547                  23070383.1964
        48.2504         36.5004
  23822375.4194   -4832653.79049  -3762009.16947                  23822376.4194
        43.5004         31.2504
 02  7  1 15 45 30.0010000  0  8G 6G10G15G17G23G18G30G29
  20647049.2314    -810126.83649   -618159.28948                  20647048.5214
        50.0004         43.2504
  22797085.6774    7348693.27549   5707190.97547                  22797085.7314
        45.5004         38.7504
  22261951.0914   -5762595.44749  -4459119.44648                  22261950.9314
        45.7504         39.5004
  21669558.2084   -3875601.40249  -2995025.28248                  21669558.0994
        49.7504         43.2504
  21109381.2634   -1011902.74449   -772463.31848                  21109380.5364
        52.0004         44.5004
  23503573.2244   -6498514.58449  -5046125.77147                  23503572.1034
        45.5004         34.7504
  23081985.3804    9507359.65249   7376576.35147                  23081986.1184
        47.7504         36.7504
  23818886.6144   -4850987.73649  -3776295.31147                  23818888.2124
        43.2504         31.7504
 02  7  1 15 45 45.0010000  0  8G 6G10G15G17G23G18G30G29
  20648639.9504    -801770.24449   -611647.66248                  20648638.8494
        50.5004         43.5004
  22807177.5054    7401727.94749   5748516.67647                  22807178.0404
        46.0004         38.7504
  22257830.5754   -5784247.74449  -4475991.34148                  22257831.0714
        47.5004         40.0004
  21667394.9274   -3886970.75449  -3003884.50748                  21667394.6184
        49.7504         43.0004
  21111491.2864   -1000815.14249   -763823.62548                  21111490.6344
        51.5004         44.2504
  23495627.0134   -6540268.21249  -5078661.02647                  23495626.7904
        45.7504         34.0004
  23093602.9584    9568411.67849   7424149.33247                  23093603.9744
        48.5004         37.0004
  23815420.7004   -4869202.00249  -3790488.21247                  23815422.0874
        43.0004         31.7504
 02  7  1 15 46  0.0010000  0  8G 6G10G15G17G23G18G30G29
  20650255.2714    -793279.94949   -605031.84348                  20650254.0994
        50.2504         43.2504
  22817291.7554    7454877.71949   5789932.06547                  22817291.6034
        45.7504         38.5004
  22253726.4354   -5805812.60449  -4492795.11648                  22253726.7474
        46.5004         40.2504
  21665247.8414   -3898253.01349  -3012675.86748                  21665247.6304
        49.7504         43.2504
  21113632.1774    -989564.84649   -755057.15248                  21113631.0564
        52.0004         44.2504
  23487697.9274   -6581938.31949  -5111131.19547                  23487697.1224
        44.7504         34.5004
  23105236.2004    9629540.33449   7471782.00847                  23105236.5054
        48.2504         36.2504
  23811976.7314   -4887298.73849  -3804589.51247                  23811977.5404
        43.7504         32.0004
 02  7  1 15 46 15.0010000  0  8G 6G10G15G17G23G18G30G29
  20651895.3174    -784662.23649   -598316.74348                  20651894.5214
        50.5004         43.2504
  22827426.1464    7508135.78349   5831431.83047                  22827426.3214
        46.5004         38.7504
  22249638.1144   -5827296.50249  -4509535.80948                  22249638.5874
        47.5004         39.5004
  21663116.1384   -3909454.66549  -3021404.42548                  21663115.5324
        49.7504         43.2504
  21115802.8174    -978158.40449   -746169.00948                  21115801.5714
        52.0004         44.5004
  23479782.6694   -6623531.24149  -5143541.22447                  23479782.5244
        45.7504         34.7504
  23116881.2314    9690738.73149   7519469.03447                  23116882.6534
        48.2504         37.2504
  23808554.1694   -4905284.30749  -3818604.21047                  23808555.2434
        43.7504         31.5004
 02  7  1 15 46 30.0010000  0  8G 6G10G15G17G23G18G30G29
  20653560.2944    -775912.64149   -591498.88048                  20653559.5564
        50.5004         43.2504
  22837582.6144    7561506.15949   5873019.13147                  22837582.5364
        46.5004         39.2504
  22245566.4814   -5848695.01149  -4526209.94848                  22245566.5404
        47.5004         39.7504
  21661000.6854   -3920571.27149  -3030066.70348                  21661000.3684
        50.2504         43.2504
  21118003.9814    -966591.58049   -737155.88748                  21118003.2204
        52.0004         44.5004
  23471883.4354   -6665042.26749  -5175887.42547                  23471883.0214
        46.0004         34.5004
  23128540.9194    9752010.93149   7567213.57047                  23128542.2824
        48.0004         36.7504
  23805153.8964   -4923153.79349  -3832528.44747                  23805155.4854
        44.0004         32.0004
 02  7  1 15 46 45.0010000  0  8G 6G10G15G17G23G18G30G29
  20655250.5754    -767030.29049   -584577.56948                  20655249.2164
        50.0004         43.5004
  22847759.6924    7614989.29649   5914694.26947                  22847760.3134
        46.2504         39.2504
  22241510.6924   -5870007.30849  -4542816.92148                  22241510.6184
        47.2504         39.5004
  21658901.6464   -3931602.01849  -3038662.07548                  21658901.5404
        49.7504         43.7504
  21120235.2634    -954863.61449   -728017.19948                  21120234.6814
        50.7504         44.2504
  23464000.1854   -6706470.21249  -5208168.90547                  23463999.6424
        46.7504         34.7504
  23140215.0834    9813357.34549   7615015.92347                  23140215.5954
        47.7504         36.5004
  23801775.7474   -4940906.31649  -3846361.52947                  23801776.9744
        40.7504         32.5004
 02  7  1 15 47  0.0010000  0  8G 6G10G15G17G23G18G30G29
  20656966.7554    -758011.33149   -577549.79448                  20656965.3134
        49.7504         43.0004
  22857959.4974    7668588.42449   5956459.80547                  22857960.1814
        45.2504         39.0004
  22237471.8254   -5891229.74049  -4559353.86948                  22237472.3494
        47.2504         39.5004
  21656819.7784   -3942543.44549  -3047187.85848                  21656819.5444
        49.7504         43.5004
  21122498.6614    -942971.01249   -718750.24148                  21122497.7864
        50.7504         44.2504
  23456133.0284   -6747811.24349  -5240382.66447                  23456132.4384
        46.0004         35.2504
  23151903.5914    9874781.14849   7662878.59147                  23151903.9814
        48.0004         36.7504
  23798420.4194   -4958537.76949  -3860100.29147                  23798421.5214
        43.0004         31.5004
 02  7  1 15 47 15.0010000  0  8G 6G10G15G17G23G18G30G29
  20658708.1534    -748860.01449   -570418.90048                  20658707.1854
        50.0004         43.5004
  22868180.2714    7722298.88849   5998312.09247                  22868180.5954
        46.5004         38.5004
  22233450.0834   -5912366.68249  -4575824.19448                  22233450.5604
        45.5004         39.5004
  21654753.8884   -3953399.87549  -3055647.41248                  21654753.5364
        49.2504         43.2504
  21124792.0914    -930918.24549   -709358.46548                  21124791.2824
        51.2504         44.2504
  23448282.0994   -6789069.45549  -5272531.87547                  23448281.9624
        45.5004         34.5004
  23163606.0444    9936277.65149   7710797.91147                  23163607.1264
        48.0004         36.5004
  23795087.6144   -4976052.16149  -3873747.84447                  23795088.5634
        41.5004         31.2504
 02  7  1 15 47 30.0010000  0  8G 6G10G15G17G23G18G30G29
  20660475.2164    -739574.03849   -563183.06948                  20660474.2124
        49.7504         43.5004
  22878422.7084    7776122.57849   6040252.61047                  22878422.5214
        46.5004         38.5004
  22229444.2864   -5933416.03049  -4592226.27347                  22229444.4894
        46.5004         39.2504
  21652704.4504   -3964169.16449  -3064039.05148                  21652703.8844
        49.5004         43.2504
  21127116.5444    -918703.19949   -699840.23448                  21127115.7824
        51.0004         44.5004
  23440446.7084   -6830242.34949  -5304614.60947                  23440446.2314
        45.5004         35.0004
  23175322.5524    9997848.60349   7758775.23947                  23175323.2784
        48.0004         36.7504
  23791777.5834   -4993447.12949  -3887302.32147                  23791778.5954
        42.0004         31.2504
 02  7  1 15 47 45.0010000  0  8G 6G10G15G17G23G18G30G29
  20662267.9034    -730152.63049   -555841.72048                  20662267.5284
        49.5004         43.2504
  22888686.4424    7830059.67749   6082281.50347                  22888686.8684
        45.5004         39.2504
  22225455.8494   -5954376.98349  -4608559.46748                  22225455.9854
        48.0004         40.0004
  21650671.8254   -3974850.62749  -3072362.26248                  21650671.4854
        50.0004         43.0004
  21129472.1694    -906325.40949   -690195.20248                  21129471.3964
        51.0004         44.0004
  23432627.8804   -6871329.15249  -5336630.26447                  23432627.9544
        46.2504         34.7504
  23187053.2784   10059494.37849   7806810.85847                  23187053.8724
        47.5004         36.5004
  23788489.6144   -5010721.71049  -3900762.99547                  23788490.9034
        43.0004         32.2504
 02  7  1 15 48  0.0010000  0  8G 6G10G15G17G23G18G30G29
  20664085.7714    -720599.46549   -548397.68548                  20664084.8494
        49.7504         43.5004
  22898971.4974    7884106.05749   6124395.54047                  22898971.6814
        47.2504         38.7504
  22221483.0604   -5975253.41649  -4624826.81248                  22221482.7514
        48.0004         39.7504
  21648655.2864   -3985448.16249  -3080620.07448                  21648654.5564
        50.0004         43.0004
  21131857.6464    -893788.65749   -680426.29848                  21131857.2284
        50.7504         44.2504
  23424825.3414   -6912333.25549  -5368581.48047                  23424825.1344
        46.5004         35.2504
  23198797.7314   10121210.85449   7854901.57547                  23198798.8064
        48.0004         37.0004
  23785225.3724   -5027879.25649  -3914132.48447                  23785225.6494
        42.5004         32.2504
 02  7  1 15 48 15.0010000  0  8G 6G10G15G17G23G18G30G29
  20665929.2634    -710912.83849   -540849.67148                  20665928.5484
        49.7504         43.2504
  22909276.4504    7938262.98549   6166595.72747                  22909277.1774
        46.0004         38.7504
  22217526.9744   -5996043.67449  -4641027.00048                  22217527.2554
        47.2504         40.2504
  21646654.8254   -3995960.13649  -3088811.20648                  21646654.3764
        50.0004         43.7504
  21134273.9114    -881091.45349   -670532.36648                  21134273.0604
        51.0004         44.0004
  23417038.5914   -6953252.83649  -5400466.83047                  23417037.9664
        46.0004         34.7504
  23210555.8964   10182999.15349   7903048.27147                  23210556.6264
        47.5004         35.7504
  23781982.1534   -5044917.88249  -3927409.31147                  23781983.4744
        42.7504         32.7504
 02  7  1 15 48 30.0010000  0  8G 6G10G15G17G23G18G30G29
  20667797.7394    -701093.11249   -533197.92948                  20667796.7434
        49.5004         43.5004
  22919603.9114    7992529.60549   6208881.38447                  22919603.5564
        47.5004         38.2504
  22213586.7784   -6016748.11049  -4657160.31048                  22213587.0834
        46.7504         39.7504
  21644670.5134   -4006386.98149  -3096936.01148                  21644670.2474
        49.0004         44.0004
  21136720.2944    -868234.37849   -660513.86048                  21136719.3494
        51.0004         44.0004
  23409267.9354   -6994088.06349  -5432286.44247                  23409267.3134
        45.2504         35.0004
  23222327.3104   10244858.41149   7951250.25847                  23222327.8024
        47.0004         36.2504
  23778763.2634   -5061837.68149  -3940593.52747                  23778764.1734
        43.2504         32.0004
 02  7  1 15 48 45.0010000  0  8G 6G10G15G17G23G18G30G29
  20669692.0134    -691138.89249   -525441.40448                  20669691.2044
        49.7504         43.7504
  22929951.1224    8046906.72449   6251253.15447                  22929951.4784
        46.0004         38.2504
  22209663.6064   -6037365.53449  -4673225.82648                  22209663.6384
        47.5004         39.5004
  21642702.7634   -4016727.59349  -3104993.63148                  21642702.3414
        49.5004         44.0004
  21139197.7084    -855216.32349   -650369.91348                  21139196.9234
        50.5004         44.2504
  23401513.1694   -7034837.46449  -5464039.19747                  23401513.1884
        44.7504         35.0004
  23234111.8564   10306789.55749   7999508.24147                  23234113.0634
        46.5004         36.0004
  23775566.3174   -5078637.24149  -3953684.08047                  23775566.9504
        42.7504         32.0004
 02  7  1 15 49  0.0010000  0  8G 6G10G15G17G23G18G30G29
  20671611.5444    -681052.00649   -517581.48848                  20671610.5134
        51.2504         43.5004
  22940319.2314    8101392.13749   6293709.28247                  22940319.5324
        47.0004         38.5004
  22205756.3564   -6057897.89149  -4689225.04748                  22205756.6144
        47.7504         40.0004
  21640751.1224   -4026983.86549  -3112985.51448                  21640750.6064
        50.0004         43.5004
  21141705.1614    -842039.32549   -640102.11648                  21141704.7394
        51.7504         44.2504
  23393774.7164   -7075502.69249  -5495726.35147                  23393774.4194
        46.0004         35.2504
  23245910.0754   10368790.28249   8047820.45647                  23245911.7634
        46.7504         36.0004
  23772392.2714   -5095318.16249  -3966682.15047                  23772392.9464
        43.5004         32.2504
 02  7  1 15 49 15.0010000  0  8G 6G10G15G17G23G18G30G29
  20673555.9744    -670834.17149   -509619.54248                  20673555.0444
        50.5004         43.2504
  22950707.6064    8155983.62049   6336248.09747                  22950707.9584
        47.5004         38.5004
  22201865.2314   -6078347.00549  -4705159.41148                  22201864.8684
        46.5004         40.0004
  21638815.1464   -4037157.66949  -3120913.15448                  21638814.6464
        49.5004         43.7504
  21144242.4814    -828705.35049   -629711.99848                  21144241.7824
        51.7504         44.5004
  23386052.4194   -7116085.32049  -5527349.13847                  23386051.9584
        45.5004         35.5004
  23257721.6534   10430858.39449   8096185.16247                  23257722.9424
        46.5004         36.0004
  23769239.4894   -5111881.88249  -3979588.93247                  23769240.5054
        43.0004         32.5004
 02  7  1 15 49 30.0010000  0  8G 6G10G15G17G23G18G30G29
  20675526.0524    -660481.84649   -501552.79648                  20675525.1064
        50.0004         43.5004
  22961116.9894    8210684.18049   6378871.88647                  22961117.3724
        45.2504         38.2504
  22197990.1534   -6098709.50149  -4721026.28748                  22197990.0564
        47.2504         40.5004
  21636895.4974   -4047245.72449  -3128773.96648                  21636895.4384
        50.0004         43.5004
  21146810.3024    -815211.05349   -619196.95348                  21146809.4584
        52.0004         44.0004
  23378345.6854   -7156581.76249  -5558904.76947                  23378346.1064
        45.0004         35.5004
  23269545.9974   10492996.66449   8144604.56547                  23269547.3884
        46.5004         35.0004
  23766110.3174   -5128324.83849  -3992401.60147                  23766111.3604
        44.0004         31.2504
 02  7  1 15 49 45.0010000  0  8G 6G10G15G17G23G18G30G29
  20677519.9584    -650003.03549   -493387.48048                  20677519.3064
        50.0004         43.2504
  22971545.6224    8265485.45949   6421574.14247                  22971545.1924
        45.7504         38.5004
  22194130.4504   -6118993.47149  -4736831.97748                  22194130.2514
        47.0004         39.7504
  21634990.4354   -4057256.12149  -3136574.26948                  21634990.4154
        49.7504         43.2504
  21149407.2634    -801564.69949   -608563.43748                  21149406.3454
        51.0004         44.2504
  23370654.7394   -7196999.86449  -5590399.35747                  23370654.4854
        45.2504         35.0004
  23281382.3104   10555196.88649   8193072.22247                  23281383.8064
        46.5004         35.2504
  23763003.2394   -5144654.75349  -4005126.18347                  23763004.1574
        41.5004         32.5004
 02  7  1 15 50  0.0010000  0  8G 6G10G15G17G23G18G30G29
  20679539.8024    -639389.66249   -485117.32048                  20679538.7714
        50.0004         43.5004
  22981994.2164    8320394.99449   6464360.77847                  22981994.8494
        45.5004         38.2504
  22190286.9114   -6139190.94549  -4752570.23848                  22190286.5954
        47.7504         40.0004
  21633101.6464   -4067180.93149  -3144307.86948                  21633101.8294
        49.7504         43.5004
  21152034.5054    -787758.47049   -597805.32348                  21152033.3064
        51.2504         44.5004
  23362979.6144   -7237331.38449  -5621826.48247                  23362979.8534
        45.0004         35.5004
  23293232.1304   10617466.46549   8241593.93547                  23293233.2554
        47.5004         34.7504
  23759918.9034   -5160863.36749  -4017756.25547                  23759919.9744
        44.2504         32.5004
 02  7  1 15 50 15.0010000  0  8G 6G10G15G17G23G18G30G29
  20681583.9504    -628646.49649   -476746.01948                  20681582.6574
        50.2504         43.2504
  22992463.0524    8375407.58049   6507227.70347                  22992462.9544
        47.0004         38.2504
  22186458.6384   -6159306.69749  -4768244.84848                  22186458.7904
        47.0004         40.2504
  21631228.8334   -4077024.92849  -3151978.52448                  21631228.1224
        50.2504         43.5004
  21154691.3024    -773797.34649   -586926.53248                  21154690.2744
        51.7504         44.5004
  23355320.4894   -7277580.94349  -5653189.73647                  23355320.0954
        47.0004         35.7504
  23305093.2784   10679800.35949   8290165.74947                  23305094.6734
        47.0004         34.7504
  23756857.2394   -5176955.22749  -4030295.35147                  23756857.4894
        43.7504         32.0004
 02  7  1 15 50 30.0010000  0  8G 6G10G15G17G23G18G30G29
  20683653.0604    -617773.08049   -468273.23548                  20683652.0324
        50.5004         43.5004
  23002951.0754    8430523.15749   6550174.88747                  23002951.2744
        45.7504         38.0004
  22182646.4274   -6179340.43649  -4783855.54448                  22182646.3254
        47.7504         40.7504
  21629370.5674   -4086787.92049  -3159586.03448                  21629370.5444
        49.2504         43.7504
  21157377.5214    -759681.04649   -575926.80248                  21157376.9504
        51.5004         44.7504
  23347677.0444   -7317747.79149  -5684488.55647                  23347676.8844
        45.0004         36.0004
  23316967.6224   10742198.41549   8338787.58447                  23316968.7474
        47.5004         34.7504
  23753817.4274   -5192929.64449  -4042742.91247                  23753817.8024
        44.7504         32.2504
 02  7  1 15 50 45.0010000  0  8G 6G10G15G17G23G18G30G29
  20685747.9894    -606765.05549   -459695.54748                  20685746.6264
        50.0004         43.2504
  23013459.8104    8485745.62349   6593205.35447                  23013459.7554
        46.0004         38.0004
  22178850.8024   -6199287.96649  -4799399.06048                  22178850.9664
        47.0004         40.5004
  21627528.8964   -4096465.59649  -3167127.07948                  21627528.5054
        49.0004         43.7504
  21160093.9974    -745405.41849   -564802.93348                  21160093.5834
        51.5004         44.7504
  23340050.6224   -7357827.44249  -5715719.41947                  23340049.8534
        45.7504         36.0004
  23328854.9744   10804664.52249   8387462.41447                  23328856.0404
        47.0004         35.2504
  23750799.9114   -5208782.10449  -4055095.47247                  23750801.3884
        45.0004         32.7504
 02  7  1 15 51  0.0010000  0  8G 6G10G15G17G23G18G30G29
  20687867.1384    -595627.94549   -451017.28048                  20687866.3604
        50.0004         43.5004
  23023987.5524    8541069.04749   6636314.48547                  23023987.5324
        45.7504         38.2504
  22175070.1774   -6219154.84449  -4814879.73648                  22175070.1574
        47.0004         40.7504
  21625702.8104   -4106063.64549  -3174606.06748                  21625702.2244
        49.0004         44.0004
  21162839.6924    -730976.20949   -553559.39448                  21162838.4464
        52.0004         44.5004
  23332438.9194   -7397825.31149  -5746886.56547                  23332438.4584
        45.2504         35.7504
  23340753.4664   10867192.74349   8436185.66647                  23340754.0244
        47.5004         34.5004
  23747805.6694   -5224517.79649  -4067357.01647                  23747807.0324
        43.2504         32.7504
 02  7  1 15 51 15.0010000  0  8G 6G10G15G17G23G18G30G29
  20690011.2314    -584360.81649   -442237.69548                  20690010.3884
        50.5004         43.5004
  23034534.7394    8596493.82749   6679502.60747                  23034534.6694
        46.2504         37.7504
  22171304.9894   -6238940.28249  -4830296.93648                  22171304.9784
        48.0004         40.0004
  21623891.4894   -4115581.25749  -3182022.38448                  21623891.1574
        49.5004         43.7504
  21165614.9584    -716392.80349   -542195.69548                  21165614.5094
        51.7504         44.5004
  23324842.9424   -7437740.46349  -5777989.23447                  23324842.9704
        45.2504         35.5004
  23352664.2634   10929783.41449   8484957.56947                  23352664.9154
        47.0004         34.7504
  23744833.1144   -5240135.87549  -4079526.93247                  23744834.8804
        44.5004         32.5004
 02  7  1 15 51 30.0010000  0  8G 6G10G15G17G23G18G30G29
  20692179.9664    -572963.80049   -433356.90148                  20692179.1614
        50.2504         44.0004
  23045100.5674    8652019.25049   6722769.16147                  23045100.9664
        46.5004         37.2504
  22167555.6144   -6258644.53649  -4845650.89548                  22167555.1344
        47.2504         40.0004
  21622095.6534   -4125018.85949  -3189376.34648                  21622095.4074
        49.5004         43.7504
  21168419.0674    -701655.56549   -530712.11448                  21168418.4274
        51.7504         44.7504
  23317263.4194   -7477572.81349  -5809027.40647                  23317263.0564
        46.2504         35.7504
  23364586.4894   10992435.87849   8533777.63347                  23364587.8104
        47.0004         34.5004
  23741883.6614   -5255636.20849  -4091605.08647                  23741885.1884
        44.2504         32.2504
 02  7  1 15 51 45.0010000  0  8G 6G10G15G17G23G18G30G29
  20694374.3024    -561432.37449   -424371.38248                  20694373.8534
        50.2504         44.2504
  23055686.7084    8707649.41849   6766117.30547                  23055686.8924
        46.7504         37.5004
  22163822.1534   -6278263.17449  -4860938.14048                  22163822.2434
        47.5004         40.2504
  21620315.9034   -4134371.96349  -3196664.48248                  21620315.2474
        49.5004         43.5004
  21171253.8724    -686760.24149   -519105.37648                  21171253.3644
        51.0004         44.2504
  23309699.7864   -7517317.69249  -5839997.42547                  23309699.9384
        45.5004         35.5004
  23376521.2244   11055154.18749   8582648.99747                  23376522.7674
        46.5004         34.0004
  23738957.9584   -5271014.15349  -4103587.87847                  23738958.5404
        44.2504         32.2504
 02  7  1 15 52  0.0010000  0  8G 6G10G15G17G23G18G30G29
  20696593.7244    -549770.77249   -415284.42348                  20696592.6884
        51.2504         43.7504
  23066292.0604    8763379.61649   6809543.41347                  23066292.0794
        47.2504         37.2504
  22160104.1384   -6297800.65749  -4876162.13948                  22160104.4074
        48.5004         40.2504
  21618551.2244   -4143644.96249  -3203890.19248                  21618550.8174
        50.5004         43.5004
  21174117.6534    -671711.31749   -507378.93748                  21174116.6774
        51.2504         44.2504
  23302153.1614   -7556979.33349  -5870902.56847                  23302152.3604
        46.5004         35.7504
  23388467.9744   11117933.59849   8631567.95547                  23388469.0484
        46.5004         33.7504
  23736053.6144   -5286273.58049  -4115478.33347                  23736054.4034
        43.5004         32.0004
 02  7  1 15 52 15.0010000  0  8G 6G10G15G17G23G18G30G29
  20698837.3964    -537979.35049   -406096.30848                  20698836.6534
        51.5004         44.2504
  23076915.8884    8819209.09849   6853046.88447                  23076916.1384
        46.5004         37.5004
  22156402.0134   -6317257.33649  -4891323.18148                  22156401.8254
        48.5004         40.5004
  21616801.5444   -4152838.38449  -3211053.88648                  21616801.2164
        49.5004         43.5004
  21177010.3254    -656509.34449   -495533.24248                  21177009.9854
        51.2504         44.2504
  23294621.1064   -7596557.66449  -5901742.80347                  23294620.9744
        45.0004         36.0004
  23400425.9034   11180773.31049   8680533.91647                  23400427.3414
        46.2504         34.2504
  23733172.7244   -5301414.62849  -4127276.52847                  23733173.8644
        43.0004         32.7504
 02  7  1 15 52 30.0010000  0  8G 6G10G15G17G23G18G30G29
  20701106.5674    -526055.64349   -396805.11248                  20701105.4854
        51.0004         43.7504
  23087559.0364    8875139.88149   6896629.28747                  23087559.1734
        46.5004         37.7504
  22152715.1534   -6336630.80149  -4906419.36348                  22152714.8994
        47.5004         40.2504
  21615067.8644   -4161949.85849  -3218153.73148                  21615067.5484
        50.5004         44.0004
  21179932.8024    -641152.05349   -483566.51748                  21179932.1304
        51.0004         44.2504
  23287105.8724   -7636050.13049  -5932516.11847                  23287105.2434
        46.5004         36.0004
  23412396.0994   11243675.29649   8729548.41347                  23412397.0834
        47.0004         33.5004
  23730314.4974   -5316434.85749  -4138980.57647                  23730315.4314
        43.0004         32.7504
 02  7  1 15 52 45.0010000  0  8G 6G10G15G17G23G18G30G29
  20703399.9974    -514002.73649   -387413.23548                  20703399.0404
        51.2504         43.5004
  23098221.0444    8931168.30549   6940287.78847                  23098221.3414
        47.0004         37.2504
  22149043.4274   -6355924.31349  -4921453.25848                  22149043.5604
        48.2504         40.7504
  21613348.8724   -4170982.64449  -3225192.26648                  21613348.5914
        49.2504         43.5004
  21182883.9664    -625642.89949   -471481.46448                  21182883.2434
        51.2504         44.5004
  23279606.5994   -7675459.83549  -5963224.94847                  23279606.2554
        45.5004         36.0004
  23424377.0284   11306636.01349   8778608.66247                  23424378.2164
        46.5004         34.0004
  23727478.7084   -5331336.99049  -4150592.61547                  23727479.8964
        43.7504         33.0004
 02  7  1 15 53  0.0010000  0  8G 6G10G15G17G23G18G30G29
  20705718.6614    -501818.22449   -377918.80748                  20705717.7434
        51.5004         43.7504
  23108902.0214    8987296.34249   6984023.89647                  23108901.9974
        46.0004         37.7504
  22145387.5674   -6375135.54749  -4936423.03948                  22145388.3064
        48.0004         40.2504
  21611645.3024   -4179934.42449  -3232167.66048                  21611645.1694
        50.2504         43.2504
  21185864.6224    -609979.63649   -459276.31448                  21185863.9234
        51.7504         44.0004
  23272123.1224   -7714784.16449  -5993867.25947                  23272123.0714
        47.0004         36.0004
  23436369.1464   11369657.20249   8827716.02847                  23436370.3454
        47.0004         34.0004
  23724665.7164   -5346118.61649  -4162110.74047                  23724666.7554
        43.5004         33.2504
 02  7  1 15 53 15.0010000  0  8G 6G10G15G17G23G18G30G29
  20708061.4274    -489507.01049   -368325.65948                  20708060.7744
        51.5004         43.7504
  23119600.7394    9043518.61849   7027833.43847                  23119600.8414
        46.0004         37.2504
  22141746.6614   -6394269.41849  -4951332.53448                  22141746.5174
        48.5004         40.0004
  21609956.9034   -4188810.28349  -3239083.91248                  21609956.3884
        50.0004         43.7504
  21188873.5834    -594167.36249   -446955.06448                  21188872.7634
        51.7504         44.2504
  23264655.2784   -7754027.92049  -6024446.79447                  23264655.1734
        47.7504         36.2504
  23448372.7084   11432733.66849   8876866.48947                  23448373.6424
        46.2504         33.5004
  23721874.8174   -5360784.41849  -4173538.62547                  23721875.1654
        43.7504         32.2504
 02  7  1 15 53 30.0010000  0  8G 6G10G15G17G23G18G30G29
  20710429.0994    -477064.46249   -358630.16448                  20710428.1344
        51.0004         43.5004
  23130318.3104    9099839.35649   7071719.70947                  23130318.4894
        45.5004         37.5004
  22138121.3254   -6413321.37349  -4966178.19248                  22138121.2474
        48.5004         40.5004
  21608282.8964   -4197605.54649  -3245937.36648                  21608282.2864
        49.5004         43.7504
  21191912.0054    -578201.67849   -434514.27248                  21191911.3494
        51.7504         44.5004
  23257203.6854   -7793186.16549  -6054959.69847                  23257203.2864
        46.2504         36.0004
  23460387.2784   11495869.60549   8926063.25547                  23460387.9624
        46.0004         34.0004
  23719107.5994   -5375329.40849  -4184872.36347                  23719107.7004
        44.7504         32.2504
 02  7  1 15 53 45.0010000  0  8G 6G10G15G17G23G18G30G29
  20712822.3254    -464488.10249   -348830.40848                  20712821.6034
        51.2504         43.7504
  23141054.5754    9156260.55449   7115684.24047                  23141054.7434
        45.2504         37.5004
  22134511.8414   -6432289.07849  -4980958.22648                  22134511.4814
        48.0004         40.5004
  21606624.8884   -4206318.14249  -3252726.38748                  21606624.6344
        50.0004         43.7504
  21194979.6384    -562080.35849   -421952.19948                  21194978.4664
        51.5004         44.5004
  23249769.2554   -7832256.16549  -6085403.83147                  23249768.6734
        47.5004         36.2504
  23472413.5054   11559066.87949   8975307.86947                  23472414.3024
        46.7504         33.5004
  23716362.7164   -5389751.01649  -4196109.94447                  23716363.5094
        43.5004         32.2504
 02  7  1 15 54  0.0010000  0  8G 6G10G15G17G23G18G30G29
  20715241.3564    -451776.99949   -338925.64948                  20715240.4424
        51.7504         43.7504
  23151810.5284    9212782.57649   7159727.36247                  23151810.0324
        46.0004         36.7504
  22130918.5914   -6451171.68849  -4995671.94048                  22130918.4744
        48.7504         40.5004
  21604982.8494   -4214947.08349  -3259450.24048                  21604982.2984
        50.2504         44.0004
  21198076.9274    -545802.69149   -409268.29648                  21198076.1224
        51.0004         44.2504
  23242351.2714   -7871236.97649  -6115778.46047                  23242350.8414
        48.0004         36.7504
  23484451.5524   11622326.01849   9024600.65647                  23484452.0834
        47.0004         33.0004
  23713642.0524   -5404048.02249  -4207250.47347                  23713643.0874
        42.5004         32.5004
 02  7  1 15 54 15.0010000  0  8G 6G10G15G17G23G18G30G29
  20717685.5994    -438932.19549   -328916.71948                  20717684.7594
        51.7504         44.0004
  23162584.9034    9269404.06049   7203847.97247                  23162585.0564
        46.0004         37.2504
  22127341.1534   -6469970.39949  -5010320.27448                  22127341.1064
        48.5004         40.2504
  21603356.4664   -4223493.62449  -3266109.87448                  21603355.6924
        50.0004         43.7504
  21201204.1694    -529370.06549   -396463.65848                  21201203.0404
        50.5004         44.0004
  23234950.4274   -7910129.62749  -6146084.41047                  23234949.7164
        46.5004         36.7504
  23496499.8494   11685645.40149   9073940.38247                  23496501.3724
        47.0004         33.2504
  23710945.6384   -5418221.38549  -4218294.62947                  23710945.9314
        41.2504         33.0004
 02  7  1 15 54 30.0010000  0  8G 6G10G15G17G23G18G30G29
  20720154.4274    -425957.78049   -318806.79648                  20720153.3684
        52.0004         43.7504
  23173377.8804    9326120.36049   7248042.46047                  23173377.6614
        46.0004         37.0004
  22123779.4584   -6488689.40449  -5024906.50248                  22123779.4504
        47.7504         40.7504
  21601744.8724   -4231961.91249  -3272708.54148                  21601744.3764
        49.5004         43.7504
  21204359.8564    -512786.76749   -383541.60548                  21204359.0674
        51.5004         44.0004
  23227565.7474   -7948937.94649  -6176324.64147                  23227564.6464
        47.5004         36.5004
  23508560.0674   11749020.57949   9123323.58447                  23508561.0604
        46.5004         33.0004
  23708270.2714   -5432275.02149  -4229245.51347                  23708271.3804
        44.5004         32.2504
 02  7  1 15 54 45.0010000  0  8G 6G10G15G17G23G18G30G29
  20722649.0674    -412848.55549   -308591.82248                  20722648.2394
        51.5004         43.7504
  23184189.8564    9382936.22349   7292314.53147                  23184189.5444
        46.7504         37.5004
  22120233.1614   -6507323.54749  -5039426.60048                  22120232.7164
        48.2504         40.5004
  21600149.0674   -4240347.08149  -3279242.43648                  21600148.6884
        50.5004         44.0004
  21207544.9664    -496047.81749   -370498.26948                  21207543.9114
        51.5004         44.0004
  23220197.1064   -7987656.61549  -6206495.02047                  23220196.7354
        47.5004         36.7504
  23520631.6924   11812456.18349   9172753.87747                  23520632.7594
        47.0004         33.5004
  23705620.4114   -5446203.48249  -4240098.84547                  23705621.1264
        44.0004         31.5004
 02  7  1 15 55  0.0010000  0  8G 6G10G15G17G23G18G30G29
  20725169.6064    -399603.69149   -298271.14448                  20725168.8804
        51.2504         44.0004
  23195020.2554    9439852.11549   7336664.55447                  23195020.6654
        45.7504         37.2504
  22116703.9424   -6525872.08649  -5053880.00448                  22116703.6034
        48.0004         41.0004
  21598569.5214   -4248648.21449  -3285710.85248                  21598569.3024
        50.5004         44.0004
  21210760.5054    -479152.58649   -357333.14848                  21210759.2984
        52.2504         44.2504
  23212846.8414   -8026284.61549  -6236594.73247                  23212846.3064
        47.5004         37.0004
  23532714.5914   11875952.56849   9222231.53547                  23532715.8884
        46.2504         33.2504
  23702993.6614   -5460005.76849  -4250853.85947                  23702994.1734
        44.2504         32.5004
 02  7  1 15 55 15.0010000  0  8G 6G10G15G17G23G18G30G29
  20727715.4034    -386224.72449   -287845.97348                  20727714.5604
        52.0004         44.2504
  23205869.8804    9496865.95449   7381090.90847                  23205869.9424
        46.2504         36.0004
  22113190.1694   -6544336.62349  -5068267.93348                  22113189.5834
        48.2504         40.7504
  21597005.6224   -4256867.12349  -3292115.18448                  21597005.3644
        50.0004         44.2504
  21214004.4354    -462102.88849   -344047.66448                  21214004.1614
        51.0004         44.0004
  23205512.8804   -8064823.30749  -6266624.85747                  23205512.2714
        47.5004         37.0004
  23544808.6304   11939507.75649   9271755.00747                  23544809.9744
        46.0004         33.5004
  23700390.8804   -5473683.20649  -4261511.59047                  23700391.5014
        44.0004         32.5004
 02  7  1 15 55 30.0010000  0  8G 6G10G15G17G23G18G30G29
  20730287.2394    -372709.49649   -277314.62648                  20730286.3764
        51.5004         43.7504
  23216738.1144    9553979.44849   7425594.89847                  23216738.1574
        47.2504         36.2504
  22109692.5444   -6562715.13949  -5082588.84648                  22109692.7434
        49.0004         40.5004
  21595457.6304   -4265001.62549  -3298453.75248                  21595457.2714
        50.5004         43.0004
  21217278.6614    -444896.76349   -330640.28248                  21217277.7124
        52.2504         44.2504
  23198196.4424   -8103270.40749  -6296583.62747                  23198196.2244
        47.7504         37.0004
  23556914.8884   12003123.41149   9321325.60547                  23556915.9544
        45.7504         33.5004
  23697812.5134   -5487233.46949  -4272070.21747                  23697812.9114
        45.0004         33.2504
 02  7  1 15 55 45.0020000  0  8G 6G10G15G17G23G18G30G29
  20732884.3224    -359060.91749   -266679.37948                  20732883.3304
        52.0004         43.7504
  23227624.8694    9611192.11649   7470176.16747                  23227625.5684
        46.5004         37.2504
  22106210.6824   -6581012.89449  -5096846.82248                  22106210.8734
        48.0004         41.0004
  21593924.7914   -4273056.23349  -3304730.07348                  21593924.6434
        50.2504         43.7504
  21220582.0414    -427537.12949   -317113.30748                  21220581.4714
        51.7504         44.0004
  23190896.8694   -8141632.19849  -6326475.91347                  23190896.1154
        47.7504         36.7504
  23569031.7134   12066799.48049   9370943.27447                  23569032.9284
        46.0004         33.2504
  23695257.0104   -5500661.00949  -4282533.21447                  23695257.8074
        45.5004         33.0004
 02  7  1 15 56  0.0020000  0  8G 6G10G15G17G23G18G30G29
  20735507.1354    -345278.66649   -255939.95448                  20735506.0454
        52.2504         43.5004
  23238530.0574    9668497.93049   7514830.02647                  23238530.6354
        46.2504         36.7504
  22102745.0414   -6599225.28449  -5111038.28948                  22102744.6784
        48.5004         41.0004
  21592407.9084   -4281028.01149  -3310941.84148                  21592407.2684
        49.7504         43.5004
  21223914.8774    -410024.45649   -303467.05648                  21223914.0844
        51.5004         44.5004
  23183613.8774   -8179901.26349  -6356295.93747                  23183613.7874
        48.0004         37.0004
  23581159.4084   12130529.17849   9420602.72847                  23581160.2714
        44.5004         34.0004
  23692726.5184   -5513961.92149  -4292897.54547                  23692727.1074
        43.5004         33.0004
 02  7  1 15 56 15.0020000  0  8G 6G10G15G17G23G18G30G29
  20738155.5724    -331360.73949   -245094.82348                  20738154.7484
        52.0004         43.7504
  23249453.8544    9725901.42849   7559559.99047                  23249453.9794
        46.2504         37.0004
  22099295.0884   -6617352.57649  -5125163.44548                  22099295.2714
        48.7504         40.5004
  21590906.8614   -4288916.42549  -3317088.66348                  21590906.5804
        50.5004         43.0004
  21227276.8774    -392356.75349   -289700.02648                  21227276.0414
        51.0004         44.2504
  23176349.8544   -8218078.84649  -6386044.70147                  23176348.7014
        47.5004         37.0004
  23593298.1744   12194317.29149   9470307.69647                  23593298.7134
        45.7504         33.5004
  23690219.3384   -5527135.67449  -4303162.80647                  23690220.2564
        42.5004         33.5004
 02  7  1 15 56 30.0020000  0  8G 6G10G15G17G23G18G30G29
  20740829.4864    -317310.12949   -234146.29848                  20740828.4904
        52.2504         43.5004
  23260395.4324    9783399.17849   7604363.40647                  23260396.0924
        45.5004         37.2504
  22095861.5494   -6635397.75649  -5139224.61948                  22095861.1894
        47.7504         40.7504
  21589421.2524   -4296724.58749  -3323172.94548                  21589420.5724
        50.5004         43.2504
  21230667.8384    -374537.22049   -275814.66448                  21230667.1274
        51.5004         44.0004
  23169101.1894   -8256167.82249  -6415724.40047                  23169100.9594
        47.0004         37.2504
  23605446.7364   12258160.35849   9520055.48847                  23605448.0924
        44.7504         33.5004
  23687736.1974   -5540185.05949  -4313331.14947                  23687736.8464
        44.7504         34.0004
 02  7  1 15 56 45.0020000  0  8G 6G10G15G17G23G18G30G29
  20743528.7524    -303124.79549   -223092.80148                  20743527.7524
        52.0004         43.7504
  23271355.4084    9840992.66049   7649241.41447                  23271355.6974
        46.5004         36.5004
  22092443.4864   -6653358.88749  -5153220.29448                  22092443.4364
        48.5004         41.0004
  21587950.6114   -4304450.57949  -3329193.19048                  21587950.5844
        50.0004         43.5004
  21234088.1974    -356564.10849   -261809.64848                  21234086.9864
        51.7504         43.7504
  23161870.5884   -8294166.05249  -6445333.39347                  23161869.9364
        47.0004         37.5004
  23617606.1974   12322059.99649   9569847.37747                  23617607.9204
        44.7504         33.5004
  23685277.0254   -5553107.87949  -4323400.85047                  23685277.5104
        44.2504         33.5004
 02  7  1 15 57  0.0020000  0  8G 6G10G15G17G23G18G30G29
  20746253.8384    -288803.53849   -211933.38448                  20746253.3144
        51.7504         43.5004
  23282333.2524    9898682.74649   7694194.69747                  23282333.7874
        47.5004         37.2504
  22089041.4794   -6671234.91349  -5167149.65248                  22089041.9044
        50.0004         41.0004
  21586496.3384   -4312093.31449  -3335148.56148                  21586496.1584
        50.5004         43.5004
  21237537.3854    -338436.42549   -247684.17648                  21237536.2014
        51.2504         44.0004
  23154657.2834   -8332072.08849  -6474870.54447                  23154656.8544
        48.0004         37.2504
  23629777.2684   12386016.99549   9619683.94447                  23629778.6004
        45.2504         33.2504
  23682841.9244   -5565902.80349  -4333370.90747                  23682842.9594
        45.2504         33.5004
 02  7  1 15 57 15.0020000  0  8G 6G10G15G17G23G18G30G29
  20749005.6354    -274344.69149   -200666.75248                  20749004.4824
        51.7504         44.0004
  23293329.8384    9956470.59449   7739224.17147                  23293330.2054
        48.0004         37.0004
  22085656.9084   -6689024.28249  -5181011.49148                  22085656.6504
        49.2504         40.7504
  21585058.2364   -4319651.23349  -3341037.85848                  21585057.5494
        50.5004         44.0004
  21241016.7294    -320152.73349   -233437.14748                  21241016.0614
        51.5004         44.0004
  23147461.6044   -8369884.13849  -6504334.45547                  23147461.4984
        48.0004         37.2504
  23641958.8144   12450032.48649   9669566.09647                  23641960.1464
        44.2504         34.0004
  23680431.8854   -5578567.86749  -4343239.77947                  23680432.4904
        47.0004         33.5004
 02  7  1 15 57 30.0020000  0  8G 6G10G15G17G23G18G30G29
  20751782.7444    -259750.15349   -189294.39148                  20751781.5764
        51.7504         44.0004
  23304344.6744   10014353.92349   7784328.03747                  23304344.9714
        47.5004         36.7504
  22082287.4474   -6706728.94749  -5194807.32048                  22082287.7364
        48.7504         41.0004
  21583635.5254   -4327126.34049  -3346862.61248                  21583635.1934
        49.2504         43.5004
  21244525.4244    -301715.13549   -219070.18148                  21244524.5964
        51.5004         44.0004
  23140284.0334   -8407603.90649  -6533726.46947                  23140282.9164
        46.0004         37.0004
  23654151.3304   12514104.06449   9719491.94947                  23654152.7054
        44.5004         33.5004
  23678046.3464   -5591104.69049  -4353008.72647                  23678047.1434
        45.2504         34.2504
 02  7  1 15 57 45.0020000  0  8G 6G10G15G17G23G18G30G29
  20754585.6584    -245019.30049   -177815.81148                  20754584.9944
        51.7504         43.7504
  23315377.7364   10072332.75349   7829506.31847                  23315378.1624
        46.7504         36.5004
  22078934.9634   -6724348.48249  -5208536.82948                  22078934.6934
        49.2504         41.0004
  21582228.7364   -4334518.22949  -3352622.52048                  21582228.4944
        50.0004         43.2504
  21248062.9794    -283123.31449   -204583.05748                  21248062.5294
        51.2504         44.0004
  23133124.1504   -8445230.64649  -6563045.98647                  23133123.3814
        47.5004         37.2504
  23666354.4244   12578231.94849   9769461.65847                  23666355.8614
        44.5004         34.2504
  23675685.3144   -5603512.82549  -4362677.38047                  23675686.5964
        45.0004         34.0004
 02  7  1 15 58  0.0020000  0  8G 6G10G15G17G23G18G30G29
  20757414.5964    -230155.01549   -166233.25348                  20757413.7014
        52.7504         44.0004
  23326428.3934   10130403.87249   7874756.52347                  23326428.6154
        47.7504         37.0004
  22075597.4554   -6741885.81049  -5222202.26448                  22075597.0494
        50.0004         41.5004
  21580837.2914   -4341829.85449  -3358319.89148                  21580836.8504
        49.5004         43.2504
  21251630.1824    -264380.37049   -189978.17048                  21251629.2914
        50.7504         44.0004
  23125980.5494   -8482767.13149  -6592295.18447                  23125980.1864
        47.5004         37.2504
  23678567.7134   12642412.76249   9819472.64047                  23678568.8614
        43.5004         33.5004
  23673348.0104   -5615794.70249  -4372247.64747                  23673348.9674
        45.5004         33.5004
 02  7  1 15 58 15.0020000  0  8G 6G10G15G17G23G18G30G29
  20760268.5804    -215156.11249   -154545.79748                  20760268.0414
        52.0004         43.5004
  23337497.0884   10188567.97349   7920079.17247                  23337497.0024
        46.5004         36.7504
  22072276.1274   -6759339.77649  -5235802.74548                  22072276.0024
        49.0004         41.2504
  21579461.5494   -4349060.20649  -3363953.92248                  21579461.3074
        50.2504         43.5004
  21255225.4944    -245485.34249   -175254.75948                  21255224.4634
        51.0004         44.0004
  23118855.5644   -8520212.08349  -6621473.05347                  23118854.9084
        47.7504         37.2504
  23690791.1744   12706647.10749   9869525.32347                  23690792.9904
        44.2504         33.7504
  23671035.2524   -5627948.92549  -4381718.46947                  23671035.5064
        45.2504         34.0004
 02  7  1 15 58 30.0020000  0  8G 6G10G15G17G23G18G30G29
  20763148.8854    -200020.51549   -142751.83248                  20763147.8774
        52.2504         43.5004
  23348582.8224   10246826.74749   7965475.60347                  23348583.3344
        47.0004         37.0004
  22068971.2054   -6776708.39149  -5249336.72448                  22068971.1624
        49.5004         40.7504
  21578101.8544   -4356207.30649  -3369523.08548                  21578101.2954
        50.7504         44.2504
  21258850.3384    -226436.42549   -160411.45248                  21258849.4674
        51.2504         44.2504
  23111747.5964   -8557563.15049  -6650577.76347                  23111747.4864
        47.0004         37.7504
  23703025.6274   12770936.77749   9919621.12147                  23703026.4794
        43.0004         34.0004
  23668746.8384   -5639973.29849  -4391088.10447                  23668747.7994
        44.7504         33.5004
 02  7  1 15 58 45.0020000  0  8G 6G10G15G17G23G18G30G29
  20766055.7054    -184743.95249   -130848.02448                  20766054.9364
        51.5004         43.7504
  23359687.9394   10305184.00449   8010948.75647                  23359688.8464
        46.2504         36.5004
  22065682.6274   -6793987.50049  -5262800.95548                  22065682.7254
        49.5004         41.0004
  21576758.2684   -4363266.97749  -3375024.13548                  21576758.2524
        49.5004         44.0004
  21262505.2684    -207229.66649   -145445.14348                  21262504.6234
        51.5004         44.0004
  23104658.6664   -8594815.94949  -6679605.90247                  23104658.4904
        47.0004         37.5004
  23715270.4634   12835285.45949   9969762.91347                  23715271.6194
        42.7504         34.0004
  23666484.3074   -5651863.42749  -4400353.12447                  23666485.1044
        45.2504         34.0004
 02  7  1 15 59  0.0020000  0  8G 6G10G15G17G23G18G30G29
  20768989.3854    -169330.81649   -118837.79748                  20768988.2684
        51.2504         44.2504
  23370810.8464   10363634.83649   8056494.82447                  23370811.4944
        46.5004         36.5004
  22062410.7914   -6811181.44949  -5276198.82948                  22062410.9714
        49.2504         41.5004
  21575430.5494   -4370243.67649  -3380460.51648                  21575430.2174
        50.0004         43.5004
  21266189.3774    -187869.57649   -130359.35048                  21266188.5644
        51.5004         44.2504
  23097587.5024   -8631974.64049  -6708560.71447                  23097586.9824
        47.0004         37.5004
  23727525.8464   12899688.36349  10019946.92947                  23727527.2834
        43.2504         33.0004
  23664246.5024   -5663623.46449  -4409516.78347                  23664247.0804
        46.0004         34.7504
 02  7  1 15 59 15.0020000  0  8G 6G10G15G17G23G18G30G29
  20771947.8614    -153782.12249   -106721.92948                  20771946.7604
        52.0004         43.7504
  23381950.7834   10422177.87549   8102112.75247                  23381951.6664
        46.5004         36.5004
  22059154.6894   -6828291.37449  -5289531.22648                  22059154.9944
        49.2504         41.0004
  21574118.6664   -4377138.55649  -3385833.14148                  21574118.3424
        50.0004         44.2504
  21269902.4554    -168357.44249   -115155.09648                  21269901.7364
        51.0004         44.0004
  23090534.0644   -8669040.12249  -6737442.88647                  23090533.7294
        47.2504         37.5004
  23739791.0254   12964143.95349  10070172.00647                  23739792.8694
        43.0004         32.5004
  23662032.8774   -5675254.17349  -4418579.63547                  23662033.8734
        46.0004         33.7504
 02  7  1 15 59 30.0020000  0  8G 6G10G15G17G23G18G30G29
  20774932.9394    -138096.07349    -94499.04648                  20774931.8734
        52.5004         43.7504
  23393108.8774   10480814.38649   8147803.51247                  23393110.1824
        45.5004         36.7504
  22055915.4864   -6845315.57349  -5302796.83648                  22055915.6274
        49.2504         41.2504
  21572822.3384   -4383950.00049  -3391140.75548                  21572822.3184
        50.0004         43.7504
  21273644.7754    -148691.77249    -99831.20948                  21273643.7214
        51.2504         44.0004
  23083498.8074   -8706010.38949  -6766250.87347                  23083498.2714
        48.0004         37.2504
  23752067.2364   13028653.61649  10120439.20947                  23752068.6074
        42.0004         33.7504
  23659844.6744   -5686753.68649  -4427540.28947                  23659845.7294
        45.0004         33.7504
 02  7  1 15 59 45.0020000  0  8G 6G10G15G17G23G18G30G29
  20777943.6504    -122274.11449    -82170.24348                  20777942.5684
        52.5004         43.5004
  23404284.9324   10539542.40349   8193565.58247                  23404285.4824
        45.2504         36.0004
  22052691.6744   -6862255.72649  -5315996.93848                  22052691.7364
        49.0004         41.0004
  21571542.0724   -4390679.49949  -3396384.52348                  21571541.9124
        50.0004         43.7504
  21277416.2444    -128874.27249    -84388.98448                  21277414.8774
        50.5004         44.0004
  23076481.2294   -8742886.87349  -6794985.77147                  23076480.9714
        46.2504         37.0004
  23764352.9794   13093215.43549  10170747.07447                  23764354.8344
        41.2504         33.7504
  23657681.0334   -5698123.16449  -4436399.61647                  23657681.9634
        45.0004         33.5004
 02  7  1 16  0  0.0020000  0  8G 6G10G15G17G23G18G30G29
  20780980.9944    -106312.03049    -69732.26148                  20780980.0494
        52.5004         43.7504
  23415478.7364   10598365.82749   8239401.98147                  23415479.4474
        46.5004         36.5004
  22049485.0254   -6879107.69549  -5329128.33548                  22049484.9984
        49.2504         41.5004
  21570277.5574   -4397323.21549  -3401561.44048                  21570277.8654
        50.2504         44.0004
  21281216.6504    -108901.03149    -68825.42048                  21281215.4904
        51.2504         44.2504
  23069483.1664   -8779665.30349  -6823644.26047                  23069482.1004
        46.5004         37.2504
  23776649.4714   13157833.10349  10221098.45547                  23776650.9984
        42.7504         33.2504
  23655543.1664   -5709358.39349  -4445154.30647                  23655544.3184
        45.5004         34.0004
 02  7  1 16  0 15.0020000  0  8G 6G10G15G17G23G18G30G29
  20784044.7054     -90211.85049    -57186.68148                  20784043.6314
        52.5004         44.0004
  23426690.1744   10657282.20649   8285310.81447                  23426690.8504
        46.0004         36.7504
  22046294.6354   -6895873.57149  -5342192.65148                  22046294.5534
        49.7504         41.0004
  21569029.3224   -4403883.01949  -3406672.97948                  21569029.1074
        50.0004         44.0004
  21285046.8304     -88774.29649    -53142.26148                  21285045.7954
        51.5004         44.0004
  23062502.3464   -8816347.37349  -6852227.68347                  23062502.0884
        46.5004         37.7504
  23788956.1824   13222504.10149  10271491.37347                  23788957.4044
        42.5004         33.5004
  23653430.5024   -5720461.15349  -4453805.79247                  23653431.4474
        44.5004         33.0004
 02  7  1 16  0 30.0020000  0  8G 6G10G15G17G23G18G30G29
  20787134.6194     -73973.59649    -44533.49148                  20787133.6314
        52.0004         43.7504
  23437919.0804   10716291.07249   8331291.72247                  23437920.0254
        45.7504         36.5004
  22043120.5574   -6912553.35949  -5355189.87648                  22043120.5534
        49.5004         41.0004
  21567796.8144   -4410359.02449  -3411719.21148                  21567796.1704
        50.0004         43.2504
  21288905.8304     -68494.17849    -37339.56348                  21288904.9944
        51.7504         44.2504
  23055540.3144   -8852932.91649  -6880735.87947                  23055540.1824
        47.5004         37.5004
  23801272.1504   13287228.03249  10321925.56547                  23801273.6044
        42.7504         32.2504
  23651342.9084   -5731430.98949  -4462353.69947                  23651344.1114
        45.0004         34.0004
 02  7  1 16  0 45.0020000  0  8G 6G10G15G17G23G18G30G29
  20790250.6274     -57598.49049    -31773.67648                  20790250.0534
        51.7504         44.0004
  23449165.1974   10775390.71449   8377343.35247                  23449166.0454
        46.5004         36.7504
  22039962.5724   -6929148.37649  -5368121.04748                  22039962.7254
        49.5004         41.7504
  21566580.2914   -4416752.69049  -3416701.28948                  21566579.6824
        50.0004         43.2504
  21292794.0414     -48062.26049    -21418.60048                  21292793.3504
        51.0004         44.5004
  23048596.2994   -8889423.05949  -6909169.74147                  23048595.9164
        48.2504         37.7504
  23813598.7444   13352003.28049  10372399.69947                  23813600.2794
        42.7504         32.5004
  23649279.9634   -5742269.28349  -4470799.11647                  23649281.6934
        45.0004         34.2504
 02  7  1 16  1  0.0020000  0  8G 6G10G15G17G23G18G30G29
  20793393.4554     -41085.37449    -18906.32348                  20793392.1894
        51.7504         44.2504
  23460428.9164   10834581.82249   8423466.26847                  23460429.6894
        46.5004         36.7504
  22036821.1434   -6945657.53949  -5380985.31948                  22036820.7094
        48.7504         41.0004
  21565379.6434   -4423062.92349  -3421618.35648                  21565379.2524
        50.5004         43.5004
  21296711.0334     -27477.58249     -5378.59148                  21296710.0764
        50.7504         44.0004
  23041671.1504   -8925816.43049  -6937528.18247                  23041670.3464
        48.5004         38.0004
  23825934.8304   13416830.41349  10422914.30247                  23825936.6004
        43.5004         32.7504
  23647243.2834   -5752974.53349  -4479140.86147                  23647244.1864
        45.5004         34.0004
 02  7  1 16  1 15.0020000  0  8G 6G10G15G17G23G18G30G29
  20796561.5724     -24434.82149     -5931.86548                  20796560.8614
        52.5004         43.7504
  23471710.0104   10893863.36449   8469659.65247                  23471711.1234
        46.0004         36.7504
  22033695.6744   -6962081.56049  -5393783.23848                  22033695.6624
        49.7504         41.0004
  21564194.3464   -4429290.39649  -3426470.93248                  21564194.0574
        50.5004         43.5004
  21300657.1044      -6741.05449     10779.74248                  21300656.3184
        51.2504         44.0004
  23034763.5184   -8962113.39649  -6965811.50747                  23034763.3114
        48.2504         37.5004
  23838280.9714   13481708.41249  10473468.53247                  23838282.0804
        44.2504         32.5004
  23645231.1504   -5763547.13849  -4487379.22047                  23645232.1394
        46.0004         33.5004
 02  7  1 16  1 30.0020000  0  8G 6G10G15G17G23G18G30G29
  20799756.9794      -7642.48849      7153.05148                  20799756.7604
        52.5004         44.0004
  23483009.0104   10953239.24249   8515926.54347                  23483009.8694
        46.0004         35.7504
  22030586.9864   -6978416.09049  -5406511.44148                  22030587.2524
        50.5004         41.2504
  21563025.5644   -4435430.89549  -3431255.73248                  21563025.0884
        50.5004         43.7504
  21304632.6504      14151.45149     27059.62548                  21304631.6154
        52.2504         44.2504
  23027875.9394   -8998309.49749  -6994016.24247                  23027875.8464
        47.5004         38.0004
  23850637.5104   13546641.32249  10524065.56047                  23850638.9514
        44.2504         32.7504
  23643245.4394   -5773982.67249  -4495510.79447                  23643246.2524
        46.5004         34.0004
 02  7  1 16  1 45.0020000  0  8G 6G10G15G17G23G18G30G29
  20802979.2834       9288.62249     20346.12448                  20802978.2214
        52.7504         44.0004
  23494325.3074   11012706.09049   8562264.32547                  23494325.7294
        45.2504         35.7504
  22027495.1894   -6994664.17249  -5419172.26448                  22027494.8934
        49.2504         41.7504
  21561873.5964   -4441487.50849  -3435975.16648                  21561873.1194
        50.5004         44.0004
  21308637.7754      35196.69749     43458.50948                  21308636.9364
        52.2504         44.2504
  23021006.7834   -9034407.59949  -7022144.61447                  23021006.7564
        47.7504         38.2504
  23863003.3934   13611625.54749  10574702.56447                  23863004.9084
        45.0004         32.5004
  23641285.4004   -5784283.84449  -4503537.65847                  23641285.9364
        46.0004         33.2504
 02  7  1 16  2  0.0020000  0  8G 6G10G15G17G23G18G30G29
  20806227.2134      26356.78249     33645.98948                  20806226.1504
        52.5004         44.0004
  23505657.8074   11072261.73149   8608671.29447                  23505658.7834
        46.5004         35.5004
  22024419.1584   -7010827.65649  -5431767.18448                  22024419.2094
        49.5004         41.2504
  21560736.5254   -4447462.10249  -3440630.68448                  21560736.0924
        50.0004         43.7504
  21312671.2444      56392.66349     59974.85248                  21312670.1864
        52.2504         44.2504
  23014155.7914   -9070409.21349  -7050197.78147                  23014155.1544
        48.5004         37.7504
  23875379.0494   13676658.90649  10625377.84947                  23875380.6314
        45.0004         32.2504
  23639350.2134   -5794452.22449  -4511461.06847                  23639351.0964
        45.7504         33.5004
 02  7  1 16  2 15.0020000  0  8G 6G10G15G17G23G18G30G29
  20809501.4864      43562.97649     47053.40848                  20809500.4634
        52.0004         43.7504
  23517008.0254   11131906.70049   8655147.86047                  23517009.0574
        46.2504         35.5004
  22021359.7444   -7026905.65749  -5444295.47848                  22021359.3774
        50.2504         42.2504
  21559615.7524   -4453353.67849  -3445221.52148                  21559615.1154
        51.0004         43.0004
  21316733.1584      77740.13649     76609.23948                  21316732.5024
        52.2504         44.2504
  23007323.2364   -9106313.21049  -7078174.90447                  23007322.9794
        48.2504         37.7504
  23887763.9474   13741742.04549  10676091.91947                  23887765.5104
        45.5004         32.2504
  23637440.6274   -5804486.57149  -4519280.01647                  23637441.7604
        44.5004         34.2504
 02  7  1 16  2 30.0020000  0  8G 6G10G15G17G23G18G30G29
  20812801.8304      60906.48849     60567.82548                  20812800.8614
        51.7504         43.7504
  23528374.4944   11191639.75449   8701693.06947                  23528375.3034
        45.5004         35.0004
  22018316.6354   -7042899.03149  -5456757.84048                  22018316.4124
        50.0004         41.7504
  21558509.9634   -4459163.21749  -3449748.43948                  21558509.4284
        50.7504         43.7504
  21320824.0804      99238.13249     93360.92448                  21320823.4824
        52.0004         44.2504
  23000509.4394   -9142120.29949  -7106076.50847                  23000509.3654
        48.0004         38.0004
  23900157.7604   13806873.64749  10726843.75747                  23900159.3934
        45.5004         31.5004
  23635557.0024   -5814387.51749  -4526995.04147                  23635557.8384
        45.7504         34.2504
 02  7  1 16  2 45.0020000  0  8G 6G10G15G17G23G18G30G29
  20816128.7754      78389.12549     74190.65248                  20816127.6704
        52.0004         44.0004
  23539758.8774   11251462.27749   8748307.99647                  23539759.1044
        45.5004         35.0004
  22015289.6744   -7058806.00049  -5469152.87448                  22015289.3964
        49.7504         41.5004
  21557420.3614   -4464888.94049  -3454210.03148                  21557419.6004
        50.5004         43.7504
  21324944.4554     120888.19049    110231.10748                  21324942.9824
        51.5004         44.0004
  22993714.3694   -9177828.44649  -7133901.01047                  22993714.4164
        48.2504         38.0004
  23912561.5024   13872055.15749  10777634.49247                  23912563.0024
        45.0004         31.0004
  23633698.1504   -5824152.98049  -4534604.47347                  23633699.4364
        47.0004         34.2504
 02  7  1 16  3  0.0020000  0  8G 6G10G15G17G23G18G30G29
  20819482.2294      96012.11449     87922.84748                  20819481.6504
        51.5004         43.7504
  23551160.1504   11311375.08549   8794993.27847                  23551160.8504
        46.0004         35.5004
  22012279.2914   -7074625.50849  -5481479.75048                  22012279.1584
        49.5004         41.7504
  21556347.4794   -4470529.76849  -3458605.49048                  21556346.7364
        50.5004         44.0004
  21329093.4084     142691.31249    127220.54448                  21329092.0104
        52.0004         44.5004
  22986938.4324   -9213436.27749  -7161647.34347                  22986938.1704
        48.7504         38.5004
  23924974.4794   13937287.29049  10828464.65447                  23924976.4754
        44.5004         31.7504
  23631866.3074   -5833781.71649  -4542107.36547                  23631866.7754
        46.2504         34.0004
 02  7  1 16  3 15.0020000  0  8G 6G10G15G17G23G18G30G29
  20822861.9554     113771.66049    101761.45448                  20822860.5964
        51.5004         43.5004
  23562577.4394   11371373.97449   8841745.62747                  23562577.7254
        46.0004         34.7504
  22009284.5884   -7090361.24749  -5493741.35548                  22009285.1664
        50.2504         42.2504
  21555288.8304   -4476089.61849  -3462937.83048                  21555288.4364
        50.2504         44.0004
  21333270.3854     164643.45049    144326.10348                  21333269.7874
        52.0004         44.5004
  22980181.1824   -9248947.37149  -7189318.30747                  22980180.5414
        48.5004         39.0004
  23937397.3074   14002565.74649  10879330.93647                  23937398.8614
        44.2504         31.5004
  23630058.9864   -5843277.20449  -4549506.43647                  23630060.1894
        46.5004         34.5004
 02  7  1 16  3 30.0020000  0  8G 6G10G15G17G23G18G30G29
  20826267.4864     131670.07649    115708.26448                  20826266.9124
        51.7504         44.0004
  23574011.6044   11431460.85849   8888566.55347                  23574012.4084
        45.0004         33.5004
  22006306.6824   -7106011.02949  -5505935.97548                  22006306.6434
        50.2504         42.0004
  21554246.3074   -4481566.23149  -3467205.31948                  21554246.7644
        50.5004         44.0004
  21337476.4864     186746.65349    161549.38248                  21337475.9634
        52.0004         44.5004
  22973442.0414   -9284359.20549  -7216911.91247                  22973441.9004
        48.5004         38.0004
  23949828.8384   14067892.46349  10930234.82447                  23949830.0684
        43.7504         30.5004
  23628277.3224   -5852637.03049  -4556799.78147                  23628279.0334
        45.5004         34.5004
 02  7  1 16  3 45.0020000  0  8G 6G10G15G17G23G18G30G29
  20829699.6894     149705.51749    129761.85448                  20829698.6234
        51.7504         44.2504
  23585462.1584   11491633.42049   8935454.22447                  23585462.9364
        45.2504         34.0004
  22003344.6664   -7121576.84749  -5518065.16648                  22003344.4554
        50.0004         41.7504
  21553219.9554   -4486961.51649  -3471409.42548                  21553219.4944
        50.7504         44.2504
  21341711.0574     208998.85849    178888.75648                  21341710.2444
        52.0004         44.0004
  22966722.1584   -9319673.58649  -7244429.59847                  22966721.7914
        48.0004         38.0004
  23962268.3854   14133265.30349  10981174.63447                  23962270.0294
        43.2504         31.5004
  23626523.0724   -5861862.80649  -4563988.68847                  23626523.4984
        44.7504         34.7504
 02  7  1 16  4  0.0020000  0  8G 6G10G15G17G23G18G30G29
  20833158.6194     167882.94349    143926.07248                  20833157.9864
        51.2504         44.2504
  23596929.3774   11551896.31349   8982412.29647                  23596930.1504
        45.5004         34.0004
  22000399.3144   -7137053.72249  -5530125.06948                  22000399.2914
        49.7504         41.7504
  21552209.6504   -4492270.77349  -3475546.51148                  21552208.9944
        49.2504         44.0004
  21345974.8144     231404.72649    196347.86148                  21345973.6664
        52.0004         44.0004
  22960021.7834   -9354885.24749  -7271867.23147                  22960020.8544
        46.7504         38.7504
  23974718.3854   14198688.58449  11032153.76247                  23974719.7254
        43.5004         30.2504
  23624793.3854   -5870949.49749  -4571069.22247                  23624794.2754
        44.0004         34.2504
 02  7  1 16  4 15.0020000  0  8G 6G10G15G17G23G18G30G29
  20836644.0494     186198.86049    158198.21548                  20836643.0884
        51.5004         44.0004
  23608413.5574   11612245.51849   9029437.62247                  23608414.1864
        45.5004         34.2504
  21997470.6274   -7152445.29649  -5542118.49148                  21997470.5684
        50.0004         42.5004
  21551215.2444   -4497497.50049  -3479619.27848                  21551214.7874
        50.5004         44.0004
  21350266.7294     253960.44949    213923.74548                  21350266.0534
        51.2504         44.2504
  22953340.1584   -9389997.63449  -7299227.50347                  22953340.0494
        48.5004         39.0004
  23987176.2994   14264158.50749  11083169.20447                  23987178.0644
        43.7504         30.5004
  23623090.2054   -5879900.27949  -4578043.84347                  23623091.0644
        45.0004         34.5004
 02  7  1 16  4 30.0020000  0  8G 6G10G15G17G23G18G30G29
  20840155.6664     204653.66049    172578.57848                  20840154.8964
        51.5004         44.0004
  23619914.3934   11672681.04949   9076530.21747                  23619914.9714
        45.7504         34.7504
  21994557.8304   -7167751.22449  -5554045.17348                  21994557.7794
        49.5004         42.5004
  21550236.1744   -4502641.32149  -3483627.44148                  21550235.8384
        50.2504         44.0004
  21354587.7524     276666.22749    231616.56448                  21354586.7954
        51.5004         44.5004
  22946677.5254   -9425010.17649  -7326509.97047                  22946676.9824
        47.7504         39.0004
  23999643.8074   14329674.81349  11134220.82447                  23999645.6504
        44.0004         30.7504
  23621412.9474   -5888714.59049  -4584912.11347                  23621413.3774
        46.5004         34.2504
 02  7  1 16  4 45.0020000  0  8G 6G10G15G17G23G18G30G29
  20843693.4004     223244.00849    187064.55848                  20843692.5884
        51.7504         44.0004
  23631430.5724   11733199.12749   9123687.14647                  23631431.0334
        46.2504         35.0004
  21991661.0184   -7182974.85549  -5565907.74148                  21991660.6784
        50.5004         42.5004
  21549272.4864   -4507705.83349  -3487573.81448                  21549271.9514
        50.7504         43.7504
  21358936.3614     299518.47449    249423.50548                  21358935.6934
        51.5004         44.0004
  22940033.0574   -9459926.05349  -7353717.12447                  22940032.4474
        49.0004         39.2504
  24012119.2134   14395233.87649  11185305.74847                  24012121.4324
        44.5004         31.2504
  23619760.4004   -5897395.59949  -4591676.51247                  23619761.4084
        47.0004         34.7504
 02  7  1 16  5  0.0020000  0  8G 6G10G15G17G23G18G30G29
  20847257.2214     241971.57549    201657.46548                  20847256.4594
        51.7504         44.0004
  23642962.8544   11793800.97349   9170909.33347                  23642963.5644
        45.7504         35.0004
  21988779.9474   -7198114.60449  -5577704.93148                  21988780.1824
        49.5004         42.0004
  21548324.1504   -4512689.32149  -3491457.04148                  21548323.8384
        50.0004         43.7504
  21363312.9244     322518.63749    267345.70248                  21363312.4714
        52.2504         44.0004
  22933407.4864   -9494743.31349  -7380847.42047                  22933407.2564
        47.7504         39.2504
  24024603.9394   14460836.90749  11236424.93547                  24024605.5614
        44.2504         31.0004
  23618134.2054   -5905941.42249  -4598335.58947                  23618135.4794
        47.0004         35.0004
 02  7  1 16  5 15.0020000  0  8G 6G10G15G17G23G18G30G29
  20850846.9474     260836.11049    216357.09148                  20850845.7834
        52.2504         44.0004
  23654510.3934   11854485.96849   9218196.31747                  23654511.0804
        45.5004         35.5004
  21985915.1504   -7213170.75949  -5589437.00348                  21985914.6074
        49.5004         42.2504
  21547391.0024   -4517592.26349  -3495277.51448                  21547390.9754
        50.0004         43.7504
  21367718.0964     345666.20049    285382.76048                  21367717.0724
        52.0004         44.5004
  22926801.0024   -9529462.20449  -7407901.08047                  22926800.1004
        48.0004         39.2504
  24037096.0104   14526483.29549  11287577.90647                  24037097.5724
        44.5004         31.0004
  23616533.3384   -5914352.11449  -4604889.34747                  23616534.7094
        47.0004         34.5004
 02  7  1 16  5 30.0020000  0  7G 6G10G15G17G23G18G29
  20854463.1664     279838.90649    231164.46948                  20854462.4244
        52.2504         44.0004
  23666074.9164   11915255.02749   9265548.80947                  23666075.5804
        46.0004         35.0004
  21983065.9474   -7228142.10749  -5601102.96048                  21983065.9284
        50.5004         42.5004
  21546473.7134   -4522413.27749  -3499034.13748                  21546473.7404
        50.5004         43.7504
  21372151.1744     368962.19749    303535.49448                  21372150.2564
        51.5004         44.0004
  22920213.2134   -9564081.03949  -7434876.76547                  22920212.8654
        48.2504         39.0004
  23614959.6044   -5922626.35749  -4611336.79747                  23614960.2714
        47.0004         34.7504
 02  7  1 16  5 45.0020000  0  7G 6G10G15G17G23G18G29
  20858105.2214     298978.21749    246078.21048                  20858104.2054
        51.7504         43.7504
  23677654.4244   11976105.93849   9312965.08447                  23677655.1934
        44.5004         35.0004
  21980232.4864   -7243030.40749  -5612704.23048                  21980232.2174
        49.2504         42.0004
  21545571.3074   -4527154.33549  -3502728.46648                  21545571.6074
        50.5004         43.7504
  21376611.9554     392404.61249    321802.30048                  21376611.1704
        50.7504         44.0004
  22913644.0414   -9598601.42849  -7461775.74347                  22913643.9634
        48.2504         39.0004
  23613410.6744   -5930765.48349  -4617678.95747                  23613411.5454
        46.2504         34.5004
 02  7  1 16  6  0.0020000  0  8G 6G10G15G17G23G18G22G29
  20861773.8464     318256.46249    261100.21148                  20861772.9554
        52.5004         44.2504
  23689249.7994   12037040.69149   9360446.68647                  23689250.4004
        47.2504         35.5004
  21977415.7834   -7257833.42749  -5624239.03648                  21977415.4794
        50.5004         42.2504
  21544685.2214   -4531813.06649  -3506358.63448                  21544685.2094
        50.0004         43.7504
  21381101.0494     415995.57349    340184.86248                  21381100.4364
        51.5004         44.0004
  22907093.9794   -9633020.89249  -7488596.08047                  22907093.5534
        48.0004         39.2504
  23863947.6974     -22685.32959    -14086.40757                  23863949.6974
        40.5004         30.5004
  23611887.9324   -5938767.08949  -4623913.95747                  23611888.7604
        44.0004         34.2504
 02  7  1 16  6 15.0020000  0  8G 6G10G15G17G23G18G22G29
  20865469.0414     337674.11149    276230.83848                  20865468.0024
        52.7504         44.2504
  23700861.4944   12098059.25849   9407993.58547                  23700861.9004
        45.2504         35.2504
  21974615.1354   -7272550.76349  -5635707.08648                  21974614.7364
        49.2504         42.2504
  21543814.2054   -4536389.16549  -3509924.42048                  21543814.2914
        49.5004         43.7504
  21385618.7214     439735.32049    358683.35948                  21385617.9824
        51.5004         44.2504
  22900563.5644   -9667338.82549  -7515337.30147                  22900563.0684
        48.2504         38.7504
  23862373.1354     -30964.29849    -20537.52547                  23862374.1314
        40.7504         30.0004
  23610391.5964   -5946630.41349  -4630041.20147                  23610392.1044
        44.5004         33.0004
 02  7  1 16  6 30.0020000  0  8G 6G10G15G17G23G18G22G29
  20869190.0334     357228.46149    291467.98848                  20869188.9474
        52.2504         44.2504
  23712488.0884   12159158.69149   9455603.50847                  23712489.0684
        46.7504         35.2504
  21971830.4394   -7287185.19449  -5647110.52448                  21971830.2214
        50.5004         42.7504
  21542958.6664   -4540885.35949  -3513427.94948                  21542958.3574
        48.7504         44.0004
  21390164.0724     463620.93049    377295.52048                  21390163.3074
        51.5004         44.2504
  22894052.1274   -9701557.78449  -7542001.39247                  22894051.4904
        46.5004         39.0004
  23860827.7364     -39085.17649    -26865.47447                  23860829.0334
        43.5004         31.0004
  23608920.8464   -5954358.00449  -4636062.68247                  23608921.4084
        46.5004         33.5004
 02  7  1 16  6 45.0020000  0  8G 6G10G15G17G23G18G22G29
  20872936.7604     376917.94049    306810.44648                  20872935.7484
        52.7504         44.0004
  23724130.2444   12220336.82549   9503274.74747                  23724131.2874
        46.0004         35.0004
  21969061.0494   -7301738.25249  -5658450.55348                  21969060.8814
        50.2504         42.5004
  21542117.6894   -4545303.34949  -3516870.53148                  21542117.3654
        50.5004         44.0004
  21394736.7444     487650.56449    396019.89848                  21394736.1974
        52.0004         44.0004
  22887559.0574   -9735679.07749  -7568589.38847                  22887558.1354
        46.5004         39.2504
  23859311.8074     -47049.46949    -33071.40247                  23859313.6584
        44.5004         31.2504
  23607476.2684   -5961951.21249  -4641979.43847                  23607476.5374
        47.0004         33.5004
 02  7  1 16  7  0.0020000  0  8G 6G10G15G17G23G18G22G29
  20876710.7364     396750.70249    322264.54248                  20876709.9084
        52.0004         44.5004
  23735788.4634   12281601.44449   9551013.38947                  23735789.1664
        45.2504         35.0004
  21966308.3304   -7316201.83349  -5669720.86748                  21966308.1584
        50.0004         42.5004
  21541293.8464   -4549635.05349  -3520245.88148                  21541293.4164
        51.0004         44.0004
  21399338.2214     511832.09649    414862.64648                  21399337.5884
        51.5004         44.5004
  22881085.8144   -9769694.39649  -7595094.81147                  22881085.1234
        47.0004         38.7504
  23857827.9794     -54848.95149    -39148.89547                  23857829.1504
        43.0004         31.5004
  23606058.3614   -5969401.77249  -4647785.06847                  23606059.1504
        45.5004         34.7504
 02  7  1 16  7 15.0020000  0  8G 6G10G15G17G23G18G22G29
  20880511.0884     416722.41049    337826.88948                  20880510.3224
        52.2504         44.2504
  23747462.5494   12342947.84449   9598815.74147                  23747462.9434
        46.2504         35.5004
  21963572.6114   -7330580.42549  -5680924.95648                  21963572.2994
        50.7504         42.2504
  21540485.0334   -4553884.93749  -3523557.47948                  21540484.5574
        49.7504         44.5004
  21403967.9004     536160.94849    433820.18348                  21403966.7564
        52.0004         44.5004
  22874632.4474   -9803607.99049  -7621520.95447                  22874631.8034
        47.0004         39.0004
  23856373.7914     -62487.87649    -45101.29847                  23856375.5294
        41.2504         30.5004
  23604667.4084   -5976713.78149  -4653482.72247                  23604667.6354
        44.7504         34.0004
 02  7  1 16  7 30.0020000  0  8G 6G10G15G17G23G18G22G29
  20884338.0964     436832.47449    353497.06948                  20884337.3774
        52.0004         44.0004
  23759151.8144   12404374.96649   9646681.00747                  23759152.2754
        45.5004         34.5004
  21960852.0414   -7344874.77549  -5692063.38948                  21960852.6234
        50.2504         42.0004
  21539691.6824   -4558053.60749  -3526805.79148                  21539691.4824
        50.5004         43.7504
  21408625.2684     560636.33549    452891.90848                  21408624.4824
        52.0004         44.5004
  22868198.3464   -9837420.15349  -7647868.07147                  22868197.7644
        47.5004         38.5004
  23854951.0024     -69966.76249    -50928.97547                  23854952.5214
        42.0004         30.2504
  23603301.5884   -5983887.73749  -4659072.81047                  23603302.1744
        45.7504         34.0004
 02  7  1 16  7 45.0020000  0  8G 6G10G15G17G23G18G22G29
  20888191.1354     457079.51649    369273.98448                  20888190.0454
        52.2504         44.2504
  23770855.7444   12465881.07849   9694607.81847                  23770856.4124
        45.0004         34.0004
  21958147.7754   -7359086.20549  -5703137.21648                  21958147.8034
        50.0004         41.7504
  21538913.6274   -4562142.59149  -3529992.00148                  21538913.1664
        50.2504         44.5004
  21413310.5254     585256.61449    472076.53748                  21413310.0024
        52.5004         44.2504
  22861783.2604   -9871132.15849  -7674137.13847                  22861782.2214
        47.0004         38.7504
  23853557.5884     -77286.93949    -56632.99047                  23853558.7604
        43.5004         31.2504
  23601962.7214   -5990924.81449  -4664556.22647                  23601963.2404
        46.5004         34.0004
 02  7  1 16  8  0.0020000  0  8G 6G10G15G17G23G18G22G29
  20892070.1504     477464.25449    385158.20148                  20892069.3574
        52.0004         44.5004
  23782575.0334   12527466.35749   9742596.32147                  23782576.0574
        45.7504         33.7504
  21955459.5644   -7373214.18349  -5714146.02348                  21955459.5964
        50.7504         41.7504
  21538150.7524   -4566151.22849  -3533115.61148                  21538150.3144
        50.0004         43.5004
  21418023.4004     610022.13949    491374.34948                  21418022.7364
        50.7504         44.0004
  22855387.1664   -9904743.19949  -7700327.52047                  22855386.4794
        47.5004         38.5004
  23852194.4474     -84447.66949    -62212.76247                  23852196.5724
        44.5004         31.0004
  23600649.5334   -5997824.11649  -4669932.28847                  23600650.3504
        46.2504         33.7504
 02  7  1 16  8 15.0020000  0  8G 6G10G15G17G23G18G22G29
  20895974.8144     497983.31649    401147.06648                  20895973.7404
        52.0004         44.2504
  23794308.2684   12589127.17449   9790643.68047                  23794309.6824
        44.7504         33.2504
  21952786.1664   -7387261.88949  -5725092.27548                  21952786.0534
        50.5004         41.5004
  21537402.4084   -4570083.04349  -3536179.36148                  21537402.1234
        50.0004         44.0004
  21422763.0494     634929.44549    510782.62448                  21422762.1824
        51.7504         44.0004
  22849009.5414   -9938256.49649  -7726441.74847                  22849008.6824
        48.0004         38.5004
  23850862.4084     -91452.16749    -67670.79847                  23850863.1664
        44.5004         30.5004
  23599362.2364   -6004588.79149  -4675203.44647                  23599363.2054
        46.7504         34.2504
 02  7  1 16  8 30.0020000  0  8G 6G10G15G17G23G18G22G29
  20899905.0414     518637.77049    417241.44448                  20899904.2054
        52.2504         44.0004
  23806056.6664   12650864.15049   9838750.38847                  23806057.8504
        46.0004         33.5004
  21950128.7914   -7401228.39949  -5735975.26148                  21950128.2564
        50.7504         42.0004
  21536669.0184   -4573936.93949  -3539182.39048                  21536668.5574
        49.5004         43.7504
  21427530.1664     659979.25849    530301.96248                  21427528.8854
        51.5004         44.2504
  22842651.0024   -9971670.67349  -7752478.73747                  22842650.1584
        48.5004         39.0004
  23849558.4554     -98299.38749    -73006.29547                  23849560.0804
        45.0004         30.2504
  23598101.0574   -6011217.56549  -4680368.69547                  23598101.7834
        46.5004         34.0004
 02  7  1 16  8 45.0020000  0  8G 6G10G15G17G23G18G22G29
  20903861.1664     539427.90749    433441.55148                  20903860.8384
        51.7504         44.0004
  23817819.6664   12712677.25949   9886916.40547                  23817820.1704
        44.7504         33.5004
  21947486.2444   -7415113.50349  -5746794.80548                  21947485.7214
        51.0004         42.5004
  21535950.5804   -4577712.81549  -3542124.62048                  21535949.9674
        48.7504         43.7504
  21432323.9324     685171.66149    549932.40448                  21432322.6074
        51.2504         44.2504
  22836311.2754  -10004985.29749  -7778438.16647                  22836310.3734
        47.5004         38.5004
  23848286.5104    -104988.89749    -78218.87047                  23848287.8304
        45.0004         30.0004
  23596865.2054   -6017710.09949  -4685427.80147                  23596866.2564
        46.2504         34.0004
 02  7  1 16  9  0.0020000  0  8G 6G10G15G17G23G18G22G29
  20907843.3614     560352.95749    449746.78548                  20907842.7684
        51.5004         44.7504
  23829596.1824   12774565.16249   9935140.72347                  23829597.1864
        45.7504         33.0004
  21944859.4164   -7428918.06949  -5757551.59048                  21944859.3774
        50.5004         42.5004
  21535246.8384   -4581411.42949  -3545006.65748                  21535246.7714
        48.5004         44.0004
  21437144.7214     710505.60749    569673.13448                  21437143.8384
        50.5004         44.0004
  22829990.9324  -10038200.97449  -7804320.47247                  22829989.8074
        47.5004         38.7504
  23847043.3074    -111521.45349    -83309.14747                  23847044.1824
        44.5004         30.7504
  23595655.4324   -6024066.85549  -4690381.10047                  23595656.2444
        45.5004         34.0004
 02  7  1 16  9 15.0020000  0  8G 6G10G15G17G23G18G22G29
  20911851.0724     581415.75849    466159.33548                  20911850.4984
        52.0004         44.5004
  23841388.4004   12836530.31049   9983425.22047                  23841389.0724
        46.2504         33.5004
  21942248.1894   -7442639.32149  -5768243.46248                  21942247.8694
        50.7504         42.2504
  21534558.2914   -4585030.05849  -3547826.36848                  21534557.8964
        49.2504         44.5004
  21441992.9714     735983.62549    589526.12548                  21441992.1974
        51.5004         44.5004
  22823689.3544  -10071314.77849  -7830123.42248                  22823688.8734
        48.0004         39.5004
  23845830.4554    -117894.17149    -88274.90547                  23845831.2794
        44.2504         30.2504
  23594472.8854   -6030284.82349  -4695226.25547                  23594472.7214
        46.5004         34.0004
 02  7  1 16  9 30.0020000  0  8G 6G10G15G17G23G18G22G29
  20915886.1114     602617.95349    482680.52148                  20915885.1544
        52.0004         44.7504
  23853194.2214   12898573.98349  10031770.93447                  23853195.1274
        46.2504         34.0004
  21939653.4714   -7456275.60049  -5778869.13048                  21939653.0804
        51.0004         42.2504
  21533885.1584   -4588567.29849  -3550582.65248                  21533884.8144
        48.5004         43.5004
  21446868.8464     761607.13849    609492.49548                  21446867.8384
        50.0004         44.2504
  22817407.5334  -10104324.85149  -7855845.51848                  22817406.6744
        49.2504         39.5004
  23844648.5414    -124105.39549    -93114.80847                  23844649.0214
        44.7504         29.7504
  23593316.4164   -6036362.27249  -4699961.90247                  23593316.5334
        46.7504         34.5004
 02  7  1 16  9 45.0020000  0  8G 6G10G15G17G23G18G22G29
  20919947.1354     623959.01149    499309.90848                  20919946.0334
        52.0004         44.0004
  23865016.1824   12960695.27949  10080177.09947                  23865016.8964
        46.5004         34.5004
  21937074.5024   -7469827.47049  -5789429.02048                  21937074.1464
        50.0004         42.0004
  21533227.5104   -4592023.61549  -3553275.87948                  21533226.8574
        47.0004         44.0004
  21451772.4084     787375.35549    629571.62148                  21451771.4984
        50.0004         44.2504
  22811145.5024  -10137231.54649  -7881487.07648                  22811145.2294
        47.5004         39.5004
  23843497.2604    -130155.51849    -97829.16147                  23843497.7404
        45.0004         30.5004
  23592185.9864   -6042299.62449  -4704588.40147                  23592186.4324
        46.0004         34.2504
 02  7  1 16 10  0.0020000  0  8G 6G10G15G17G23G18G22G29
  20924034.6434     645437.59549    516046.46148                  20924034.0804
        51.7504         44.0004
  23876851.3614   13022892.44649  10128642.39147                  23876852.4944
        46.0004         35.0004
  21934511.3384   -7483296.40649  -5799924.27948                  21934511.4244
        50.0004         42.2504
  21532584.8694   -4595400.41549  -3555907.15048                  21532584.3574
        47.0004         43.7504
  21456703.3074     813286.69149    649762.26448                  21456701.9944
        50.0004         44.0004
  22804903.2994  -10170036.09149  -7907049.03147                  22804902.2324
        45.2504         39.2504
  23842375.8934    -136045.81949   -102419.00547                  23842377.4754
        45.5004         29.7504
  23591082.9164   -6048097.81949  -4709106.44847                  23591083.9514
        47.2504         33.5004
 02  7  1 16 10 15.0020000  0  8G 6G10G15G17G23G18G22G29
  20928147.5884     667053.07549    532889.68548                  20928146.6464
        51.5004         44.2504
  23888702.0414   13085164.48549  10177166.03047                  23888702.5574
        45.5004         34.0004
  21931963.9794   -7496683.04449  -5810355.42548                  21931963.7364
        50.2504         42.0004
  21531957.4944   -4598698.49849  -3558477.08648                  21531956.4944
        47.5004         44.0004
  21461661.0724     839340.27449    670063.75148                  21461660.0064
        49.2504         44.2504
  22798680.3074  -10202738.94849  -7932531.75548                  22798678.9824
        47.0004         39.7504
  23841285.3464    -141776.89449   -106884.77647                  23841286.8694
        45.0004         30.5004
  23590005.7914   -6053757.53849  -4713516.60947                  23590006.6974
        46.5004         34.2504
 02  7  1 16 10 30.0020000  0  8G 6G10G15G17G23G18G22G29
  20932287.3304     688806.60049    549840.48148                  20932286.1194
        51.7504         44.0004
  23900565.8694   13147512.11649  10225748.58147                  23900567.2754
        45.7504         34.0004
  21929432.5254   -7509986.31349  -5820721.58448                  21929432.5334
        50.0004         42.0004
  21531344.9794   -4601916.72649  -3560984.78448                  21531344.3504
        48.2504         44.0004
  21466646.3854     865536.95249    690476.74848                  21466645.3964
        49.5004         44.7504
  22792476.6354  -10235338.69849  -7957934.11748                  22792476.1434
        48.0004         40.2504
  23840225.4474    -147347.69449   -111225.61947                  23840226.7994
        44.7504         30.2504
  23588955.2134   -6059277.29749  -4717817.69947                  23588955.9164
        46.7504         34.5004
 02  7  1 16 10 45.0020000  0  8G 6G10G15G17G23G18G22G29
  20936452.5024     710694.50049    566895.98348                  20936451.3224
        51.0004         44.2504
  23912444.2914   13209931.28449  10274386.84847                  23912444.7054
        45.5004         33.5004
  21926916.2134   -7523209.96149  -5831025.72248                  21926915.7684
        50.0004         42.0004
  21530746.9244   -4605058.82849  -3563433.17648                  21530746.5294
        47.5004         43.7504
  21471657.6274     891872.80149    710998.17948                  21471656.9594
        49.0004         44.0004
  22786291.9864  -10267838.91349  -7983258.94548                  22786291.4044
        48.0004         39.7504
  23839195.3464    -152761.53849   -115444.21247                  23839196.0414
        45.5004         30.0004
  23587930.9474   -6064660.65749  -4722012.49747                  23587931.3614
        47.2504         33.7504
 02  7  1 16 11  0.0020000  0  8G 6G10G15G17G23G18G22G29
  20940643.5024     732718.57149    584057.59148                  20940642.3654
        51.5004         44.5004
  23924335.9244   13272423.30049  10323081.91247                  23924336.7444
        45.5004         33.7504
  21924415.0884   -7536352.18149  -5841266.39848                  21924414.6394
        50.2504         42.2504
  21530163.4794   -4608123.15649  -3565820.96148                  21530163.1584
        47.0004         44.0004
  21476695.9474     918349.29449    731629.21148                  21476695.3034
        48.0004         44.2504
  22780126.4324  -10300237.63149  -8008504.65648                  22780126.1354
        47.5004         40.0004
  23838194.6044    -158016.71349   -119539.14447                  23838196.2134
        44.0004         29.5004
  23586932.6274   -6069905.55949  -4726099.42247                  23586933.4514
        47.2504         33.2504
 02  7  1 16 11 15.0020000  0  8G 6G10G15G17G23G18G22G29
  20944860.2444     754878.81749    601325.30948                  20944859.5494
        51.5004         44.0004
  23936241.5724   13334987.71549  10371833.37647                  23936242.4634
        46.0004         34.0004
  21921929.6434   -7549413.05749  -5851443.68948                  21921929.9164
        50.0004         42.5004
  21529595.4634   -4611109.69749  -3568148.12548                  21529594.9434
        47.0004         44.0004
  21481761.0494     944966.25749    752369.69848                  21481760.4514
        48.2504         44.2504
  22773980.6354  -10332534.57649  -8033671.07848                  22773980.1464
        46.2504         40.0004
  23837224.7444    -163113.20749   -123510.42147                  23837226.3224
        44.0004         29.7504
  23585961.0184   -6075011.94849  -4730078.40847                  23585961.4284
        45.5004         34.0004
 02  7  1 16 11 30.0020000  0  8G 6G10G15G17G23G18G22G29
  20949103.5024     777176.40349    618700.04848                  20949102.3654
        51.5004         44.0004
  23948160.8464   13397625.38849  10420641.91347                  23948161.7644
        44.5004         33.2504
  21919460.5334   -7562391.43349  -5861556.69548                  21919459.7684
        49.5004         42.5004
  21529042.1044   -4614017.36749  -3570413.84048                  21529042.0534
        47.7504         44.0004
  21486853.0024     971724.62649    773220.37648                  21486852.5924
        50.0004         44.5004
  22767854.5494  -10364728.53149  -8058757.25348                  22767853.5414
        46.7504         40.5004
  23836285.9394    -168049.72449   -127357.05047                  23836286.9984
        44.7504         29.2504
  23585016.0804   -6079978.36849  -4733948.33747                  23585016.2484
        47.7504         34.7504
 02  7  1 16 11 45.0020000  0  8G 6G10G15G17G23G18G22G29
  20953372.6194     799610.28049    636180.98848                  20953371.5374
        51.2504         44.0004
  23960094.6354   13460335.00849  10469506.52347                  23960095.3814
        44.5004         33.5004
  21917005.7754   -7575288.32349  -5871606.22048                  21917005.6354
        50.0004         42.7504
  21528503.3934   -4616847.34049  -3572619.00448                  21528503.4044
        47.5004         44.0004
  21491971.5804     998623.18149    794180.28548                  21491970.7294
        49.7504         45.0004
  22761747.2444  -10396820.26549  -8083763.77648                  22761747.1154
        46.0004         40.5004
  23835376.2914    -172827.11349   -131079.67847                  23835378.5684
        44.0004         30.2504
  23584097.6274   -6084805.65149  -4737709.84047                  23584098.1234
        46.0004         34.7504
 02  7  1 16 12  0.0020000  0  8G 6G10G15G17G23G18G22G29
  20957667.9864     822184.66749    653771.40248                  20957667.4514
        51.7504         44.2504
  23972041.6584   13523120.41349  10518430.17947                  23972042.7174
        44.5004         33.7504
  21914567.8224   -7588099.64649  -5881589.05348                  21914567.7954
        50.0004         42.0004
  21527980.3934   -4619595.35149  -3574760.31448                  21527980.0574
        48.0004         44.2504
  21497117.6824    1025665.80549    815252.45748                  21497117.1934
        50.5004         44.7504
  22755661.1824  -10428805.41449  -8108687.24248                  22755660.5374
        46.5004         40.0004
  23834499.0104    -177441.21549   -134675.07447                  23834500.3734
        45.2504         29.2504
  23583205.7684   -6089489.52149  -4741359.59947                  23583206.4284
        46.5004         34.5004
 02  7  1 16 12 15.0020000  0  8G 6G10G15G17G23G18G22G29
  20961990.3694     844896.64449    671469.04148                  20961989.1974
        51.7504         44.2504
  23984003.6434   13585978.08949  10567410.16447                  23984004.0534
        45.0004         33.0004
  21912145.1974   -7600828.26449  -5891507.44448                  21912145.3304
        50.5004         41.5004
  21527472.7134   -4622264.50849  -3576840.17148                  21527472.5104
        48.5004         44.2504
  21502290.3544    1052849.31749    836434.41948                  21502289.5144
        50.7504         44.5004
  22749594.0254  -10460686.69449  -8133529.75548                  22749593.5494
        46.0004         40.5004
  23833650.9554    -181894.95749   -138145.47547                  23833653.3504
        45.2504         30.5004
  23582341.7444   -6094032.66149  -4744899.70347                  23582341.8614
        45.7504         34.7504
 02  7  1 16 12 30.0020000  0  8G 6G10G15G17G23G18G22G29
  20966337.8854     867743.10349    689271.46748                  20966336.5724
        51.7504         44.0004
  23995977.6894   13648904.67249  10616443.81147                  23995978.7134
        45.5004         32.2504
  21909738.6044   -7613477.43249  -5901363.92648                  21909738.1744
        50.2504         41.7504
  21526978.8774   -4624857.91549  -3578861.00348                  21526977.7294
        48.7504         43.7504
  21507489.5724    1080170.28649    857723.48548                  21507488.8344
        49.7504         44.5004
  22743546.2914  -10492467.09149  -8158293.68948                  22743545.8964
        46.2504         40.5004
  23832833.4944    -186191.36849   -141493.33547                  23832835.2754
        44.7504         30.7504
  23581503.1354   -6098438.11549  -4748332.49447                  23581503.7294
        46.7504         34.5004
 02  7  1 16 12 45.0020000  0  8G 6G10G15G17G23G18G22G29
  20970711.8774     890729.55649    707182.98548                  20970710.8034
        51.2504         44.2504
  24007966.4084   13711905.27249  10665535.16847                  24007967.0614
        44.0004         32.0004
  21907347.9084   -7626041.71849  -5911154.26548                  21907347.5334
        50.0004         42.0004
  21526501.0414   -4627370.30449  -3580818.69548                  21526500.5494
        51.0004         44.0004
  21512716.0184    1107634.01649    879123.78748                  21512714.6744
        50.7504         44.5004
  22737518.8304  -10524140.82149  -8182974.48148                  22737518.6584
        47.2504         40.5004
  23832046.6274    -190324.89249   -144714.26047                  23832048.1044
        45.0004         30.0004
  23580691.9244   -6102700.12049  -4751653.52747                  23580692.3464
        46.0004         34.2504
 02  7  1 16 13  0.0020000  0  8G 6G10G15G17G23G18G22G29
  20975111.6504     913849.42449    725198.46348                  20975110.8734
        52.5004         44.7504
  24019968.1274   13774972.81049  10714678.68647                  24019968.0724
        44.0004         32.0004
  21904971.3544   -7638527.75649  -5920883.64048                  21904971.4594
        50.0004         41.5004
  21526037.5494   -4629808.17149  -3582718.32748                  21526036.6434
        50.0004         44.0004
  21517967.9324    1135233.64749    900629.98748                  21517966.7834
        51.0004         44.2504
  22731510.7134  -10555714.39349  -8207577.24048                  22731510.0964
        47.5004         40.5004
  23831290.6504    -194301.97249   -147813.25247                  23831291.2994
        45.2504         30.2504
  23579907.2214   -6106825.06649  -4754867.75147                  23579907.6504
        47.0004         35.0004
 02  7  1 16 13 15.0020000  0  8G 6G10G15G17G23G18G22G29
  20979537.0494     937106.86849    743321.13448                  20979536.5764
        53.0004         44.5004
  24031982.7054   13838111.12149  10763877.33447                  24031983.1004
        43.2504         32.0004
  21902611.4164   -7650931.40649  -5930548.79948                  21902611.1784
        50.2504         41.7504
  21525588.0884   -4632167.52049  -3584556.77048                  21525588.0964
        49.2504         43.5004
  21523246.6664    1162973.10649    922245.14848                  21523245.5064
        50.5004         44.5004
  22725522.4004  -10587183.61249  -8232098.68248                  22725521.7954
        47.0004         40.2504
  23830563.9864    -198118.55949   -150787.21347                  23830565.0024
        45.2504         30.5004
  23579149.1894   -6110808.68049  -4757971.84747                  23579149.7754
        46.7504         35.0004
 02  7  1 16 13 30.0020000  0  8G 6G10G15G17G23G18G22G29
  20983988.1744     960498.08149    761548.05448                  20983987.4794
        52.0004         45.0004
  24044010.4164   13901316.13049  10813127.95447                  24044011.4474
        44.5004         32.0004
  21900266.0804   -7663256.42449  -5940152.70548                  21900265.2794
        50.7504         42.0004
  21525153.5254   -4634452.04649  -3586336.92048                  21525153.0534
        49.2504         43.5004
  21528550.9554    1190848.39349    943966.15448                  21528550.0144
        50.0004         44.2504
  22719553.1824  -10618551.87049  -8256541.46048                  22719552.0964
        46.7504         40.5004
  23829867.5884    -201778.22349   -153638.88847                  23829868.5964
        44.7504         30.5004
  23578417.4164   -6114654.52549  -4760968.60147                  23578418.1394
        47.2504         34.0004
 02  7  1 16 13 45.0020000  0  8G 6G10G15G17G23G18G22G29
  20988465.6824     984025.50849    779881.09748                  20988464.6464
        52.0004         44.5004
  24056051.0884   13964589.83049  10862432.11147                  24056052.2644
        44.0004         32.5004
  21897936.2054   -7675500.50049  -5949693.53848                  21897936.0614
        51.0004         42.0004
  21524733.5574   -4636659.56049  -3588057.05448                  21524732.9984
        47.5004         44.0004
  21533881.5494    1218861.68549    965794.67748                  21533880.5374
        49.2504         44.2504
  22713603.8694  -10649816.66649  -8280903.60348                  22713602.6154
        45.7504         40.5004
  23829201.3144    -205278.51349   -156366.37147                  23829202.6584
        45.7504         31.0004
  23577711.8614   -6118359.99949  -4763855.96647                  23577713.1234
        47.0004         35.0004
 02  7  1 16 14  0.0020000  0  8G 6G10G15G17G23G18G22G29
  20992969.0494    1007691.00149    798321.73648                  20992968.2134
        52.0004         44.0004
  24068104.5024   14027933.77649  10911790.98747                  24068105.5924
        44.5004         32.0004
  21895621.7994   -7687661.79549  -5959169.86448                  21895621.5334
        50.2504         42.7504
  21524328.3224   -4638788.19749  -3589715.72948                  21524327.4284
        48.7504         44.0004
  21539239.0024    1247014.54049    987731.97248                  21539237.9714
        49.7504         44.5004
  22707674.3614  -10680975.92749  -8305183.52248                  22707673.7684
        47.0004         41.0004
  23828566.1664    -208617.58749   -158968.22247                  23828567.6234
        45.0004         30.0004
  23577034.3384   -6121923.04049  -4766632.33947                  23577034.8114
        47.0004         35.5004
 02  7  1 16 14 15.0020000  0  8G 6G10G15G17G23G18G22G29
  20997497.2294    1031487.36049    816864.34648                  20997496.3304
        52.0004         44.0004
  24080171.1894   14091340.38549  10961198.71147                  24080171.4754
        44.7504         33.0004
  21893321.8384   -7699747.53449  -5968587.31548                  21893321.4864
        50.0004         42.2504
  21523936.9164   -4640845.09649  -3591318.51048                  21523936.6664
        47.7504         43.7504
  21544621.7054    1275299.62849   1009772.29148                  21544620.8814
        49.5004         44.5004
  22701763.5494  -10712036.56149  -8329386.59748                  22701762.5804
        47.0004         40.5004
  23827959.5254    -211802.43349   -161449.91047                  23827961.3854
        43.5004         31.0004
  23576381.9324   -6125350.58649  -4769303.14947                  23576382.4904
        46.5004         35.5004
 02  7  1 16 14 30.0020000  0  8G 6G10G15G17G23G18G22G29
  21002051.3464    1055419.51649    835512.77848                  21002050.3144
        52.0004         44.5004
  24092249.2754   14154814.05949  11010658.69847                  24092250.3144
        45.0004         33.2504
  21891037.6274   -7711752.75549  -5977942.02148                  21891037.0104
        50.2504         41.7504
  21523559.8304   -4642825.46949  -3592861.64448                  21523559.5924
        47.5004         43.7504
  21550030.0024    1303721.52649   1031919.22748                  21550028.8114
        48.7504         44.7504
  22695872.8224  -10742993.57249  -8353508.91048                  22695872.2254
        47.2504         40.2504
  23827384.1044    -214828.26449   -163807.68147                  23827385.3934
        41.7504         30.5004
  23575756.1744   -6128637.70449  -4771864.51047                  23575756.6004
        44.2504         35.5004
 02  7  1 16 14 45.0020000  0  8G 6G10G15G17G23G18G22G29
  21006631.1974    1079486.78249    854266.46948                  21006630.2874
        52.0004         44.5004
  24104340.8144   14218353.86449  11060170.20347                  24104341.3614
        44.2504         33.5004
  21888768.1974   -7723678.18649  -5987234.55748                  21888767.7714
        49.7504         42.5004
  21523197.7524   -4644730.09649  -3594345.77148                  21523197.4554
        47.5004         43.7504
  21555464.3614    1332279.31949   1054172.03448                  21555463.5494
        49.5004         44.7504
  22690001.3144  -10773847.50249  -8377550.91248                  22690000.6274
        47.5004         40.0004
  23826838.7524    -217695.60649   -166041.97347                  23826839.6274
        39.7504         30.0004
  23575157.6194   -6131784.76349  -4774316.75647                  23575158.0454
        45.7504         34.7504
 02  7  1 16 15  0.0020000  0  8G 6G10G15G17G23G18G22G29
  21011235.3544    1103680.02349    873118.35448                  21011234.5884
        52.7504         44.5004
  24116442.8074   14281950.28649  11109725.83447                  24116443.2094
        44.5004         33.0004
  21886512.1664   -7735533.03649  -5996472.08648                  21886512.0494
        50.5004         42.2504
  21522847.7754   -4646568.18849  -3595778.03748                  21522847.0494
        48.0004         44.2504
  21560922.7364    1360963.56749   1076523.41148                  21560922.0574
        49.0004         45.0004
  22684148.1664  -10804607.23949  -8401519.51448                  22684147.1114
        47.5004         40.0004
  23826321.2214    -220413.47649   -168159.78647                  23826322.0724
        40.5004         31.2504
  23574583.4634   -6134800.87549  -4776666.95147                  23574584.4284
        44.5004         35.2504
 02  7  1 16 15 15.0020000  0  8G 6G10G15G17G23G18G22G29
  21015863.5644    1128002.93549    892071.25248                  21015862.4984
        52.0004         44.0004
  24128556.4084   14345606.54849  11159328.07147                  24128557.3074
        44.0004         32.7504
  21884270.3464   -7747313.70149  -6005651.81848                  21884269.8934
        49.5004         42.5004
  21522511.2444   -4648336.12349  -3597155.65448                  21522511.1784
        47.0004         44.0004
  21566405.9164    1389777.68149   1098975.95648                  21566405.3464
        48.7504         44.7504
  22678313.0724  -10835269.01649  -8425411.78548                  22678312.0494
        46.0004         40.2504
  23825832.2914    -222978.29849   -170158.34647                  23825833.9004
        42.0004         31.7504
  23574035.2364   -6137682.09149  -4778912.03447                  23574036.0614
        45.5004         35.5004
 02  7  1 16 15 30.0020000  0  8G 6G10G15G17G23G18G22G29
  21020517.4864    1152460.03649    911128.73348                  21020516.9634
        52.0004         44.2504
  24140682.0254   14409326.77449  11208980.17847                  24140682.4864
        45.5004         32.0004
  21882043.4794   -7759015.70549  -6014770.25648                  21882043.2324
        50.5004         42.2504
  21522188.8074   -4650029.47749  -3598475.14348                  21522188.6504
        47.0004         44.5004
  21571914.7364    1418725.96149   1121533.05948                  21571913.8144
        48.0004         45.0004
  22672497.8614  -10865828.04649  -8449224.00248                  22672497.0334
        46.0004         41.0004
  23825375.5104    -225385.52249   -172034.08247                  23825376.3424
        41.0004         31.7504
  23573513.4084   -6140423.82149  -4781048.42747                  23573514.3774
        43.5004         36.0004
 02  7  1 16 15 45.0020000  0  8G 6G10G15G17G23G18G22G29
  21025196.4004    1177047.41349    930287.71748                  21025195.5334
        52.5004         44.2504
  24152818.9324   14473106.68749  11258678.77747                  24152819.9944
        45.2504         32.2504
  21879831.1354   -7770642.94949  -6023830.42948                  21879830.6824
        50.7504         42.5004
  21521880.2754   -4651652.15549  -3599739.56448                  21521880.1074
        47.7504         44.0004
  21577448.0724    1447804.25549   1144191.47048                  21577447.3304
        49.2504         44.7504
  22666701.4794  -10896288.00149  -8472958.99748                  22666700.2564
        48.2504         40.2504
  23824945.9634    -227638.87949   -173789.91847                  23824947.5494
        39.7504         31.5004
  23573017.5804   -6143029.67349  -4783078.94947                  23573017.8934
        47.0004         36.0004
 02  7  1 16 16  0.0020000  0  8G 6G10G15G17G23G18G22G29
  21029900.8854    1201768.24249    949550.69648                  21029900.3464
        52.2504         44.2504
  24164967.1974   14536949.10849  11308426.09147                  24164968.3894
        44.7504         33.0004
  21877633.1194   -7782192.24749  -6032829.87348                  21877632.6274
        50.2504         42.5004
  21521585.3544   -4653200.97349  -3600946.42348                  21521584.9284
        48.2504         43.5004
  21583006.5184    1477015.45849   1166953.44748                  21583006.0064
        50.0004         44.5004
  22660924.8774  -10926645.70949  -8496614.33248                  22660923.9204
        48.0004         40.5004
  23824546.9244    -229735.20549   -175423.41347                  23824549.0574
        39.5004         31.7504
  23572548.0334   -6145496.47349  -4785001.11947                  23572548.6824
        45.7504         35.0004
 02  7  1 16 16 15.0020000  0  8G 6G10G15G17G23G18G22G29
  21034629.3464    1226617.30549    968913.57948                  21034628.6354
        52.5004         44.2504
  24177127.3694   14600848.57549  11358217.84947                  24177127.9044
        45.0004         32.7504
  21875448.7604   -7793668.86849  -6041772.69348                  21875448.4864
        50.5004         42.5004
  21521303.8464   -4654681.24549  -3602099.89248                  21521303.6544
        48.2504         44.0004
  21588589.4634    1506354.16049   1189814.76448                  21588588.9864
        48.7504         44.2504
  22655166.3074  -10956906.05349  -8520193.80148                  22655165.6974
        47.0004         40.5004
  23824177.6114    -231679.63849   -176938.55147                  23824178.7294
        39.7504         31.0004
  23572104.3144   -6147829.06449  -4786818.71047                  23572104.8224
        44.5004         35.2504
 02  7  1 16 16 30.0020000  0  8G 6G10G15G17G23G18G22G29
  21039382.7294    1251596.66049    988378.00748                  21039381.7524
        52.5004         44.5004
  24189298.2444   14664806.79749  11408055.41047                  24189299.0454
        45.5004         34.0004
  21873279.5644   -7805070.82049  -6050657.32648                  21873279.6504
        50.5004         42.5004
  21521035.5804   -4656090.94749  -3603198.34748                  21521034.8934
        48.2504         44.0004
  21594197.2134    1535822.15749   1212776.84948                  21594196.5024
        49.0004         45.0004
  22649426.7914  -10987066.84449  -8543695.68248                  22649425.5574
        47.5004         40.5004
  23823836.4714    -233470.08449   -178333.68147                  23823837.6234
        42.2504         30.7504
  23571686.1274   -6150025.33149  -4788530.07347                  23571686.8854
        46.0004         34.2504
